[[{"header":{"parameterUnit":"m.s-1","parameterCategory":1,"la1":30.6,"la2":28.766,"lo1":-90.7593,"lo2":-88.6598,"dx":0.0162,"dy":0.0183,"nx":116,"ny":114,"refTime":"2022-12-18T18:00:00:Z","depth":0,"parameterNumber":2,"parameterNumberName":"U-component_of_WINDS"},"data":[0.0,0.0,0.0,0.0,0.0,0.0,0.0,0.0,0.0,0.0,0.0,0.0,0.0,0.0,0.0,0.0,0.0,0.0,0.0,0.0,0.0,0.0,0.0,0.0,0.0,0.0,0.0,0.0,0.0,0.0,0.0,0.0,0.0,0.0,0.0,0.0,0.0,0.0,0.0,0.0,0.0,0.0,0.0,0.0,0.0,0.0,0.0,0.0,0.0,0.0,0.0,0.0,0.0,0.0,0.0,0.0,0.0,0.0,0.0,0.0,0.0,0.0,0.0,0.0,0.0,0.0,0.0,0.0,0.0,0.0,0.0,0.0,0.0,0.0,0.0,0.0,0.0,0.0,0.0,0.0,0.0,0.0,0.0,0.0,0.0,0.0,0.0,0.0,0.0,0.0,0.0,0.0,0.0,0.0,0.0,0.0,0.0,0.0,0.0,0.0,0.0,0.0,0.0,0.0,0.0,0.0,0.0,0.0,0.0,0.0,0.0,0.0,0.0,0.0,0.0,0.0,0.0,0.0,0.0,0.0,0.0,0.0,0.0,0.0,0.0,0.0,0.0,0.0,0.0,0.0,0.0,0.0,0.0,0.0,0.0,0.0,0.0,0.0,0.0,0.0,0.0,0.0,0.0,0.0,0.0,0.0,0.0,0.0,0.0,0.0,0.0,0.0,0.0,0.0,0.0,0.0,0.0,0.0,0.0,0.0,0.0,0.0,0.0,0.0,0.0,0.0,0.0,0.0,0.0,0.0,0.0,0.0,0.0,0.0,0.0,0.0,0.0,0.0,0.0,0.0,0.0,0.0,0.0,0.0,0.0,0.0,0.0,0.0,0.0,0.0,0.0,0.0,0.0,0.0,0.0,0.0,0.0,0.0,0.0,0.0,0.0,0.0,0.0,0.0,0.0,0.0,0.0,0.0,0.0,0.0,0.0,0.0,0.0,0.0,0.0,0.0,0.0,0.0,0.0,0.0,0.0,0.0,0.0,0.0,0.0,0.0,0.0,0.0,0.0,0.0,0.0,0.0,0.0,0.0,0.0,0.0,0.0,0.0,0.0,0.0,0.0,0.0,0.0,0.0,0.0,0.0,0.0,0.0,0.0,0.0,0.0,0.0,0.0,0.0,0.0,0.0,0.0,0.0,0.0,0.0,0.0,0.0,0.0,0.0,0.0,0.0,0.0,0.0,0.0,0.0,0.0,0.0,0.0,0.0,0.0,0.0,0.0,0.0,0.0,0.0,0.0,0.0,0.0,0.0,0.0,0.0,0.0,0.0,0.0,0.0,0.0,0.0,0.0,0.0,0.0,0.0,0.0,0.0,0.0,0.0,0.0,0.0,0.0,0.0,0.0,0.0,0.0,0.0,0.0,0.0,0.0,0.0,0.0,0.0,0.0,0.0,0.0,0.0,0.0,0.0,0.0,0.0,0.0,0.0,0.0,0.0,0.0,0.0,0.0,0.0,0.0,0.0,0.0,0.0,0.0,0.0,0.0,0.0,0.0,0.0,0.0,0.0,0.0,0.0,0.0,0.0,0.0,0.0,0.0,0.0,0.0,0.0,0.0,0.0,0.0,0.0,0.0,0.0,0.0,0.0,0.0,0.0,0.0,0.0,0.0,0.0,0.0,0.0,0.0,0.0,0.0,0.0,0.0,0.0,0.0,0.0,0.0,0.0,0.0,0.0,0.0,0.0,0.0,0.0,0.0,0.0,0.0,0.0,0.0,0.0,0.0,0.0,0.0,0.0,0.0,0.0,0.0,0.0,0.0,0.0,0.0,0.0,0.0,0.0,0.0,0.0,0.0,0.0,0.0,0.0,0.0,0.0,0.0,0.0,0.0,0.0,0.0,0.0,0.0,0.0,0.0,0.0,0.0,0.0,0.0,0.0,0.0,0.0,0.0,0.0,0.0,0.0,0.0,0.0,0.0,0.0,0.0,0.0,0.0,0.0,0.0,0.0,0.0,0.0,0.0,0.0,0.0,0.0,0.0,0.0,0.0,0.0,0.0,0.0,0.0,0.0,0.0,0.0,0.0,0.0,0.0,0.0,0.0,0.0,0.0,0.0,0.0,0.0,0.0,0.0,0.0,0.0,0.0,0.0,0.0,0.0,0.0,0.0,0.0,0.0,0.0,0.0,0.0,0.0,0.0,0.0,0.0,0.0,0.0,0.0,0.0,0.0,0.0,0.0,0.0,0.0,0.0,0.0,0.0,0.0,0.0,0.0,0.0,0.0,0.0,0.0,0.0,0.0,0.0,0.0,0.0,0.0,0.0,0.0,0.0,0.0,0.0,0.0,0.0,0.0,0.0,0.0,0.0,0.0,0.0,0.0,0.0,0.0,0.0,0.0,0.0,0.0,0.0,0.0,0.0,0.0,0.0,0.0,0.0,0.0,0.0,0.0,0.0,0.0,0.0,0.0,0.0,0.0,0.0,0.0,0.0,0.0,0.0,0.0,0.0,0.0,0.0,0.0,0.0,0.0,0.0,0.0,0.0,0.0,0.0,0.0,0.0,0.0,0.0,0.0,0.0,0.0,0.0,0.0,0.0,0.0,0.0,0.0,0.0,0.0,0.0,0.0,0.0,0.0,0.0,0.0,0.0,0.0,0.0,0.0,0.0,0.0,0.0,0.0,0.0,0.0,0.0,0.0,0.0,0.0,0.0,0.0,0.0,0.0,0.0,0.0,0.0,0.0,0.0,0.0,0.0,0.0,0.0,0.0,0.0,0.0,0.0,0.0,0.0,0.0,0.0,0.0,0.0,0.0,0.0,0.0,0.0,0.0,0.0,0.0,0.0,0.0,0.0,0.0,0.0,0.0,0.0,0.0,0.0,0.0,0.0,0.0,0.0,0.0,0.0,0.0,0.0,0.0,0.0,0.0,0.0,0.0,0.0,0.0,0.0,0.0,0.0,0.0,0.0,0.0,0.0,0.0,0.0,0.0,0.0,0.0,0.0,0.0,0.0,0.0,0.0,0.0,0.0,0.0,0.0,0.0,0.0,0.0,0.0,0.0,0.0,0.0,0.0,0.0,0.0,0.0,0.0,0.0,0.0,0.0,0.0,0.0,0.0,0.0,0.0,0.0,0.0,0.0,0.0,0.0,0.0,0.0,0.0,0.0,0.0,0.0,0.0,0.0,0.0,0.0,0.0,0.0,0.0,0.0,0.0,0.0,0.0,0.0,0.0,0.0,0.0,0.0,0.0,0.0,0.0,0.0,0.0,0.0,0.0,0.0,0.0,0.0,0.0,0.0,0.0,0.0,0.0,0.0,0.0,0.0,0.0,0.0,0.0,0.0,0.0,0.0,0.0,0.0,0.0,0.0,0.0,0.0,0.0,0.0,0.0,0.0,0.0,0.0,0.0,0.0,0.0,0.0,0.0,0.0,0.0,0.0,0.0,0.0,0.0,0.0,0.0,0.0,0.0,0.0,0.0,0.0,0.0,0.0,0.0,0.0,0.0,0.0,0.0,0.0,0.0,0.0,0.0,0.0,0.0,0.0,0.0,0.0,0.0,0.0,0.0,0.0,0.0,0.0,0.0,0.0,0.0,0.0,0.0,0.0,0.0,0.0,0.0,0.0,0.0,0.0,0.0,0.0,0.0,0.0,0.0,0.0,0.0,0.0,0.0,0.0,0.0,0.0,0.0,0.0,0.0,0.0,0.0,0.0,0.0,0.0,0.0,0.0,0.0,0.0,0.0,0.0,0.0,0.0,0.0,0.0,0.0,0.0,0.0,0.0,0.0,0.0,0.0,0.0,0.0,0.0,0.0,0.0,0.0,0.0,0.0,0.0,0.0,0.0,0.0,0.0,0.0,0.0,0.0,0.0,0.0,0.0,0.0,0.0,0.0,0.0,0.0,0.0,0.0,0.0,0.0,0.0,0.0,0.0,0.0,0.0,0.0,0.0,0.0,0.0,0.0,0.0,0.0,0.0,0.0,0.0,0.0,0.0,0.0,0.0,0.0,0.0,0.0,0.0,0.0,0.0,0.0,0.0,0.0,0.0,0.0,0.0,0.0,0.0,0.0,0.0,0.0,0.0,0.0,0.0,0.0,0.0,0.0,0.0,0.0,0.0,0.0,0.0,0.0,0.0,0.0,0.0,0.0,0.0,0.0,0.0,0.0,0.0,0.0,0.0,0.0,0.0,0.0,0.0,0.0,0.0,0.0,0.0,0.0,0.0,0.0,0.0,0.0,0.0,0.0,0.0,0.0,0.0,0.0,0.0,0.0,0.0,0.0,0.0,0.0,0.0,0.0,0.0,0.0,0.0,0.0,0.0,0.0,0.0,0.0,0.0,0.0,0.0,0.0,0.0,0.0,0.0,0.0,0.0,0.0,0.0,0.0,0.0,0.0,0.0,0.0,0.0,0.0,0.0,0.0,0.0,0.0,0.0,0.0,0.0,0.0,0.0,0.0,0.0,0.0,0.0,0.0,0.0,0.0,0.0,0.0,0.0,0.0,0.0,0.0,0.0,0.0,0.0,0.0,0.0,0.0,0.0,0.0,0.0,0.0,0.0,0.0,0.0,0.0,0.0,0.0,0.0,0.0,0.0,0.0,0.0,0.0,0.0,0.0,0.0,0.0,0.0,0.0,0.0,0.0,0.0,0.0,0.0,0.0,0.0,0.0,0.0,0.0,0.0,0.0,0.0,0.0,0.0,0.0,0.0,0.0,0.0,0.0,0.0,0.0,0.0,0.0,0.0,0.0,0.0,0.0,0.0,0.0,0.0,0.0,0.0,0.0,0.0,0.0,0.0,0.0,0.0,0.0,0.0,0.0,0.0,0.0,0.0,0.0,0.0,0.0,0.0,0.0,0.0,0.0,0.0,0.0,0.0,0.0,0.0,0.0,0.0,0.0,0.0,0.0,0.0,0.0,0.0,0.0,0.0,0.0,0.0,0.0,0.0,0.0,0.0,0.0,0.0,0.0,0.0,0.0,0.0,0.0,0.0,0.0,0.0,0.0,0.0,0.0,0.0,0.0,0.0,0.0,0.0,0.0,0.0,0.0,0.0,0.0,0.0,0.0,0.0,0.0,0.0,0.0,0.0,0.0,0.0,0.0,0.0,0.0,0.0,0.0,0.0,0.0,0.0,0.0,0.0,0.0,0.0,0.0,0.0,0.0,0.0,0.0,0.0,0.0,0.0,0.0,0.0,0.0,0.0,0.0,0.0,0.0,0.0,0.0,0.0,0.0,0.0,0.0,0.0,0.0,0.0,0.0,0.0,0.0,0.0,0.0,0.0,0.0,0.0,0.0,0.0,0.0,0.0,0.0,0.0,0.0,0.0,0.0,0.0,0.0,0.0,0.0,0.0,0.0,0.0,0.0,0.0,0.0,0.0,0.0,0.0,0.0,0.0,0.0,0.0,0.0,0.0,0.0,0.0,0.0,0.0,0.0,0.0,0.0,0.0,0.0,0.0,0.0,0.0,0.0,0.0,0.0,0.0,0.0,0.0,0.0,0.0,0.0,0.0,0.0,0.0,0.0,0.0,0.0,0.0,0.0,0.0,0.0,0.0,0.0,0.0,0.0,0.0,0.0,0.0,0.0,0.0,0.0,0.0,0.0,0.0,0.0,0.0,0.0,0.0,0.0,0.0,0.0,0.0,0.0,0.0,0.0,0.0,0.0,0.0,0.0,0.0,0.0,0.0,0.0,0.0,0.0,0.0,0.0,0.0,0.0,0.0,0.0,0.0,0.0,0.0,0.0,0.0,0.0,0.0,0.0,0.0,0.0,0.0,0.0,0.0,0.0,0.0,0.0,0.0,0.0,0.0,0.0,0.0,0.0,0.0,0.0,0.0,0.0,0.0,0.0,0.0,0.0,0.0,0.0,0.0,0.0,0.0,0.0,0.0,0.0,0.0,0.0,0.0,0.0,0.0,0.0,0.0,0.0,0.0,0.0,0.0,0.0,0.0,0.0,0.0,0.0,0.0,0.0,0.0,0.0,0.0,0.0,0.0,0.0,0.0,0.0,0.0,0.0,0.0,0.0,0.0,0.0,0.0,0.0,0.0,0.0,0.0,0.0,0.0,0.0,0.0,0.0,0.0,0.0,0.0,0.0,0.0,0.0,0.0,0.0,0.0,0.0,0.0,0.0,0.0,0.0,0.0,5.9264,0.0,0.0,0.0,0.0,0.0,0.0,0.0,0.0,0.0,0.0,0.0,0.0,0.0,0.0,0.0,0.0,0.0,0.0,0.0,0.0,0.0,0.0,0.0,0.0,0.0,0.0,0.0,0.0,0.0,0.0,0.0,0.0,0.0,0.0,0.0,0.0,0.0,0.0,0.0,3.7285,4.0718,4.5526,4.2329,3.9869,3.8136,0.0,0.0,0.0,0.0,0.0,0.0,0.0,0.0,0.0,0.0,0.0,0.0,0.0,0.0,0.0,0.0,0.0,0.0,0.0,0.0,0.0,0.0,0.0,0.0,0.0,0.0,0.0,0.0,0.0,0.0,0.0,0.0,0.0,0.0,0.0,0.0,0.0,0.0,0.0,0.0,0.0,0.0,0.0,0.0,0.0,0.0,0.0,0.0,0.0,0.0,0.0,0.0,0.0,0.0,0.0,0.0,0.0,0.0,0.0,0.0,0.0,0.0,0.0,0.0,0.0,0.0,0.0,0.0,0.0,0.0,0.0,6.0923,0.0,0.0,0.0,0.0,0.0,0.0,0.0,0.0,0.0,0.0,0.0,0.0,0.0,0.0,0.0,0.0,0.0,0.0,0.0,0.0,0.0,0.0,0.0,2.9806,3.0687,3.0834,3.1421,3.1825,0.0,0.0,0.0,0.0,0.0,0.0,0.0,0.0,0.0,0.0,0.0,4.7834,5.0707,5.0973,4.9143,0.0,0.0,0.0,0.0,0.0,0.0,0.0,0.0,0.0,0.0,0.0,0.0,0.0,0.0,0.0,0.0,0.0,0.0,0.0,0.0,0.0,0.0,0.0,0.0,0.0,0.0,0.0,0.0,0.0,0.0,0.0,0.0,0.0,0.0,0.0,0.0,0.0,0.0,0.0,0.0,0.0,0.0,0.0,0.0,0.0,0.0,0.0,0.0,0.0,0.0,0.0,0.0,0.0,0.0,0.0,0.0,0.0,0.0,0.0,0.0,0.0,0.0,0.0,0.0,0.0,6.7358,6.7664,6.8328,6.9517,7.0434,7.0983,6.792,6.7732,6.9204,0.0,0.0,0.0,0.0,0.0,0.0,0.0,0.0,0.0,0.0,0.0,0.0,0.0,0.0,0.0,0.0,0.0,0.0,0.0,0.0,2.9659,3.1751,3.2155,3.2559,3.3256,3.3403,3.3476,3.3476,0.0,0.0,0.0,0.0,0.0,0.0,0.0,0.0,0.0,0.0,0.0,5.4587,5.6052,5.6408,5.5527,5.0399,0.0,0.0,0.0,0.0,0.0,0.0,0.0,0.0,0.0,0.0,0.0,0.0,0.0,0.0,0.0,0.0,0.0,0.0,0.0,0.0,0.0,0.0,0.0,0.0,0.0,0.0,0.0,0.0,0.0,0.0,0.0,0.0,0.0,0.0,0.0,0.0,0.0,0.0,0.0,0.0,0.0,0.0,0.0,5.3408,5.3739,0.0,0.0,0.0,0.0,0.0,0.0,0.0,0.0,0.0,0.0,0.0,0.0,0.0,0.0,6.7514,6.9815,7.1743,7.3269,7.4613,7.5366,7.5479,7.5555,7.6015,7.6579,7.5323,0.0,7.0451,7.0372,0.0,0.0,0.0,0.0,0.0,0.0,0.0,0.0,0.0,0.0,0.0,0.0,0.0,0.0,0.0,0.0,0.0,0.0,0.0,0.0,0.0,3.5605,3.7037,3.7845,3.9166,3.935,3.7991,3.9093,0.0,0.0,0.0,0.0,0.0,0.0,0.0,0.0,5.5603,5.8298,5.9163,6.0328,6.0866,6.0725,5.8362,5.4905,5.061,4.8905,0.0,0.0,0.0,0.0,0.0,0.0,0.0,0.0,0.0,0.0,0.0,0.0,0.0,0.0,0.0,0.0,0.0,0.0,0.0,0.0,0.0,0.0,0.0,0.0,0.0,0.0,0.0,0.0,0.0,0.0,0.0,0.0,0.0,0.0,0.0,0.0,0.0,0.0,0.0,5.2197,5.4069,5.6785,5.6712,5.6895,0.0,0.0,0.0,0.0,0.0,0.0,0.0,0.0,0.0,6.7504,6.8641,7.0032,7.1814,7.3087,7.4397,7.5651,7.6535,7.7372,7.8195,7.8538,7.8823,7.9133,7.9006,7.8084,7.6379,7.4523,7.342,7.28,0.0,0.0,0.0,0.0,0.0,6.9712,0.0,0.0,0.0,0.0,0.0,0.0,0.0,0.0,0.0,0.0,0.0,0.0,3.6421,3.9496,4.1772,4.258,4.4488,4.4672,4.247,4.3828,4.4011,0.0,0.0,0.0,0.0,0.0,0.0,0.0,5.9152,6.1505,6.3089,6.4128,6.4512,6.4282,6.4282,6.1045,5.5493,5.359,5.2509,0.0,0.0,0.0,0.0,0.0,0.0,0.0,0.0,0.0,0.0,0.0,0.0,0.0,0.0,0.0,0.0,0.0,0.0,0.0,0.0,0.0,0.0,0.0,0.0,0.0,0.0,0.0,0.0,0.0,0.0,0.0,0.0,0.0,0.0,0.0,0.0,0.0,0.0,5.473,5.6675,6.0052,6.0456,6.0786,0.0,0.0,0.0,0.0,0.0,0.0,6.6806,6.7568,6.9368,7.2392,7.2815,7.3818,7.5384,7.603,7.6632,7.7304,7.7929,7.8951,8.0157,8.0452,8.0773,8.1114,8.1598,8.1919,8.1792,7.8386,7.7179,7.7302,7.6268,7.5683,7.5253,7.444,7.402,7.4124,0.0,0.0,0.0,0.0,0.0,0.0,0.0,0.0,0.0,0.0,0.0,3.8175,4.0561,4.3681,4.592,4.6764,4.7609,4.7425,4.5773,4.7168,4.7352,4.5736,0.0,0.0,0.0,0.0,0.0,5.7672,6.2964,6.5628,6.5743,6.7398,6.7705,6.6898,6.6898,6.4974,6.1488,5.8989,5.8169,5.8023,0.0,0.0,0.0,0.0,0.0,0.0,0.0,0.0,0.0,0.0,0.0,0.0,0.0,0.0,0.0,0.0,0.0,0.0,0.0,0.0,0.0,0.0,0.0,0.0,0.0,0.0,0.0,0.0,0.0,0.0,0.0,0.0,0.0,0.0,0.0,0.0,0.0,0.0,0.0,6.3906,6.5815,0.0,0.0,0.0,0.0,6.9486,6.9009,6.9339,7.0917,7.1635,7.3106,7.5604,7.7034,7.7772,7.7794,7.9416,7.9793,7.9001,8.0612,8.1733,8.2409,8.1854,8.2285,8.3445,8.3677,8.4134,8.4593,8.2715,8.1176,8.0011,7.9934,7.9087,7.8063,7.9321,7.9426,7.9222,0.0,0.0,0.0,2.5274,2.6062,2.7163,2.8755,3.0577,3.2228,3.3623,3.7294,4.0524,4.2433,4.6471,4.9591,5.0912,5.2711,5.2894,5.0765,5.2087,5.183,4.9187,0.0,0.0,0.0,0.0,5.9835,6.2158,6.5218,6.6667,6.6705,6.7859,6.8244,6.7936,6.7936,6.7282,6.5974,6.3435,6.1848,6.0751,5.7786,5.4836,0.0,0.0,0.0,0.0,0.0,0.0,0.0,0.0,0.0,0.0,0.0,0.0,0.0,0.0,0.0,0.0,0.0,0.0,0.0,0.0,0.0,0.0,0.0,0.0,0.0,0.0,0.0,0.0,0.0,0.0,0.0,0.0,0.0,0.0,0.0,0.0,0.0,6.4787,6.6549,0.0,6.9522,6.9412,6.9889,7.1505,7.2349,7.3266,7.4331,7.5653,7.6786,7.7636,7.9071,7.9814,7.9725,8.1268,8.2074,8.22,8.334,8.4205,8.4854,8.4633,8.4782,8.5209,8.527,8.5458,8.5632,8.5016,8.4417,8.4007,8.4007,8.3671,8.3293,8.3783,8.3862,8.3868,0.0,0.0,0.0,2.5695,2.6686,2.797,2.9549,3.1641,3.3697,3.5605,3.9863,4.3571,4.5736,5.0068,5.3261,5.4326,5.6381,5.6492,5.3775,5.5097,5.4693,5.1756,0.0,0.0,0.0,6.0943,6.2985,6.5897,6.7282,6.7975,6.8013,6.8859,6.9398,6.9667,6.9667,6.9667,6.9552,6.759,6.5743,6.4051,6.2042,5.8972,5.5515,0.0,0.0,0.0,0.0,0.0,0.0,0.0,0.0,0.0,0.0,0.0,0.0,0.0,0.0,0.0,0.0,0.0,0.0,0.0,0.0,0.0,0.0,0.0,0.0,0.0,0.0,0.0,0.0,0.0,0.0,0.0,0.0,0.0,0.0,0.0,6.4971,6.6366,6.8164,6.9816,7.1174,7.1321,7.2092,7.4001,7.5139,7.6287,7.7614,7.9017,7.9838,8.0056,8.1512,8.1975,8.114,8.2899,8.372,8.3688,8.4696,8.5693,8.6619,8.6619,8.6611,8.6555,8.7132,8.7055,8.6594,8.7171,8.7401,8.7286,8.644,8.6094,8.6094,8.6094,8.6146,8.6312,0.0,0.0,2.6612,2.6612,2.7934,2.9549,3.1127,3.2779,3.5312,3.935,4.3424,4.7205,5.0472,5.4399,5.6822,5.6859,5.829,5.7886,5.4693,5.6014,5.5868,5.3561,0.0,0.0,6.397,6.4153,6.5628,6.8475,6.9398,6.986,6.986,7.0667,7.1514,7.2283,7.2283,7.2245,7.2168,7.1321,7.0052,6.8282,6.4859,6.2708,6.1249,0.0,0.0,0.0,0.0,0.0,0.0,0.0,0.0,0.0,0.0,0.0,0.0,0.0,0.0,0.0,0.0,0.0,0.0,0.0,0.0,0.0,0.0,0.0,0.0,0.0,0.0,0.0,0.0,0.0,0.0,0.0,0.0,0.0,6.5558,6.6769,6.8091,6.8972,7.1101,7.2863,7.3707,7.3817,7.4808,7.7268,7.7451,7.844,8.0712,8.1587,8.2291,8.281,8.4556,8.4365,8.2146,8.4365,8.4831,8.3434,8.4882,8.635,8.7756,8.7718,8.7619,8.7555,8.921,8.8979,8.7632,8.9286,8.994,8.971,8.7209,8.6209,8.6209,8.6209,8.6352,8.6573,2.6759,2.6612,2.6612,2.6612,2.7934,2.9549,3.1127,3.3256,3.5936,3.9423,4.3901,4.8012,5.1316,5.473,5.7042,5.7629,5.8621,5.8327,5.6271,5.818,5.9435,0.0,0.0,0.0,6.5306,6.7752,6.9393,7.0206,7.2322,7.3322,7.336,7.4207,7.4399,7.4014,7.4014,7.3707,7.3129,7.2899,7.2514,7.1822,6.8359,6.5692,6.3719,0.0,0.0,0.0,0.0,0.0,0.0,0.0,0.0,0.0,0.0,0.0,0.0,0.0,0.0,0.0,0.0,0.0,0.0,0.0,0.0,0.0,0.0,0.0,0.0,0.0,0.0,0.0,0.0,0.0,0.0,0.0,0.0,6.9045,6.8825,6.9155,7.0146,7.2129,7.2459,7.3523,7.6056,7.6313,7.7341,7.98,7.9984,8.0551,8.1734,8.2054,8.2103,8.2199,8.4266,8.5043,8.4264,8.7149,8.846,8.8033,8.8499,8.8883,8.9301,8.8687,8.872,8.9248,8.971,9.0017,9.021,9.0671,9.0864,9.071,8.9402,8.8863,8.8863,8.8863,8.8525,8.8111,2.7273,2.7383,2.7493,2.7163,2.8705,3.032,3.1237,3.377,3.6964,4.0891,4.5039,4.9114,5.3078,5.5794,5.7684,5.8769,5.8722,5.8382,5.7698,5.9627,6.1666,0.0,0.0,6.671,6.8513,7.1129,7.2476,7.2476,7.4361,7.5245,7.5245,7.5745,7.6092,7.6284,7.5938,7.5515,7.5053,7.4707,7.413,7.3322,7.136,6.9013,6.6705,6.6474,6.4436,6.1627,6.1396,6.0877,6.0047,5.888,0.0,0.0,0.0,0.0,0.0,0.0,0.0,0.0,0.0,0.0,0.0,0.0,0.0,0.0,0.0,0.0,0.0,0.0,0.0,0.0,0.0,0.0,0.0,0.0,7.0752,7.2373,7.3508,7.2705,7.2853,7.4978,7.5027,7.5957,7.8544,7.848,7.9191,8.1255,8.1166,8.1734,8.344,8.3274,8.3462,8.428,8.5336,8.5847,8.5766,8.7883,8.9305,9.0033,9.0296,9.0825,9.1479,9.1018,9.0864,0.0,9.0979,9.0864,9.0671,9.0671,9.0864,0.0,0.0,0.0,0.0,0.0,9.0171,8.9787,2.797,2.8448,2.8741,2.7934,2.9806,3.1384,3.1384,3.4174,3.8028,4.2873,4.6287,5.0178,5.506,5.7042,5.8526,5.9868,5.8762,5.8342,5.9163,6.0895,0.0,6.6765,6.9158,7.103,7.2322,7.3976,7.4861,7.4861,7.5899,7.6476,7.6592,7.6669,7.7515,7.89,7.8169,7.7823,7.7669,7.6899,7.5668,7.4207,7.4014,7.2399,6.9975,6.8398,6.6782,6.5128,6.3628,6.3012,6.2872,6.224,0.0,0.0,0.0,0.0,0.0,0.0,0.0,0.0,0.0,0.0,0.0,0.0,0.0,0.0,0.0,0.0,0.0,0.0,0.0,0.0,0.0,0.0,0.0,0.0,7.3697,7.601,7.8504,7.6903,7.5989,7.7463,7.8088,7.9091,8.0675,8.0355,8.0664,8.2015,8.1575,8.2431,8.511,0.0,0.0,0.0,0.0,8.6781,8.6928,8.7775,8.8905,9.0474,9.1067,9.2172,9.371,9.3595,9.3287,9.2787,9.2787,9.1979,9.0633,9.0633,9.1095,9.1748,9.1479,9.0864,9.0287,9.0941,9.1133,0.0,2.797,2.8448,2.8741,2.7934,2.9806,3.1384,3.1384,3.4174,3.8028,4.2873,4.6287,5.0178,5.506,5.7042,5.8526,5.9868,5.8762,5.9042,6.1549,0.0,6.6674,6.936,7.0976,7.2265,7.3245,7.4899,7.5745,7.5745,7.7977,7.9438,8.0131,8.0785,8.1246,8.1554,8.14,8.0977,8.0362,8.0208,7.9515,7.8477,7.7092,7.5053,7.2745,7.2399,7.1206,6.9629,6.9321,6.8783,6.8013,6.6499,6.5897,6.5613,6.4649,6.3969,0.0,0.0,0.0,0.0,0.0,0.0,0.0,0.0,0.0,0.0,0.0,0.0,0.0,0.0,0.0,0.0,0.0,0.0,0.0,7.5001,7.7042,7.898,8.019,8.0376,8.0062,7.94,7.9274,7.9688,8.0849,8.1348,8.1938,8.2891,8.2851,8.3247,8.4356,8.4306,0.0,8.5578,8.6828,8.7722,8.8307,9.0453,9.1719,9.2026,0.0,0.0,9.3672,9.3018,9.3364,9.4518,9.4518,9.4711,9.5057,9.5057,9.5172,9.5095,9.3056,9.2133,9.1941,9.1402,9.0748,9.0171,2.8507,2.8718,2.8865,2.8484,3.0063,3.1384,3.1384,3.4174,3.7588,4.1222,4.4488,4.7902,5.1536,5.3775,5.5686,5.7411,5.9054,6.0781,0.0,6.6281,6.9413,7.1751,7.3313,7.4322,7.4745,7.6399,7.7246,7.7246,7.94,8.09,8.1708,8.2093,8.2785,8.3593,8.3131,8.2708,8.2324,8.19,8.0977,7.9746,7.89,7.7515,7.5822,7.413,7.2976,7.2129,7.1706,7.1283,7.0744,6.9436,6.9013,6.8948,6.8771,6.7982,6.6554,0.0,0.0,0.0,0.0,0.0,0.0,0.0,0.0,0.0,0.0,0.0,0.0,0.0,0.0,7.3541,7.2459,0.0,7.7356,7.8213,7.9987,8.1499,8.2463,8.305,8.2783,8.1132,8.1065,8.1679,8.2917,8.278,8.3039,8.4054,8.4252,8.4769,8.5903,8.6328,8.7014,8.8117,8.8577,8.9188,8.994,9.121,9.2287,9.3095,9.3518,9.4172,9.498,9.4595,9.4864,9.5634,9.5172,9.5249,9.5634,9.5634,9.5634,9.5557,9.4711,9.4403,9.4287,9.3403,9.2826,9.2441,2.9044,2.8975,2.8975,2.8975,3.032,3.1384,3.1384,3.4064,3.6964,3.957,4.2433,4.5333,4.8233,5.0472,5.2475,5.4353,5.9472,6.2659,0.0,6.7697,7.1452,7.3409,7.513,7.6015,7.6015,7.763,7.8477,7.8477,8.0246,8.1516,8.2285,8.2477,8.3401,8.4901,8.4324,8.4093,8.4016,8.3324,8.2054,8.0516,8.0362,7.9669,7.8438,7.5553,7.4284,7.3937,7.336,7.286,7.236,7.1822,7.1514,7.1552,7.2399,7.1496,6.9693,6.7496,6.724,0.0,0.0,0.0,0.0,0.0,0.0,0.0,0.0,0.0,7.2349,7.3454,7.5318,7.6381,7.5293,7.7604,8.0076,8.1489,8.2774,8.3839,8.4663,8.511,8.4664,8.2857,8.3012,8.3831,8.5024,8.4356,8.4255,8.5266,8.5637,8.6434,8.7842,8.8685,8.9649,9.0941,9.0594,9.0748,9.1441,9.1595,9.2364,9.371,9.4403,9.5211,9.6057,9.6057,9.6134,9.6249,9.5557,9.5249,9.5249,9.5249,9.5249,9.5326,9.6019,9.6288,9.6211,9.5518,9.5134,9.498,2.9044,2.8975,2.8975,2.8975,3.032,3.1384,3.1384,3.355,3.6303,3.946,4.1442,4.4342,4.893,5.0325,5.132,5.2283,5.9993,0.0,6.122,6.7914,7.2447,7.3476,7.513,7.6015,7.6015,7.763,7.8477,7.8477,8.0246,8.1516,8.2324,8.3093,8.3978,8.4939,8.5555,8.5824,8.5824,8.5709,8.4709,8.3093,8.2324,8.1054,7.9515,7.8361,7.7015,7.5822,7.6476,7.5284,7.3437,7.4091,7.3822,7.336,7.4168,7.4255,7.3629,7.1483,7.0535,6.9498,6.6282,6.6904,0.0,7.0269,7.1029,7.2241,0.0,0.0,7.6461,7.853,7.9893,8.0722,8.0707,8.274,8.4556,8.482,8.5515,8.6066,8.6171,8.6219,8.588,8.4877,8.4805,8.5018,8.5356,8.5797,8.61,8.6227,8.6985,8.7766,8.8528,8.9371,8.987,9.0056,9.1441,9.2249,9.2364,9.3056,9.3518,9.371,9.3787,9.4287,9.5134,9.5134,9.5557,9.6288,9.6211,9.6134,9.6134,9.6134,9.6134,9.6172,9.6249,9.6288,9.6288,9.6172,9.5672,9.498,2.9089,2.8975,2.8975,2.8975,3.032,3.1384,3.1384,3.344,3.5679,3.7551,3.9203,4.1515,4.4966,4.7755,4.9884,5.1206,5.7822,6.1809,6.1599,6.7331,7.1591,7.3437,7.4168,7.5014,7.5976,7.763,7.8477,7.8477,8.0246,8.1516,8.2324,8.267,8.3324,8.417,8.4478,8.4632,8.4632,8.4632,8.3939,8.2824,8.2439,8.1593,8.0516,8.0131,7.9246,7.7938,7.5822,7.4399,0.0,7.3283,7.3014,7.3168,7.5476,7.5515,7.4379,7.2734,7.2597,7.3021,7.3263,0.0,0.0,0.0,7.4789,7.5209,7.7708,7.8476,7.9207,8.1112,8.2868,8.4059,8.3726,8.5338,8.6833,0.0,8.728,8.7294,8.779,8.735,8.7234,8.7848,8.7043,8.647,8.6543,8.6462,8.6772,8.7657,8.85,8.9073,8.9402,9.0671,9.1402,9.1402,9.2556,9.321,9.321,9.4018,9.4441,9.4441,9.498,9.5403,9.5749,9.5749,9.5942,9.6288,9.6288,9.6288,9.6288,9.6288,9.6596,9.7019,9.7019,9.7326,9.7634,9.6673,9.6057,9.5749,2.9112,2.8975,2.8975,2.8975,3.032,3.1384,3.1384,3.3256,3.4981,3.5826,3.7184,3.9129,4.1992,4.5883,4.871,4.9701,5.5024,5.9122,6.0959,6.5711,6.9778,7.2668,7.3476,7.4399,7.563,7.7284,7.8284,7.8477,8.0015,8.117,8.1977,8.2208,8.2631,8.3247,8.3478,8.3593,8.3593,8.3593,8.3093,8.2285,8.2285,8.1823,8.1093,8.1093,8.04,7.9054,7.5976,7.4591,7.4091,7.3476,7.2937,7.3014,7.5745,7.5707,7.4495,7.3597,7.405,7.5288,7.7361,0.0,0.0,7.8088,7.8703,7.9009,8.0042,8.0884,8.1879,8.3333,8.4966,8.6111,8.6197,8.7192,8.8265,8.9087,8.8718,8.842,8.8762,8.842,8.8363,8.9133,8.8556,8.8094,8.8094,8.7619,8.7849,8.8944,9.0017,9.0633,9.0633,9.2018,9.2826,9.2826,9.3633,9.4057,9.4057,9.4903,9.5365,9.5365,9.6019,9.6288,9.6288,9.6288,9.6442,9.6634,9.6634,9.6788,9.698,9.6749,9.698,9.748,9.725,9.7557,9.7942,9.6749,9.6596,9.698,2.9112,2.8975,2.8975,2.8975,3.032,3.1384,3.1384,3.2779,3.4137,3.4917,3.5826,3.7881,4.1882,4.5883,4.8012,4.7278,5.2122,5.6178,5.8348,6.2864,6.7084,7.0821,7.336,7.4707,7.4745,7.6438,7.7707,7.8477,7.94,8.0285,8.1131,8.1939,8.2324,8.2362,8.3208,8.3593,8.3593,8.3593,8.3093,8.2285,8.2285,8.1823,8.1093,8.1093,8.0015,7.8515,7.84,7.7284,7.5938,7.5899,7.4822,7.363,7.4514,7.4745,7.4707,7.4639,7.4894,7.5354,7.6231,7.8253,8.0236,8.0844,8.283,8.4407,8.367,8.4099,8.4983,8.5829,8.6055,8.6649,8.8447,8.8692,8.8956,8.9897,8.9957,8.956,8.8825,8.9363,8.9248,8.7671,8.8863,8.9825,0.0,8.979,8.979,8.9863,9.1441,9.2402,9.2402,9.321,9.3672,9.3672,9.4518,9.4941,9.4941,9.5826,9.6249,9.6249,9.6288,9.6288,9.6288,9.6288,9.6749,9.7442,9.7442,9.7942,9.8673,9.7827,9.748,9.7403,9.6634,9.6365,9.6365,9.6326,9.7326,9.8596,2.9312,2.9134,2.8975,2.8975,3.032,3.1384,3.1384,3.2779,3.41,3.488,3.7147,0.0,0.0,0.0,0.0,0.0,4.9447,5.2701,5.4555,5.9277,6.3753,6.7812,7.02,7.2437,7.4668,7.5822,7.6861,7.7707,7.8515,7.9361,8.0246,8.0516,8.0939,8.1516,8.1823,8.1939,8.1939,8.1939,8.1785,8.1516,8.1516,8.1016,8.0246,8.0246,7.9515,7.8361,0.0,7.5745,7.4437,7.4976,7.4784,7.4745,7.7284,7.7323,7.6515,7.7053,7.85,8.0208,8.1666,8.2664,8.3658,8.4945,8.5901,8.6478,8.617,8.6786,8.7478,8.7786,8.7825,8.807,8.8752,8.8807,8.903,8.9936,8.9037,8.8556,8.9402,8.8786,8.844,8.8979,8.9556,0.0,0.0,0.0,0.0,9.1595,9.2672,9.3287,9.3287,9.4095,9.4557,9.4557,9.5403,9.5865,9.5865,9.6134,9.6288,9.6326,9.6826,9.7096,9.7096,9.7096,9.6942,9.6711,9.6711,9.6865,9.7134,9.6826,9.7019,9.748,9.7211,9.7442,9.7904,9.7326,9.7827,9.8596,2.9434,2.92,2.9085,2.9379,3.0503,0.0,0.0,0.0,0.0,0.0,0.0,0.0,0.0,0.0,0.0,0.0,0.0,4.9362,5.1734,5.5486,5.9277,6.3009,6.6059,6.8685,7.0834,7.2765,7.4168,7.5014,7.6438,7.7592,7.8477,7.9054,7.9631,8.0169,8.0169,8.0323,8.0631,8.0631,8.0631,8.0592,8.0285,7.9477,7.84,7.8092,7.7246,0.0,7.5707,7.4668,7.363,7.4437,7.4322,7.4361,7.7476,7.79,7.763,7.9361,8.0823,8.2324,8.4362,8.5363,8.6055,8.7132,8.7863,8.8209,8.794,8.8517,8.9133,8.9133,8.9363,8.9681,9.0108,8.961,8.9527,9.0759,8.9457,8.8556,8.9363,8.9056,8.894,8.9402,9.0017,9.0941,0.0,0.0,0.0,9.2903,9.371,9.4172,9.4172,9.498,9.5441,9.5441,9.6019,9.6288,9.6288,9.6288,9.6288,9.6326,9.6826,9.7057,9.7057,9.7057,9.7134,9.7173,9.7173,9.7519,9.8057,9.7788,9.7942,9.8404,9.8096,9.8288,9.8711,9.8173,9.8327,9.8634,2.9454,2.92,2.9329,0.0,0.0,0.0,0.0,0.0,0.0,0.0,0.0,0.0,0.0,0.0,0.0,0.0,0.0,0.0,4.9762,5.1622,0.0,5.6835,6.1233,6.3741,6.4,6.7543,6.9833,7.0783,7.3245,7.4899,7.5784,7.74,7.8207,7.8246,7.8246,7.8707,7.9477,7.9477,7.9477,7.94,7.8592,7.7246,7.5707,7.4899,7.3553,7.2322,7.3937,7.4014,7.3514,7.4361,7.3668,7.2899,7.5476,7.6938,7.8361,8.1554,8.2016,8.2016,8.4478,8.6324,8.7555,8.7594,8.8786,8.9787,8.8979,8.9363,8.9902,8.9979,9.0556,9.1364,0.0,0.0,9.0364,9.2136,9.0905,8.9517,8.8786,9.0094,9.0517,0.0,0.0,0.0,0.0,0.0,0.0,9.3826,0.0,9.5057,9.5057,9.5865,9.6288,9.6288,9.6326,9.6365,9.6365,9.6365,9.6365,9.6365,9.6403,9.6442,9.6442,9.648,9.7326,9.8788,9.8788,9.9712,10.1096,10.0289,9.9981,9.9942,9.9096,9.8788,9.8788,9.8788,9.8788,9.8788,0.0,0.0,0.0,0.0,0.0,0.0,0.0,0.0,0.0,0.0,0.0,0.0,0.0,0.0,0.0,0.0,0.0,0.0,4.6022,4.8584,0.0,0.0,0.0,0.0,6.3923,6.4967,6.6605,6.9052,7.036,7.1398,7.2206,7.3283,7.413,7.4784,7.4784,7.4899,7.513,7.513,7.513,7.5091,7.4861,7.413,7.3129,7.2899,7.2168,7.1283,7.1706,7.1745,7.1783,7.3322,7.4784,7.6438,7.9015,8.167,8.4016,8.4901,8.5901,8.7017,8.8286,8.894,8.944,9.0056,9.0556,9.0825,9.0594,9.021,9.0094,9.0748,9.0056,8.9835,0.0,0.0,0.0,9.1291,8.9611,0.0,8.8632,8.9594,0.0,8.8825,0.0,9.2479,9.3326,9.4172,0.0,0.0,9.5826,9.598,9.598,9.6172,9.6288,9.6288,9.6865,9.7211,9.7211,9.7211,9.7211,9.7211,9.7865,9.8173,9.8173,9.8827,9.9019,9.8788,9.8788,9.9019,9.9404,9.9211,9.9135,9.9096,9.8904,9.8788,9.8788,9.8788,9.8788,9.8904,0.0,0.0,0.0,0.0,0.0,0.0,0.0,0.0,0.0,0.0,0.0,0.0,0.0,0.0,0.0,0.0,0.0,0.0,0.0,4.5867,0.0,0.0,0.0,5.5593,5.8728,6.0399,6.2115,6.3974,6.632,6.7513,6.7628,6.959,7.1014,7.1822,7.1822,7.2245,7.2937,7.2937,7.2937,0.0,0.0,7.1629,7.0475,7.009,6.9667,6.9283,6.9667,7.0283,7.1206,7.3322,7.5976,7.8707,8.0516,8.317,8.5709,8.644,8.7363,8.8325,8.9133,8.9633,9.0017,9.0517,9.0941,9.121,9.121,9.0825,9.071,9.1595,9.1018,9.0908,9.2678,9.053,0.0,0.0,0.0,0.0,8.8632,8.971,9.0171,0.0,9.1171,0.0,9.3633,9.448,9.5365,0.0,9.6288,9.6288,9.6288,9.6288,9.648,9.6826,9.6903,9.698,9.698,9.698,9.698,9.698,9.748,9.7904,9.825,9.875,9.9096,9.9365,0.0,9.9558,9.9904,9.9904,9.9904,9.9904,9.9904,9.9904,9.9904,9.9904,9.9904,9.9981,0.0,0.0,0.0,0.0,0.0,0.0,0.0,0.0,0.0,3.5614,3.5467,3.5899,3.7331,3.7588,0.0,0.0,0.0,0.0,0.0,0.0,0.0,0.0,4.7782,5.0156,5.1647,5.5133,5.7251,5.7889,6.195,6.3551,6.2858,6.609,6.7975,6.8706,6.8783,6.9667,7.1014,7.1014,7.1014,7.0937,7.009,6.8859,6.7475,0.0,6.6397,6.6705,6.759,6.8975,7.0783,7.3476,7.6707,7.9823,8.1054,8.3247,8.5709,8.7132,8.7555,8.7786,8.8748,8.9363,8.9787,9.0017,9.0633,9.121,9.121,9.121,9.1441,9.2326,9.2402,9.2826,9.4518,9.2056,9.0325,9.2056,0.0,8.8709,8.8709,9.0248,9.1056,9.0171,9.1825,9.321,9.3826,9.4749,9.5634,9.6403,9.648,9.648,9.648,9.6557,9.6942,9.7634,9.6865,9.648,9.648,9.648,9.648,9.648,9.6596,9.7057,9.7865,9.7942,9.8827,10.0289,0.0,0.0,10.1289,10.1289,10.1289,10.1289,10.1289,10.1289,10.1289,10.1289,10.1289,10.1289,0.0,0.0,0.0,0.0,0.0,0.0,0.0,0.0,0.0,0.0,3.7881,3.7184,3.747,3.8102,0.0,0.0,0.0,0.0,0.0,0.0,0.0,4.4635,4.5329,4.686,4.9482,5.1873,5.3954,5.5721,5.888,6.0319,6.0204,6.2243,6.3281,6.3435,6.4128,6.4589,6.4859,6.4859,6.4859,6.4782,6.3935,6.3435,6.3089,6.2204,0.0,0.0,6.4936,6.632,0.0,0.0,7.5361,7.9246,8.2208,8.5401,8.8094,8.8402,8.8479,8.8786,9.0364,8.9863,8.9248,9.0633,9.1095,9.121,9.121,9.121,9.1441,9.2326,9.1941,9.1941,9.3633,9.1171,8.944,9.1133,8.9902,8.8709,8.8709,9.0748,9.1941,0.0,9.3749,9.5403,0.0,0.0,0.0,0.0,0.0,9.7288,9.7288,9.798,9.8442,9.8557,9.775,9.7288,9.7288,9.7288,9.7288,9.7288,9.8019,9.8827,9.9673,10.0289,10.0789,10.1096,10.1096,0.0,10.1289,10.1289,10.1289,10.1289,10.1289,10.1289,10.1289,10.1289,10.1289,10.1289,0.0,0.0,0.0,0.0,0.0,0.0,0.0,3.7881,3.9203,4.2029,4.1368,4.0304,3.946,3.8982,3.8872,0.0,0.0,0.0,0.0,0.0,0.0,0.0,0.0,4.5244,4.7671,4.9127,5.0534,5.1915,0.0,5.58,5.5588,5.7742,5.9242,6.0127,6.005,6.0512,6.132,6.132,6.132,6.132,6.1396,6.1396,6.1358,0.0,0.0,0.0,0.0,0.0,0.0,0.0,7.3014,7.7361,8.2093,8.594,8.8594,8.8171,8.8632,8.9402,8.9787,8.9633,8.9517,9.0325,9.121,9.1633,9.0748,9.0864,9.121,9.1171,9.0479,9.0402,9.2095,0.0,0.0,8.9748,8.9594,8.9171,8.8748,9.0902,9.2326,9.1941,9.448,9.6134,0.0,0.0,0.0,0.0,0.0,9.7519,9.7519,9.7904,9.7942,9.7519,9.7519,9.7288,9.6865,9.7288,9.7519,9.7519,9.8365,9.925,10.0096,10.0481,10.0904,10.1289,10.1289,0.0,10.1289,10.1289,10.1289,10.1289,10.1289,10.1289,10.1289,10.1289,10.1289,10.1289,0.0,0.0,0.0,0.0,0.0,0.0,0.0,4.0084,4.1515,4.4562,4.4268,4.3204,4.1772,4.0194,3.9093,0.0,0.0,0.0,0.0,0.0,0.0,0.0,0.0,4.407,4.5871,0.0,0.0,4.8514,5.0937,0.0,0.0,0.0,0.0,0.0,5.6934,5.7434,5.8704,5.8704,5.8704,0.0,0.0,5.955,0.0,0.0,0.0,0.0,0.0,0.0,0.0,0.0,7.0975,7.513,8.0746,8.4824,8.7517,8.7209,8.8055,8.9094,8.8979,8.9286,8.9671,8.9863,9.1056,9.1825,9.0248,9.0556,9.0941,9.0094,8.9402,8.9363,9.0671,0.0,8.8709,0.0,8.9248,8.9479,8.9017,9.0979,9.2556,9.2749,9.5172,0.0,9.6596,0.0,0.0,0.0,0.0,0.0,9.7788,9.7596,9.7211,9.6596,9.7019,9.7019,9.6557,9.7173,9.7673,9.8057,9.875,9.9519,10.0404,10.0404,10.0712,10.1289,10.1289,0.0,0.0,10.1289,10.1289,10.1289,10.1289,10.1289,10.1289,10.1289,10.1289,10.1289,0.0,0.0,0.0,0.0,0.0,0.0,0.0,4.0671,4.2983,4.5443,4.5076,4.4268,4.3387,4.1846,4.0304,0.0,0.0,0.0,0.0,0.0,0.0,0.0,0.0,0.0,0.0,0.0,0.0,4.7273,4.9327,0.0,0.0,0.0,0.0,0.0,0.0,5.5895,5.6049,5.6049,0.0,0.0,0.0,0.0,0.0,0.0,0.0,0.0,0.0,6.205,6.4051,6.7321,7.0206,7.3206,7.7592,8.1323,8.4362,8.5786,8.6324,8.694,8.9171,8.9325,8.8979,8.971,9.0633,9.1056,9.0133,9.0556,9.0941,9.0094,8.9863,8.9863,8.9979,8.9286,8.8709,8.8709,8.8748,8.9017,8.971,9.1364,9.2787,9.348,0.0,0.0,9.748,9.8173,0.0,0.0,0.0,0.0,9.8634,9.7942,9.748,9.7403,9.6749,9.6749,9.7365,9.7442,9.8288,9.9865,9.9942,10.0404,10.1212,10.1212,10.1212,10.1289,10.1289,0.0,0.0,10.1289,10.1289,10.1289,10.1289,10.1289,10.1289,10.1289,10.1289,10.1289,0.0,0.0,0.0,0.0,0.0,0.0,3.9753,4.0965,4.2983,4.6838,4.6214,4.5296,4.4966,4.3497,4.1515,3.8909,0.0,0.0,0.0,0.0,0.0,0.0,0.0,0.0,0.0,0.0,0.0,4.5606,4.6897,0.0,0.0,0.0,0.0,0.0,0.0,5.2972,5.3395,5.3395,0.0,0.0,0.0,0.0,0.0,0.0,0.0,0.0,0.0,0.0,6.232,6.5743,6.7898,6.986,7.4168,7.713,7.9669,8.2862,8.4901,8.6324,8.7363,8.8517,8.9517,8.9825,9.0941,9.1479,8.9594,8.944,8.9171,8.7286,8.6901,8.6901,8.6901,8.7863,8.8517,8.7979,8.921,9.0325,9.0633,9.2595,9.4095,9.4441,9.748,0.0,0.0,0.0,0.0,0.0,0.0,0.0,9.7288,9.698,9.7019,9.748,9.7211,9.7442,9.825,9.8788,9.9404,10.0096,10.0596,10.1019,10.1289,10.1289,10.1289,10.1289,10.1289,0.0,0.0,10.1289,10.1289,10.1289,10.1289,10.1289,10.1289,10.1289,10.1289,10.1289,0.0,0.0,0.0,0.0,0.0,3.7301,3.9974,4.1222,4.302,4.6434,4.6324,4.57,4.5223,4.3754,4.1882,3.9606,3.8982,0.0,0.0,0.0,0.0,0.0,0.0,0.0,0.0,0.0,0.0,4.4599,4.5521,4.6672,0.0,0.0,5.0164,5.151,0.0,0.0,0.0,0.0,0.0,0.0,0.0,0.0,0.0,0.0,0.0,0.0,0.0,0.0,0.0,0.0,0.0,6.7744,7.1552,7.3899,7.613,8.0631,8.3208,8.4901,8.617,8.7786,8.9286,8.9787,9.0633,9.0825,8.8786,8.794,8.6978,8.4939,8.4516,8.4593,8.4863,8.6786,8.8209,8.7825,8.9479,9.1018,9.1518,9.3326,9.4903,9.5634,0.0,0.0,0.0,0.0,0.0,0.0,0.0,0.0,0.0,9.6519,9.6903,9.748,9.775,9.8288,9.9173,9.9788,10.0212,10.0481,10.1019,10.1289,10.1289,10.1289,10.1289,10.1289,0.0,0.0,0.0,10.1289,10.1289,10.1289,10.1289,10.1289,10.1289,10.1289,10.1289,10.1289,0.0,0.0,0.0,0.0,0.0,0.0,3.8529,4.1442,4.3497,4.3534,4.4929,4.5296,4.3681,4.2103,4.1111,4.1075,3.9643,0.0,0.0,0.0,0.0,0.0,0.0,0.0,0.0,0.0,0.0,4.4599,4.5741,4.6908,4.8125,4.8971,4.9856,5.0702,0.0,0.0,0.0,0.0,0.0,0.0,0.0,0.0,0.0,0.0,0.0,0.0,0.0,0.0,0.0,0.0,0.0,0.0,0.0,7.2129,7.4553,7.9631,8.1131,8.2054,8.6247,8.7401,8.7825,8.9479,8.9325,8.8517,8.7632,8.6132,8.4709,8.3785,8.3593,8.3862,8.4747,8.6286,8.7671,8.8556,8.9363,9.0517,9.2249,9.3172,9.4634,0.0,0.0,0.0,0.0,0.0,0.0,0.0,0.0,0.0,9.6288,9.7057,9.748,9.7519,9.8327,9.9211,10.0096,10.0096,10.0481,10.1289,10.1289,10.1289,10.1289,10.1289,10.1289,0.0,0.0,0.0,0.0,10.1289,10.1289,10.1289,10.1289,10.1289,10.1289,10.1289,10.1289,10.1289,0.0,0.0,0.0,0.0,0.0,0.0,0.0,3.9203,4.0818,4.247,4.2653,4.2837,4.3424,4.2066,4.1111,4.1111,3.9643,0.0,0.0,0.0,0.0,0.0,0.0,0.0,0.0,0.0,0.0,4.6312,4.6682,4.7876,4.9894,5.0164,5.0433,5.0702,5.0702,5.0702,0.0,0.0,0.0,0.0,0.0,0.0,0.0,0.0,0.0,0.0,0.0,0.0,0.0,0.0,0.0,0.0,0.0,0.0,0.0,7.7323,7.9746,8.1631,8.4132,8.5632,8.6632,8.7171,8.7094,8.6709,8.5901,8.4824,8.3747,8.2901,8.317,8.367,8.3939,8.6363,8.8363,8.8671,9.0364,9.1864,9.2402,9.421,0.0,0.0,0.0,0.0,0.0,0.0,0.0,0.0,0.0,0.0,9.6288,9.7634,9.8404,9.8404,9.9211,10.0096,10.0904,10.0904,10.1019,10.1289,10.1289,10.1289,10.1289,10.1289,10.1289,0.0,0.0,0.0,0.0,10.1289,10.1289,10.1289,10.1289,10.1289,10.1289,10.1289,10.1712,10.2212,0.0,0.0,0.0,0.0,0.0,0.0,0.0,3.8248,3.957,4.0781,4.0781,4.1148,4.2433,4.1148,4.0451,4.1075,3.9643,0.0,0.0,0.0,0.0,0.0,0.0,0.0,0.0,0.0,0.0,4.7559,4.8337,4.9883,5.2125,5.2433,5.2433,5.2125,5.2125,5.1779,0.0,0.0,0.0,0.0,0.0,0.0,5.328,0.0,0.0,0.0,0.0,0.0,0.0,0.0,0.0,0.0,0.0,0.0,0.0,0.0,7.7669,7.9823,8.2785,8.4362,8.5324,8.594,8.5632,8.5016,8.4516,8.3747,8.2939,8.2401,8.2978,8.3708,8.4016,8.6632,8.8786,8.9094,9.1287,9.3056,9.3403,0.0,0.0,0.0,0.0,0.0,0.0,0.0,0.0,0.0,0.0,0.0,9.6749,9.8057,9.8942,9.9288,10.0096,10.0789,10.1289,10.1289,10.1289,10.1289,10.1289,10.1289,10.1289,10.1289,10.1289,0.0,0.0,0.0,0.0,10.1289,10.1289,10.1289,10.1289,10.152,10.1789,10.1789,10.2289,10.3097,0.0,0.0,0.0,0.0,0.0,0.0,0.0,3.8248,3.946,3.8799,3.935,4.0084,4.0855,3.9606,3.9313,4.0818,0.0,0.0,0.0,0.0,0.0,0.0,0.0,0.0,0.0,4.4601,0.0,4.8541,5.0494,5.2509,5.4566,5.5395,5.5318,5.4511,5.4511,5.3549,5.1779,0.0,0.0,0.0,0.0,0.0,0.0,0.0,0.0,0.0,0.0,0.0,0.0,0.0,0.0,0.0,0.0,0.0,0.0,0.0,0.0,0.0,0.0,8.3285,8.3708,8.5324,8.4555,8.3439,8.3478,8.2862,0.0,8.2362,8.3093,8.3939,8.4824,8.7017,8.894,8.9787,9.1979,9.3903,9.4711,9.5672,0.0,0.0,0.0,0.0,0.0,0.0,0.0,0.0,0.0,0.0,9.7442,9.8327,9.9211,10.0096,10.0904,10.1289,10.1289,10.1289,10.1289,10.1289,10.1289,10.1289,10.1289,10.1289,10.1289,0.0,0.0,0.0,0.0,10.1289,10.1289,10.1289,10.1404,10.1904,10.2597,10.2712,10.3212,10.3982,0.0,0.0,0.0,0.0,0.0,0.0,0.0,0.0,0.0,0.0,3.8872,3.9056,3.9239,3.8946,3.8872,0.0,0.0,0.0,0.0,0.0,0.0,0.0,0.0,0.0,0.0,4.4704,0.0,4.9786,5.1231,5.2965,5.497,5.6153,5.5895,5.4511,5.4511,5.3549,5.1856,5.0818,0.0,0.0,0.0,0.0,0.0,0.0,0.0,0.0,5.6973,5.8396,0.0,0.0,0.0,0.0,0.0,0.0,0.0,0.0,7.4361,7.5707,7.8823,0.0,8.0939,8.2016,8.1977,8.1862,0.0,8.2439,8.2477,8.317,8.3978,8.4863,8.567,8.7401,8.894,8.9787,9.1518,9.2864,9.3056,9.4941,0.0,0.0,0.0,0.0,0.0,0.0,0.0,0.0,0.0,0.0,0.0,9.8327,9.9211,10.0096,10.0904,10.1289,10.1289,10.1289,10.1289,10.1289,10.1289,10.1289,10.1289,10.1289,0.0,0.0,0.0,0.0,10.1289,10.1289,10.1289,10.1404,10.202,10.2404,10.2712,10.3289,10.4097,10.4789,0.0,0.0,0.0,0.0,0.0,0.0,0.0,0.0,0.0,0.0,0.0,3.8689,3.8689,3.8689,0.0,0.0,0.0,0.0,0.0,0.0,0.0,0.0,0.0,0.0,4.5259,4.6361,4.8492,5.1598,5.268,5.4544,5.7123,5.7443,5.7126,5.6203,5.5011,5.3741,5.2433,5.1202,5.0702,0.0,0.0,0.0,0.0,0.0,0.0,0.0,5.6549,5.8088,0.0,6.1512,6.3512,6.5513,0.0,0.0,0.0,0.0,7.3514,7.4707,7.7246,7.8861,7.99,8.04,8.0785,8.1323,8.2131,8.2593,8.3362,8.5016,8.6055,8.6901,8.7709,8.9286,9.0441,9.0479,9.2287,9.3903,9.4672,0.0,9.7942,9.925,0.0,0.0,0.0,0.0,0.0,0.0,0.0,0.0,0.0,9.8904,9.9788,10.0596,10.1096,10.1289,10.1289,10.1289,10.1289,10.1289,10.1289,10.1289,10.1289,10.1289,10.1289,0.0,0.0,0.0,10.1289,10.1289,10.1289,10.1404,10.2289,10.2789,10.3289,10.4097,10.4982,10.5713,0.0,0.0,0.0,0.0,0.0,0.0,0.0,0.0,0.0,0.0,0.0,0.0,0.0,0.0,0.0,0.0,0.0,0.0,0.0,0.0,0.0,0.0,0.0,4.5993,4.625,4.8563,5.0861,5.3107,5.4495,5.6611,5.9371,5.9216,5.8927,5.8357,5.5818,5.4126,5.3087,5.1548,5.0818,5.0625,4.9894,0.0,0.0,0.0,0.0,0.0,0.0,0.0,0.0,6.1166,6.2897,6.4666,6.6244,0.0,0.0,0.0,0.0,0.0,7.6438,7.8438,7.9823,7.9823,8.0554,8.1516,8.2324,8.3247,8.4632,8.694,8.8094,8.8902,8.9594,9.1018,9.1902,9.1287,9.3326,9.5518,9.7096,9.8173,9.9096,9.9981,0.0,0.0,0.0,0.0,0.0,0.0,0.0,0.0,0.0,9.9712,10.0481,10.1289,10.1289,10.1289,10.1289,10.1289,10.1289,10.1289,10.1289,10.1289,10.1289,10.1289,10.1289,0.0,0.0,0.0,10.1289,10.1289,10.1289,10.1404,10.2404,10.3212,10.3982,10.4982,10.579,10.6405,0.0,0.0,0.0,0.0,0.0,0.0,0.0,0.0,0.0,0.0,0.0,0.0,0.0,0.0,0.0,0.0,0.0,0.0,0.0,0.0,0.0,0.0,4.4966,4.6544,4.7902,4.9701,5.114,5.2223,5.6139,5.8313,5.8878,6.1685,6.1666,5.9204,5.6665,5.4664,5.3126,5.2164,5.1318,5.0702,5.0548,0.0,0.0,0.0,0.0,0.0,0.0,0.0,0.0,5.9588,6.1512,6.3666,6.4666,0.0,0.0,0.0,0.0,0.0,7.5707,7.7977,7.9823,7.9823,8.0977,8.2324,8.3208,8.4593,8.6055,8.7171,8.8094,8.8748,8.8863,8.9671,9.0517,9.1095,9.3326,9.5326,0.0,0.0,0.0,0.0,0.0,0.0,0.0,0.0,0.0,0.0,0.0,0.0,0.0,9.9981,10.0481,10.1289,10.1289,10.1289,10.1289,10.1289,10.1289,10.1289,10.1289,10.1289,10.1289,10.1289,10.1289,0.0,0.0,10.1289,10.1289,10.1289,10.1289,10.152,10.3097,10.3789,10.4097,10.5597,10.629,10.6405,0.0,0.0,0.0,0.0,0.0,0.0,0.0,0.0,0.0,0.0,0.0,0.0,0.0,0.0,0.0,0.0,0.0,0.0,0.0,0.0,0.0,0.0,4.592,4.7095,4.8269,5.0802,5.3019,5.4892,5.7398,5.9468,6.1014,6.1966,6.1124,5.8781,5.7126,5.5703,5.4472,5.3164,5.2125,5.1318,0.0,0.0,0.0,0.0,0.0,0.0,0.0,0.0,0.0,0.0,6.0896,6.2897,6.4205,0.0,0.0,0.0,0.0,0.0,7.613,7.7861,7.9323,8.0285,8.1747,8.3324,8.4632,8.5555,8.6748,8.8979,8.9787,9.0171,9.0671,9.1056,9.1595,9.2402,0.0,0.0,0.0,0.0,0.0,0.0,0.0,0.0,0.0,0.0,0.0,0.0,0.0,0.0,0.0,0.0,10.0904,10.1289,10.1289,10.1289,10.1289,10.1289,10.1289,10.1289,10.1289,10.1289,10.1289,10.1289,10.1289,10.1289,0.0,10.1289,10.1289,10.1289,10.1289,10.1404,10.2712,10.3482,10.4097,10.579,10.6405,10.6405,0.0,0.0,0.0,0.0,0.0,0.0,0.0,0.0,0.0,0.0,0.0,0.0,0.0,0.0,0.0,0.0,0.0,0.0,0.0,0.0,4.4048,4.5259,4.6471,4.7755,4.915,5.2197,5.5017,5.7538,5.9133,6.1181,6.3578,6.2563,6.0933,5.8858,5.8204,5.7049,5.5626,5.4318,5.3049,5.1856,0.0,0.0,0.0,0.0,0.0,0.0,0.0,0.0,0.0,0.0,0.0,0.0,0.0,0.0,0.0,7.0398,7.2283,7.4322,7.6669,7.8323,7.9746,8.1285,8.2785,8.4286,8.5747,8.644,8.744,9.0056,9.0748,9.1095,9.1787,9.2364,0.0,9.3864,0.0,0.0,0.0,0.0,0.0,0.0,0.0,0.0,0.0,0.0,0.0,0.0,0.0,0.0,0.0,0.0,10.1289,10.1289,10.1289,10.1289,10.1289,10.1289,10.1289,10.1289,10.1289,10.1289,10.1289,10.1289,10.1289,10.1289,10.1289,10.1289,10.1289,10.1289,10.1289,10.1404,10.2289,10.3212,10.4405,10.5905,10.6405,10.6405,0.0,0.0,0.0,0.0,0.0,0.0,0.0,0.0,0.0,0.0,0.0,0.0,0.0,0.0,0.0,0.0,0.0,0.0,0.0,0.0,4.3534,4.3644,4.5883,4.8563,5.1646,5.4142,5.6279,5.7932,6.1789,6.4253,6.5311,6.4913,6.3255,6.0627,6.055,5.8742,5.5703,5.5549,5.4126,5.1895,5.1856,0.0,0.0,0.0,0.0,0.0,0.0,0.0,0.0,0.0,0.0,0.0,0.0,0.0,6.8744,7.0398,7.2668,7.5014,7.6823,7.9592,8.2247,8.317,8.4132,8.5016,8.5901,8.7363,8.8556,8.8825,8.9479,9.0017,9.0094,9.2018,9.3903,9.4749,0.0,0.0,0.0,0.0,0.0,0.0,0.0,0.0,0.0,0.0,0.0,0.0,0.0,0.0,0.0,0.0,0.0,10.1289,10.1289,10.1289,10.1289,10.1289,10.1289,10.1289,10.1289,10.1289,10.1289,10.1289,10.1289,10.1289,10.1289,10.1289,10.1289,10.1289,10.1289,10.1404,10.2289,10.3597,10.5097,10.6097,10.6405,10.6405,0.0,0.0,0.0,0.0,0.0,0.0,0.0,0.0,0.0,0.0,0.0,0.0,0.0,0.0,0.0,0.0,0.0,0.0,0.0,0.0,4.3938,4.4929,4.5883,4.8122,5.1903,5.4363,5.7373,6.1006,6.3896,6.4999,6.4427,6.4324,6.3026,6.0781,6.0242,5.9011,5.7203,5.5626,5.4395,5.3433,5.2356,5.1741,0.0,0.0,0.0,0.0,0.0,0.0,0.0,0.0,5.9204,6.1166,6.3166,6.5897,6.8859,7.1052,7.3129,7.5322,7.8092,8.0169,8.2131,8.4555,8.5401,8.6017,8.7401,8.8209,8.8825,8.9325,8.971,9.0556,9.2672,0.0,9.4941,9.6326,0.0,0.0,0.0,0.0,0.0,0.0,0.0,0.0,0.0,0.0,0.0,0.0,0.0,0.0,0.0,0.0,0.0,10.1289,10.1289,10.1289,10.1289,10.1289,10.1289,10.1289,10.1289,10.1289,10.1289,10.1289,10.1289,10.1289,10.1289,10.1289,10.1289,10.1289,10.1289,10.1404,10.2904,10.3789,10.4482,10.5905,10.6405,10.6405,0.0,0.0,0.0,0.0,0.0,0.0,0.0,0.0,0.0,0.0,0.0,0.0,0.0,0.0,0.0,0.0,0.0,0.0,4.2616,4.3167,4.4085,4.5443,4.603,4.8086,5.1903,5.4363,5.7794,6.2288,6.4538,6.4898,6.3397,6.355,6.264,6.0781,6.0165,5.9319,5.8165,5.6165,5.4972,5.4357,5.2895,5.2164,0.0,0.0,0.0,0.0,0.0,0.0,0.0,0.0,5.9319,6.155,6.3512,6.609,6.8898,7.1437,7.3783,7.6169,7.9015,8.1208,8.3285,8.5863,8.6709,8.7286,8.8748,8.8863,8.8863,8.9402,9.0364,9.1825,9.4172,9.5249,0.0,0.0,0.0,0.0,0.0,0.0,0.0,0.0,0.0,0.0,0.0,0.0,0.0,0.0,0.0,0.0,0.0,0.0,0.0,0.0,10.1289,10.1289,10.1289,10.1289,10.1289,10.1289,10.1289,10.1289,10.1289,10.1289,10.1289,10.1289,10.1289,10.1289,10.1289,10.1289,10.1289,10.152,10.3212,10.3905,10.4097,10.579,10.6405,10.6405,0.0,0.0,0.0,0.0,0.0,0.0,0.0,0.0,0.0,0.0,0.0,0.0,0.0,0.0,0.0,0.0,0.0,0.0,4.3424,4.3497,4.3864,4.4672,4.625,4.8636,5.1903,5.4369,5.747,6.1214,6.3754,6.4121,6.2521,6.3065,6.2397,0.0,0.0,0.0,5.8242,5.7357,5.6011,5.4434,5.3549,5.2702,5.1933,0.0,0.0,0.0,0.0,0.0,0.0,0.0,6.0666,6.2551,6.5089,6.7051,6.8898,7.1475,7.463,7.7669,7.9361,8.2901,8.6286,8.7171,8.8055,8.8902,8.971,8.9286,8.8709,8.8709,9.1364,9.371,9.371,9.5788,0.0,0.0,0.0,0.0,0.0,0.0,0.0,0.0,0.0,0.0,0.0,0.0,0.0,0.0,0.0,0.0,0.0,0.0,0.0,0.0,10.1289,10.1289,10.1289,10.1289,10.1289,10.1289,10.1289,10.1289,10.1289,10.1289,10.1289,10.1289,10.1289,10.1289,10.1289,10.1289,10.1289,10.152,10.3212,10.3905,10.4097,10.579,10.6405,10.6405,0.0,0.0,0.0,0.0,0.0,0.0,0.0,0.0,0.0,0.0,0.0,0.0,0.0,0.0,0.0,0.0,0.0,0.0,4.3424,4.3497,4.4085,4.548,4.5993,4.7611,5.0602,5.4818,5.8559,6.1695,6.336,6.3473,6.2247,6.2963,0.0,5.9896,0.0,0.0,5.7319,5.6472,5.578,5.528,5.4434,5.3587,5.2818,0.0,0.0,0.0,0.0,0.0,0.0,0.0,0.0,0.0,6.4397,6.6551,6.9013,7.2206,7.4668,7.7015,7.9939,8.2939,8.5593,8.7055,8.7594,8.8017,8.8863,8.9325,8.971,9.0325,9.2172,9.4057,9.5288,9.5634,0.0,0.0,0.0,0.0,0.0,0.0,0.0,0.0,0.0,0.0,0.0,0.0,0.0,0.0,0.0,0.0,0.0,0.0,0.0,0.0,10.1289,10.1289,10.1289,10.1289,10.1289,10.1289,10.1289,10.1289,10.1289,10.1289,10.1289,10.1289,10.1289,10.1289,10.1289,10.1289,10.1289,10.152,10.3212,10.3905,10.4097,10.579,10.6405,10.6405,0.0,0.0,0.0,0.0,0.0,0.0,0.0,0.0,4.0422,4.0286,4.0127,4.0164,0.0,0.0,0.0,4.24,4.2807,0.0,4.3656,4.3563,4.4085,4.5369,4.5879,4.7596,5.0754,5.4979,5.812,6.0194,6.2468,6.2744,6.1089,6.2589,0.0,6.0012,0.0,5.9588,5.7934,5.7088,5.6511,5.6126,5.5318,5.4664,5.4164,0.0,0.0,0.0,0.0,0.0,0.0,0.0,0.0,0.0,6.4705,6.6859,6.9667,7.3399,7.5668,7.7746,8.117,8.4209,8.6632,8.7671,8.7902,8.8209,8.9402,0.0,0.0,0.0,9.3056,9.4441,9.5134,9.5942,0.0,0.0,0.0,0.0,0.0,0.0,0.0,0.0,0.0,0.0,0.0,0.0,0.0,0.0,0.0,0.0,0.0,0.0,0.0,0.0,10.1289,10.1289,10.1289,10.1289,10.1289,10.1289,10.1289,10.1289,10.1289,10.1289,10.1289,10.1289,10.1289,10.1289,10.1289,10.1289,10.152,10.202,10.3405,10.4097,10.4482,10.5905,10.6405,10.6405,0.0,0.0,0.0,0.0,0.0,0.0,0.0,4.0508,4.0508,4.0585,4.0746,4.0901,0.0,0.0,0.0,4.2967,4.361,4.4058,4.4058,4.3791,4.3965,4.4777,4.6025,4.834,5.1767,5.4704,5.6649,5.7537,6.1326,6.1935,5.955,0.0,6.2358,6.0704,0.0,6.0973,5.9435,5.8473,5.7665,5.6896,5.6049,5.5665,5.5511,5.4857,0.0,0.0,0.0,0.0,0.0,0.0,0.0,0.0,6.5628,6.7667,7.0514,7.4591,7.7015,7.9131,8.2554,8.5978,8.8594,8.8671,8.8748,0.0,9.0748,0.0,0.0,9.2287,0.0,9.4634,9.3826,0.0,0.0,0.0,0.0,0.0,0.0,0.0,0.0,0.0,0.0,0.0,0.0,0.0,0.0,0.0,0.0,0.0,0.0,0.0,0.0,0.0,10.1289,10.1289,10.1289,10.1289,10.1289,0.0,10.1289,10.1289,10.1289,10.1289,10.1289,10.1289,10.1289,10.1289,10.1289,10.1289,10.1789,10.2712,10.3597,10.4405,10.5213,10.6097,10.6405,10.6521,0.0,0.0,0.0,0.0,0.0,0.0,4.0508,4.0508,4.0739,4.1431,4.1342,4.1715,4.3025,4.3188,0.0,4.4154,4.438,4.4455,4.4455,4.4373,4.4693,4.5527,4.7311,4.929,5.1383,5.369,5.5654,5.7152,6.0642,6.1396,0.0,0.0,0.0,5.9781,0.0,5.9858,0.0,5.7165,5.6549,5.6896,5.6049,5.5318,5.4818,5.528,5.5434,0.0,0.0,0.0,0.0,0.0,0.0,0.0,6.5628,6.7667,7.0283,7.3168,7.5707,7.8284,8.167,8.5093,8.7825,8.8517,8.9171,8.9748,9.0094,9.1095,9.221,9.321,9.371,0.0,0.0,0.0,0.0,0.0,0.0,0.0,0.0,0.0,0.0,0.0,0.0,0.0,0.0,0.0,0.0,0.0,0.0,0.0,0.0,0.0,0.0,10.1289,10.1289,10.1289,10.1289,10.1289,10.1289,0.0,10.1289,10.1289,10.1289,10.1289,10.1289,10.1289,10.1289,10.1289,10.1289,10.1289,10.1789,10.2712,10.3597,10.4405,10.5213,10.6097,10.6405,10.6521,0.0,0.0,0.0,0.0,0.0,0.0,0.0,0.0,4.1431,4.2316,4.2451,4.2827,4.3683,4.403,0.0,0.0,4.4849,4.4849,4.4849,4.4701,4.5016,4.6,4.7044,4.8464,5.0342,5.2679,5.4511,5.578,5.8819,5.9819,0.0,0.0,0.0,5.8973,0.0,6.0512,0.0,5.8704,5.8396,5.8742,5.7857,5.7511,5.7511,5.7511,5.778,5.8204,5.8665,0.0,0.0,0.0,0.0,0.0,0.0,0.0,7.086,7.3822,7.5938,7.8207,8.2401,8.5132,8.6978,8.7863,0.0,9.0402,9.0017,9.1248,9.271,9.3518,0.0,0.0,0.0,0.0,0.0,0.0,0.0,0.0,0.0,0.0,0.0,0.0,0.0,0.0,0.0,0.0,0.0,0.0,0.0,0.0,0.0,10.1289,10.1289,10.1289,10.1289,10.1289,10.1289,10.1289,10.1289,10.1289,10.1289,10.1289,10.1289,10.1289,10.1289,10.1289,10.1289,10.1289,10.1289,10.1289,10.2097,10.3289,10.3712,10.4905,10.629,10.6405,10.6905,10.7713,0.0,0.0,0.0,0.0,0.0,0.0,0.0,0.0,0.0,4.3201,4.3637,4.3958,4.4111,4.476,4.5201,0.0,0.0,0.0,4.5201,4.4919,4.5238,4.6364,4.6385,4.7333,4.9356,5.1625,5.328,5.428,5.6549,0.0,0.0,0.0,0.0,5.8396,0.0,0.0,0.0,6.0704,6.0742,6.0935,6.0089,6.0165,6.0742,6.0165,6.0396,6.105,6.1166,6.132,6.1666,6.3051,0.0,0.0,0.0,0.0,7.1514,7.4668,7.6284,7.813,8.3131,8.5593,8.6901,8.7478,8.944,0.0,9.0287,9.1479,9.2979,9.3941,0.0,0.0,0.0,0.0,0.0,0.0,0.0,0.0,0.0,0.0,0.0,0.0,0.0,0.0,0.0,0.0,0.0,0.0,0.0,0.0,10.1289,10.1289,10.1289,10.1289,10.1289,10.1289,10.1289,10.1289,10.1289,10.1289,10.1289,10.1289,10.1289,10.1289,10.1289,10.1289,10.1289,10.1289,10.1289,10.1289,10.2289,10.3905,10.3905,10.5405,10.7405,10.6713,10.7405,10.8713,0.0,0.0,0.0,0.0,0.0,0.0,0.0,0.0,0.0,0.0,4.4166,4.4495,4.5281,4.5473,4.555,4.555,4.555,4.555,4.555,0.0,0.0,4.6762,4.68,4.7626,4.9356,5.0471,5.1779,5.3356,5.4472,0.0,0.0,0.0,0.0,0.0,0.0,0.0,0.0,0.0,0.0,6.1858,6.0973,6.0704,6.0858,6.1512,6.182,6.2012,6.2704,6.3435,6.4128,6.4359,6.6051,0.0,0.0,0.0,7.1283,7.3245,7.4938,7.713,8.1477,8.594,8.9248,8.8671,8.9863,9.1171,9.1056,0.0,9.398,0.0,0.0,0.0,0.0,0.0,0.0,0.0,0.0,0.0,0.0,0.0,0.0,0.0,0.0,0.0,0.0,0.0,0.0,0.0,0.0,0.0,10.1289,10.1289,10.1289,10.1289,10.1289,10.1289,10.1289,10.1289,10.1289,10.1289,10.1289,10.1289,10.1289,10.1289,10.1289,10.1289,10.1289,10.1289,10.1289,10.1289,10.2289,10.3905,10.3905,10.4982,10.6597,10.6405,10.7021,10.7982,0.0,0.0,0.0,0.0,0.0,0.0,0.0,0.0,0.0,0.0,0.0,4.5163,4.5547,4.5586,4.5586,4.5586,4.5586,4.5586,4.5586,4.5586,4.5778,4.6163,4.6163,4.674,4.7971,4.9279,5.0548,5.1779,0.0,0.0,0.0,5.7511,5.8165,0.0,0.0,0.0,0.0,0.0,0.0,6.4205,6.382,6.4512,6.5667,6.4628,6.5397,6.6898,6.582,6.5667,6.609,6.6551,6.7475,6.8513,6.8975,0.0,0.0,0.0,7.4361,7.6399,8.1631,8.6055,8.9133,8.8786,8.994,9.1056,9.0594,9.1787,9.3364,9.4595,0.0,0.0,0.0,0.0,0.0,0.0,0.0,0.0,0.0,0.0,0.0,0.0,0.0,0.0,0.0,0.0,0.0,0.0,0.0,10.1289,10.1289,10.1289,10.1289,10.1289,10.1289,10.1289,10.1289,10.1289,10.1289,10.1289,10.1289,10.1289,10.1289,10.1289,10.1289,10.1289,10.1289,10.1289,10.1289,10.1289,10.2289,10.3905,10.4405,10.5597,10.7098,10.7098,10.7982,10.9098,0.0,0.0,0.0,0.0,0.0,0.0,0.0,0.0,0.0,0.0,0.0,4.5586,4.5586,0.0,0.0,0.0,4.5586,4.5586,4.5586,4.5586,4.5586,4.5586,4.5586,4.6009,4.6894,4.8317,4.951,5.0356,0.0,0.0,5.6049,5.6934,5.8127,0.0,5.9973,0.0,0.0,0.0,0.0,0.0,6.6705,6.8129,6.986,6.8398,6.9513,7.1552,6.9244,6.8667,6.9013,6.9052,6.9167,6.9436,6.986,7.0437,0.0,0.0,0.0,7.6438,8.1323,8.5132,8.7825,8.8248,8.9633,9.0748,9.0325,0.0,9.271,0.0,0.0,0.0,0.0,0.0,0.0,0.0,0.0,0.0,0.0,0.0,0.0,0.0,0.0,0.0,0.0,0.0,0.0,0.0,0.0,10.1289,10.1289,10.1289,10.1289,10.1289,10.1289,10.1289,10.1289,10.1289,10.1289,10.1289,10.1289,10.1289,10.1289,10.1289,10.1289,10.1289,10.1289,10.1289,10.1289,10.152,10.252,10.3982,10.4789,10.5982,10.7405,10.7598,10.8598,10.979,0.0,0.0,0.0,0.0,0.0,0.0,0.0,0.0,0.0,0.0,0.0,4.5586,4.5586,4.5586,4.5586,4.5586,4.5586,4.5586,4.5586,4.5586,4.5586,4.5586,0.0,0.0,4.6894,4.774,4.8586,0.0,0.0,0.0,5.6934,5.7819,5.9973,6.3012,6.2281,6.155,6.1012,0.0,0.0,0.0,0.0,7.0052,7.1014,7.2552,7.3707,7.4284,7.2552,7.2976,7.3937,7.1591,7.1321,7.186,7.1091,7.086,7.1091,0.0,0.0,0.0,7.9477,8.2477,8.5478,8.7055,8.8748,9.0171,9.0941,0.0,9.271,0.0,0.0,0.0,0.0,0.0,0.0,0.0,0.0,0.0,0.0,0.0,0.0,0.0,0.0,0.0,0.0,0.0,0.0,0.0,0.0,10.1289,10.1289,10.1289,10.1289,10.1289,10.1289,10.1289,10.1289,10.1289,10.1289,10.1289,10.1289,10.1289,10.1289,10.1289,10.1289,10.1289,10.1289,10.1289,10.1404,10.2212,10.3097,10.3982,10.4789,10.5713,10.6597,10.7405,10.8213,10.9098,0.0,0.0,0.0,0.0,0.0,0.0,0.0,0.0,0.0,0.0,0.0,0.0,0.0,4.5586,4.5586,4.5586,4.5586,4.5586,4.5586,4.5586,0.0,0.0,0.0,0.0,4.6047,4.7394,0.0,0.0,0.0,5.2318,5.4587,5.6549,5.8088,5.9319,6.1243,6.2204,6.2512,6.3974,0.0,0.0,0.0,0.0,7.4361,7.6053,7.7592,7.8515,0.0,0.0,0.0,7.386,7.3206,7.2899,7.2014,7.2129,7.286,7.4245,7.5899,7.8015,8.1323,8.3555,8.5555,8.8325,8.9902,9.0825,9.1133,9.1864,9.271,9.3518,0.0,0.0,0.0,0.0,0.0,0.0,0.0,0.0,0.0,0.0,0.0,0.0,0.0,0.0,0.0,0.0,0.0,0.0,0.0,0.0,10.1289,10.1289,10.1289,10.1289,10.1289,10.1289,10.1289,10.1289,10.1289,10.1289,10.1289,10.1289,10.1289,10.1289,10.1289,10.1289,10.1289,10.1289,10.1404,10.2212,10.3405,10.4789,10.5597,10.6521,10.729,10.8213,10.8713,10.8983,0.0,0.0,0.0,0.0,0.0,0.0,0.0,0.0,0.0,0.0,0.0,0.0,0.0,0.0,4.6432,4.6432,4.6432,4.6317,4.6047,4.6047,4.5893,4.5586,4.5586,4.5586,4.5586,4.6971,0.0,0.0,0.0,0.0,0.0,0.0,5.7165,5.8396,6.0935,6.2243,0.0,0.0,0.0,6.6744,0.0,0.0,7.5822,0.0,8.0246,0.0,0.0,0.0,0.0,0.0,0.0,7.5361,7.3937,7.3668,7.4245,7.5938,7.663,7.7707,8.167,8.317,8.4439,8.7786,8.9517,9.0441,9.071,9.1441,9.2364,9.348,0.0,0.0,0.0,0.0,0.0,0.0,0.0,0.0,0.0,0.0,0.0,0.0,0.0,0.0,0.0,0.0,0.0,0.0,0.0,0.0,10.1289,10.1289,10.1289,10.1289,10.1289,10.1289,10.1289,10.1289,10.1289,10.1289,10.1289,10.1289,10.1289,10.1289,10.1289,10.1289,10.1289,10.1289,10.1404,10.2597,10.3905,10.5213,10.6097,10.7098,10.8213,10.8713,10.9098,10.9483,0.0,0.0,0.0,0.0,0.0,0.0,0.0,0.0,0.0,0.0,0.0,0.0,0.0,0.0,0.0,4.8202,4.8202,4.7855,4.7048,4.7009,4.6586,4.574,4.5701,4.5663,4.5663,4.6547,0.0,0.0,0.0,0.0,0.0,0.0,5.7473,0.0,6.1666,6.1627,6.105,0.0,6.6359,6.7513,0.0,7.4745,7.5245,0.0,0.0,0.0,8.0554,8.1516,0.0,0.0,0.0,0.0,0.0,7.5476,7.513,7.6823,7.6707,7.6784,0.0,0.0,0.0,8.5247,8.7401,8.8902,8.9748,9.0633,9.1748,9.3326,0.0,0.0,0.0,0.0,0.0,0.0,0.0,0.0,0.0,0.0,0.0,0.0,0.0,0.0,0.0,0.0,0.0,0.0,0.0,10.1289,10.1289,10.1289,10.1289,10.1289,10.1289,10.1289,10.1289,10.1289,10.1289,10.1289,10.1289,10.1289,10.1289,10.1289,10.1289,10.1289,10.1289,10.1289,10.152,10.3212,10.4405,10.529,10.6097,10.7405,10.8906,10.8906,10.9483,11.0291,0.0,0.0,0.0,0.0,0.0,4.6624,4.6855,4.8125,4.9048,0.0,0.0,0.0,0.0,0.0,0.0,5.0856,5.0856,5.051,4.9702,4.9048,4.8586,4.8355,4.774,4.7394,4.7394,4.8279,0.0,0.0,0.0,0.0,5.2972,5.4241,0.0,0.0,6.0896,6.1973,6.1935,6.532,0.0,0.0,7.3091,7.6015,0.0,0.0,0.0,0.0,0.0,8.3555,8.3401,0.0,8.0785,7.9592,0.0,7.763,7.7553,7.8015,7.7592,7.74,7.9554,0.0,0.0,0.0,0.0,0.0,9.0517,0.0,9.2979,9.2864,0.0,0.0,0.0,0.0,0.0,0.0,0.0,0.0,0.0,0.0,0.0,0.0,0.0,0.0,0.0,0.0,0.0,0.0,10.1289,10.1289,10.1289,10.1289,10.1289,10.1289,10.1289,10.1289,10.1289,10.1289,10.1289,10.1289,10.1289,10.1289,10.1289,10.1289,10.1289,10.1289,10.1289,10.1712,10.2289,10.3405,10.5097,10.6905,10.6597,10.779,10.979,10.9098,10.9483,11.0291,0.0,0.0,4.5817,4.6509,4.7048,4.7894,4.9317,5.0356,5.1125,0.0,0.0,0.0,0.0,0.0,0.0,0.0,5.328,5.301,5.1818,5.1279,5.0664,4.9971,4.9125,4.8471,4.8125,4.8586,4.9048,0.0,0.0,0.0,0.0,5.3664,0.0,0.0,0.0,0.0,0.0,0.0,0.0,0.0,7.3937,0.0,0.0,8.2131,8.4439,0.0,0.0,0.0,8.4555,8.4055,8.2516,0.0,0.0,7.9939,7.8631,7.9361,7.8477,7.7669,7.9361,8.0169,8.1208,8.3862,0.0,0.0,0.0,0.0,0.0,0.0,0.0,0.0,0.0,0.0,0.0,0.0,0.0,0.0,0.0,0.0,0.0,0.0,0.0,0.0,0.0,0.0,0.0,10.1289,10.1289,10.1289,10.1289,10.1289,10.1289,10.1289,10.1289,10.1289,10.1289,10.1289,10.1289,10.1289,10.1289,10.1289,10.1289,10.1289,10.1289,10.1289,10.1289,10.202,10.3212,10.4097,10.5713,10.7713,10.7521,10.8598,11.0098,10.9598,10.979,11.0291,0.0,0.0,4.624,4.7817,4.8317,4.9586,5.2741,5.3433,5.3933,0.0,0.0,0.0,0.0,0.0,0.0,0.0,5.6011,5.5742,5.4164,5.3857,5.3049,5.1471,5.0394,4.9394,4.8548,4.8432,4.8817,4.9663,0.0,0.0,0.0,0.0,0.0,0.0,6.0627,6.2474,0.0,0.0,0.0,6.9898,7.5476,7.8092,0.0,0.0,8.4362,0.0,8.4286,8.4901,8.6094,8.6094,8.467,0.0,0.0,0.0,0.0,8.0746,7.9515,7.7977,7.9208,7.9592,8.0054,8.1747,8.4593,0.0,0.0,0.0,0.0,0.0,0.0,0.0,0.0,0.0,0.0,0.0,0.0,0.0,0.0,0.0,0.0,0.0,0.0,0.0,0.0,9.9981,10.0404,10.1096,10.1212,10.1289,10.1289,10.1289,10.1289,10.1289,10.1289,10.1289,10.1289,10.1289,10.1289,10.1289,10.1289,10.1289,10.1289,10.1289,10.1289,10.1289,10.1404,10.2404,10.3982,10.4905,10.6213,10.779,10.8482,10.9406,11.0214,11.0098,11.0214,11.0483,4.5812,4.6278,4.7009,4.7932,4.9817,5.1625,5.301,5.4934,5.6549,0.0,0.0,0.0,0.0,0.0,0.0,0.0,6.0742,6.0396,5.9396,5.805,5.6857,5.5818,5.3626,5.2049,5.1202,5.051,5.0587,5.1433,0.0,0.0,0.0,0.0,0.0,0.0,0.0,0.0,0.0,6.986,0.0,7.5822,7.9054,0.0,7.9977,8.4055,8.5709,8.594,8.6478,8.6401,8.6094,0.0,8.6247,8.6247,0.0,0.0,0.0,8.1785,8.0746,7.9977,7.8246,7.8246,7.9169,8.09,0.0,0.0,0.0,8.8594,8.9479,0.0,9.0633,9.1441,0.0,0.0,0.0,0.0,0.0,0.0,0.0,0.0,0.0,0.0,0.0,0.0,0.0,9.9673,10.0173,10.0289,10.0904,10.1289,10.1289,10.1289,10.1289,10.1289,10.1289,10.1289,10.1289,10.1289,10.1289,10.1289,10.1289,10.1289,10.1289,10.1289,10.1289,10.1289,10.202,10.2904,10.3982,10.552,10.679,10.7713,10.7905,10.8906,11.0098,10.9406,11.0021,11.1291,4.7844,4.8087,4.8951,5.1049,5.2415,5.4049,5.6588,5.7703,5.8704,0.0,0.0,0.0,0.0,0.0,0.0,0.0,0.0,6.3166,6.2704,6.1127,6.0012,5.955,5.7088,5.5126,5.3818,5.301,5.2779,5.3203,0.0,0.0,0.0,0.0,0.0,0.0,0.0,0.0,0.0,7.1668,7.4168,7.7476,7.9592,0.0,8.317,8.5286,8.6363,8.6748,8.6748,8.6478,8.617,8.6594,8.6748,0.0,0.0,8.6478,8.5709,0.0,8.2362,8.1246,7.9131,7.8823,7.9361,8.0246,0.0,0.0,0.0,0.0,8.8709,8.8709,9.0017,9.121,9.121,0.0,0.0,0.0,0.0,0.0,0.0,0.0,0.0,0.0,0.0,0.0,0.0,9.8288,9.9173,9.9981,10.0789,10.1289,10.1289,10.1289,10.1289,10.1289,10.1289,10.1289,10.1289,10.1289,10.1289,10.1289,10.1289,10.1289,10.1289,10.1289,10.1289,10.1289,10.2212,10.3097,10.3982,10.5713,10.6713,10.7098,10.7982,10.879,10.9598,10.9483,11.0098,11.0906,5.0195,5.0169,5.1103,5.4169,5.4993,5.6472,6.0242,6.0473,6.0858,0.0,0.0,0.0,0.0,0.0,0.0,0.0,0.0,0.0,6.6051,6.4474,6.3551,6.3551,6.0666,5.8434,5.7203,5.5742,5.5049,5.5241,0.0,0.0,0.0,0.0,0.0,0.0,0.0,0.0,0.0,0.0,0.0,7.84,0.0,8.3054,8.617,8.6824,8.7325,8.7517,8.6478,8.6209,8.6478,8.7363,8.7171,8.6863,8.844,8.7979,0.0,0.0,0.0,0.0,0.0,0.0,0.0,0.0,0.0,8.3593,0.0,0.0,0.0,0.0,0.0,0.0,0.0,0.0,0.0,0.0,0.0,0.0,0.0,9.398,0.0,0.0,0.0,0.0,0.0,9.7365,9.875,9.9981,10.1212,10.1712,10.1289,10.1289,10.1289,10.1289,10.1289,10.1289,10.1289,10.1289,10.1289,10.1289,10.1289,10.1289,10.1289,10.1289,10.1404,10.1597,10.252,10.3289,10.4212,10.579,10.6405,10.6597,10.8213,10.8906,10.8983,10.9906,11.0291,11.0598,5.1445,5.1603,5.2563,5.4381,5.6456,5.855,6.0512,6.1973,6.3512,0.0,0.0,0.0,0.0,0.0,0.0,0.0,0.0,0.0,7.1398,0.0,6.8821,6.8821,6.4243,6.1897,6.2435,5.8665,5.7088,5.7857,5.7857,0.0,0.0,0.0,0.0,0.0,6.8167,0.0,0.0,0.0,8.0823,0.0,8.4401,8.567,0.0,8.9479,8.9748,8.8325,8.6709,8.6594,8.7401,0.0,8.8479,8.8556,0.0,8.9633,8.9017,8.6671,0.0,0.0,0.0,0.0,0.0,0.0,8.1708,0.0,0.0,0.0,8.4593,8.6094,0.0,0.0,8.7825,0.0,0.0,0.0,0.0,0.0,9.0441,9.2364,9.3826,9.3826,0.0,0.0,0.0,0.0,10.0712,10.0096,10.2289,10.2904,10.1404,10.1289,10.1289,10.1289,10.1289,10.1289,10.1289,10.1289,10.1289,10.1289,10.1289,10.1289,10.1289,10.1289,10.1712,10.252,10.3405,10.4212,10.4982,10.602,10.6405,10.6597,10.8213,10.8906,10.8983,10.9906,11.0714,11.1406,5.4726,5.456,5.5506,5.8163,5.9425,6.0789,6.2959,6.5051,6.6782,0.0,0.0,0.0,0.0,0.0,0.0,0.0,0.0,7.4784,0.0,0.0,7.1937,7.0475,6.7436,6.5205,6.4089,6.1358,6.0127,6.0512,6.0512,6.0935,0.0,0.0,0.0,0.0,7.0052,0.0,7.4899,0.0,0.0,0.0,0.0,0.0,0.0,8.921,8.8556,8.7902,8.7671,8.7825,8.8286,0.0,8.9748,0.0,0.0,0.0,0.0,8.9056,0.0,8.7863,8.5824,8.5247,0.0,0.0,0.0,0.0,8.3747,0.0,8.4555,0.0,0.0,0.0,0.0,0.0,0.0,0.0,8.994,0.0,9.0017,9.2095,9.3903,0.0,0.0,0.0,0.0,0.0,0.0,0.0,0.0,10.2404,10.0712,10.1019,10.1289,10.1289,10.1289,10.1289,10.1289,10.1289,10.1289,10.1289,10.1289,10.1289,10.1289,10.1289,10.1789,10.2597,10.3482,10.4405,10.5213,10.602,10.6405,10.6597,10.8213,10.8906,10.8983,10.9906,11.0791,11.1522,5.8555,5.7656,5.802,6.0987,6.1582,6.2588,6.5389,6.7793,6.959,7.0371,0.0,0.0,7.5168,7.6707,0.0,0.0,0.0,7.8092,0.0,0.0,7.5822,7.4437,7.1437,0.0,0.0,6.4705,6.3128,6.3128,6.2666,6.2858,6.3666,6.432,6.582,6.8167,0.0,7.4207,7.7169,0.0,0.0,8.7094,8.7786,8.944,9.121,8.894,8.794,8.7825,8.8479,8.8709,8.8825,8.9633,9.0325,0.0,9.1133,0.0,9.2249,9.0171,8.9556,8.9248,8.7786,0.0,0.0,0.0,0.0,0.0,0.0,0.0,0.0,0.0,0.0,0.0,0.0,0.0,8.8209,8.7863,0.0,9.0133,8.9017,9.1248,9.3326,0.0,0.0,0.0,0.0,0.0,0.0,0.0,0.0,0.0,10.0481,10.0789,10.1096,10.1289,10.1289,10.1289,10.1289,10.1289,10.1289,10.1289,10.1289,10.1289,10.1289,10.152,10.2097,10.2981,10.3905,10.4713,10.5482,10.6097,10.6521,10.6905,10.829,10.8906,10.8983,11.0098,11.0983,11.1522,6.2656,6.0664,5.9405,6.1208,6.2102,6.3687,6.7087,6.9611,7.1437,7.2304,0.0,0.0,0.0,0.0,0.0,0.0,0.0,8.3362,8.3362,0.0,8.1593,0.0,0.0,0.0,0.0,6.9167,6.5782,6.5782,6.4089,6.3705,6.4551,6.4589,6.5513,6.7321,7.1591,7.4437,7.6476,8.3131,8.6017,8.6363,8.8825,8.944,8.8902,0.0,8.9325,8.8671,8.8671,0.0,0.0,8.9633,8.994,0.0,0.0,0.0,0.0,0.0,0.0,0.0,0.0,0.0,0.0,8.8594,0.0,0.0,0.0,0.0,8.7094,0.0,0.0,8.617,8.617,8.6863,8.6363,8.3093,8.6055,0.0,0.0,8.9133,9.1595,9.2479,0.0,0.0,0.0,0.0,0.0,0.0,0.0,0.0,10.1404,10.0481,10.0481,10.1289,10.1289,10.1289,10.1289,10.1289,10.1289,10.1289,10.1289,10.1289,10.1289,10.2212,10.302,10.3905,10.4713,10.5597,10.6405,10.6405,10.6905,10.7713,10.8598,10.8906,10.9098,11.0791,11.1522,11.1522,6.3789,6.3125,6.285,6.4008,6.4899,6.654,6.9855,7.19,0.0,0.0,0.0,0.0,0.0,0.0,8.4747,0.0,0.0,8.5632,8.4516,8.4439,0.0,0.0,0.0,7.5745,0.0,0.0,6.8129,6.7552,6.6397,6.5974,6.6282,6.6859,6.7436,6.8205,0.0,7.663,0.0,0.0,0.0,0.0,0.0,9.1095,9.0325,0.0,0.0,9.0364,9.0364,9.071,0.0,9.0864,9.1518,9.2287,9.1479,9.1748,9.2133,9.0748,9.0364,0.0,0.0,0.0,9.0941,8.9787,0.0,0.0,0.0,0.0,0.0,0.0,8.7363,8.6786,8.6209,8.6324,8.6363,8.5786,8.6901,8.8017,0.0,9.0594,9.2172,9.2441,0.0,0.0,0.0,0.0,0.0,0.0,0.0,0.0,0.0,10.0212,10.0481,10.1289,10.1289,10.1289,10.1289,10.1289,10.1289,10.1289,10.1289,10.1289,10.1289,10.2212,10.3097,10.3905,10.4789,10.5597,10.6405,10.6405,10.6597,10.6905,10.779,10.8098,10.8406,11.0714,11.1098,11.0714,6.5234,6.4961,6.5039,6.5898,6.7539,6.9531,0.0,0.0,0.0,0.0,8.1142,0.0,8.4753,0.0,8.6594,0.0,8.794,8.7748,8.6863,8.7017,0.0,8.4747,8.167,0.0,0.0,0.0,7.1514,7.0629,6.9167,6.8282,6.8052,6.8898,6.9629,7.0398,7.4514,7.7823,8.0554,0.0,8.7825,0.0,0.0,9.1518,0.0,0.0,9.1364,9.2018,0.0,9.1556,9.2018,9.1748,9.2364,9.3133,9.2326,9.2633,9.2979,9.1595,9.121,9.1133,9.0825,9.1364,0.0,9.1364,9.1864,0.0,9.1095,0.0,9.0133,0.0,8.844,8.7863,8.7902,8.744,8.7209,8.7786,8.7863,8.8325,0.0,9.1133,0.0,0.0,0.0,0.0,0.0,0.0,0.0,0.0,0.0,0.0,0.0,0.0,10.0289,10.0904,10.1212,10.1289,10.1289,10.1289,10.1289,10.1289,10.1289,10.152,10.1789,10.2712,10.3482,10.4405,10.5213,10.5905,10.6405,10.6405,10.6597,10.6905,10.7521,10.7713,10.7905,10.9906,11.0214,10.9906,6.7109,6.6445,6.6172,6.707,6.9922,0.0,0.0,0.0,7.9346,0.0,8.3501,8.5058,8.6763,8.7628,8.8111,8.8238,8.8969,0.0,9.0312,8.9513,0.0,0.0,8.7209,8.5324,8.6017,0.0,0.0,0.0,7.2283,7.0667,6.9975,7.0744,7.2014,7.3668,7.4553,0.0,8.367,8.4555,8.7363,9.1133,9.1248,9.0787,9.021,9.1902,0.0,9.3595,9.1941,9.1325,9.1441,9.2287,9.2595,9.2749,9.348,9.321,9.2441,9.1595,9.1325,9.1133,9.0325,9.0671,9.1633,9.3249,0.0,0.0,0.0,0.0,9.1133,0.0,8.9402,8.9286,9.0864,8.9825,8.8786,8.8863,8.8863,8.9133,8.9825,9.0671,9.1479,0.0,0.0,0.0,0.0,0.0,0.0,0.0,0.0,0.0,0.0,0.0,10.0173,10.0173,10.0904,10.1289,10.1289,10.1289,10.1289,10.1289,10.1289,10.1789,10.2597,10.3482,10.4289,10.5097,10.602,10.6405,10.6405,10.6405,10.6905,10.7598,10.7598,10.7598,10.7713,10.8482,10.8906,10.9213,6.9726,7.0078,7.0625,7.1484,7.293,7.4453,0.0,0.0,0.0,0.0,8.5447,8.7036,8.8753,8.8579,8.8767,8.9836,9.0164,0.0,0.0,0.0,0.0,9.0517,8.7679,8.5834,8.5209,8.1016,0.0,7.663,7.4091,7.3053,7.3437,7.363,7.4322,7.5438,7.7553,8.04,8.3708,8.517,8.7517,9.0364,9.1633,9.2018,0.0,0.0,9.4326,9.5403,9.3672,9.3056,9.3095,9.3326,9.3826,9.4287,9.3826,9.398,9.4172,9.3326,9.3056,9.3018,9.2787,9.2441,9.2287,9.271,9.3095,9.3403,0.0,0.0,0.0,0.0,0.0,0.0,0.0,0.0,9.0017,9.1325,9.1518,9.1133,9.0056,0.0,0.0,9.0633,0.0,0.0,0.0,0.0,0.0,0.0,0.0,0.0,0.0,0.0,0.0,10.1019,10.1212,10.1289,10.1289,10.1289,10.1289,10.1289,10.1289,10.1789,10.2597,10.3482,10.4289,10.5097,10.602,10.6405,10.6405,10.6405,10.6521,10.6713,10.6713,10.6713,10.679,10.7713,10.879,10.9906,7.1914,7.2539,7.375,7.5742,0.0,0.0,7.9336,0.0,0.0,8.7422,8.8433,0.0,9.0818,9.0547,9.0422,9.0881,9.1252,0.0,9.1291,0.0,0.0,9.0958,8.926,8.8179,8.7944,8.4978,0.0,8.09,0.0,7.7304,7.6688,7.742,7.816,7.8977,8.0785,8.317,8.594,8.7632,8.894,9.0056,9.1787,0.0,0.0,9.4249,9.5211,9.5749,9.598,9.5557,9.4903,9.5365,9.5863,9.6248,9.6134,9.6403,9.6557,9.5211,9.4826,9.4672,9.3903,9.3364,9.3133,9.348,9.3633,9.3787,9.4172,9.4326,9.4249,0.0,0.0,0.0,0.0,0.0,9.1864,9.2864,9.3018,9.2672,0.0,0.0,0.0,0.0,9.3172,0.0,0.0,0.0,0.0,0.0,0.0,0.0,0.0,0.0,0.0,10.0789,10.152,10.1712,10.1289,10.1712,10.1712,10.1289,10.1289,10.202,10.3212,10.3712,10.4482,10.5713,10.6213,10.6405,10.6405,10.6405,10.6405,10.6405,10.6405,10.6597,10.7021,10.7098,10.7982,10.9213,7.4453,7.4922,7.6445,0.0,0.0,0.0,0.0,8.5273,0.0,9.0742,0.0,9.1601,9.2344,9.2422,9.2187,9.1523,0.0,9.2539,9.2422,9.164,9.1423,9.1895,9.1127,9.0975,9.1732,8.9343,0.0,0.0,0.0,8.2312,8.0408,8.1628,8.2603,8.3355,8.408,8.6165,8.9171,9.0594,9.0902,9.0517,9.2056,9.271,9.3095,9.5557,9.6095,9.5865,9.848,9.8172,9.6673,9.7749,9.8091,9.8237,9.9008,9.9245,9.8903,9.7173,9.6673,9.6288,9.4788,9.4287,9.4364,9.5018,9.4595,9.421,9.4826,9.4557,9.4364,9.4864,9.4403,9.4095,0.0,0.0,9.3903,9.4018,9.3864,0.0,0.0,0.0,0.0,0.0,0.0,0.0,0.0,0.0,0.0,0.0,0.0,0.0,0.0,0.0,10.1289,10.0289,10.1712,0.0,10.152,0.0,10.2097,10.152,10.1404,10.2212,10.3905,10.3905,10.4789,10.6405,10.6405,10.6405,10.6405,10.6405,10.6405,10.6405,10.6405,10.6905,10.7405,10.6713,10.7021,10.8098,0.0,0.0,0.0,0.0,0.0,8.6992,8.75,8.9179,9.0351,9.0234,9.0859,9.1367,9.1523,9.1523,9.1758,9.2304,9.25,0.0,0.0,0.0,0.0,9.2137,9.1375,9.088,9.0848,8.9041,8.8302,0.0,0.0,8.5619,8.6532,8.5443,8.5715,8.7156,8.7311,8.8705,9.1018,9.1133,0.0,9.3056,9.3364,9.3903,9.4788,9.6863,9.7979,9.8634,9.9981,9.9249,9.7787,9.8942,9.9297,9.9341,9.9497,9.9357,9.9135,9.8788,9.8557,9.8288,9.798,9.7365,9.6711,9.6211,9.598,9.5711,9.5134,9.5942,9.648,9.5249,9.4864,9.4826,9.498,0.0,0.0,0.0,0.0,0.0,0.0,0.0,0.0,0.0,0.0,0.0,0.0,0.0,0.0,0.0,0.0,0.0,0.0,0.0,10.3405,0.0,10.1404,0.0,0.0,0.0,0.0,10.2404,10.1597,10.2212,10.3905,10.3905,10.4789,10.6405,10.6405,10.6405,10.6405,10.6405,10.6405,10.6405,10.6405,10.6521,10.6597,10.6521,10.7405,10.8713,0.0,0.0,0.0,0.0,0.0,0.0,0.0,9.2109,0.0,9.207,9.2383,9.2812,9.3281,9.332,9.3476,9.3906,9.3945,9.414,9.4531,9.375,9.3008,9.2422,9.2461,0.0,9.164,9.1288,9.1328,9.1726,0.0,0.0,9.0406,8.9626,8.9821,9.0898,9.1113,9.1315,9.1595,0.0,0.0,9.2518,9.398,9.5132,9.6094,9.8056,9.9299,10.019,10.1283,10.1097,10.0404,10.0904,10.108,10.1103,10.1113,10.0983,10.0784,10.0119,9.975,9.9519,9.8942,9.8481,9.8096,9.7673,9.7596,9.7365,9.648,9.6903,9.7134,9.5942,9.5672,9.5518,9.5057,9.5365,0.0,0.0,0.0,0.0,0.0,0.0,0.0,0.0,0.0,0.0,0.0,0.0,0.0,0.0,0.0,0.0,0.0,0.0,10.302,0.0,0.0,0.0,0.0,0.0,0.0,10.1904,10.152,10.2212,10.3905,10.3905,10.4789,10.6405,10.6405,10.6405,10.6405,10.6405,10.6405,10.6405,10.6405,10.6713,10.7098,10.7098,10.8098,10.9483,0.0,8.5976,0.0,0.0,9.1094,0.0,9.3711,9.4062,9.4179,9.4179,9.4023,9.4219,9.5117,9.5351,9.5469,9.5469,9.5469,9.5469,9.5469,9.4648,9.3867,9.3164,9.3476,9.3476,9.3164,9.3476,9.3906,0.0,0.0,0.0,0.0,9.2812,9.3398,9.3867,0.0,0.0,0.0,0.0,9.3287,9.2633,9.4862,9.639,9.749,9.9283,10.0395,10.1308,10.2202,10.2597,10.2636,10.2599,10.2578,10.2616,10.2615,10.25,10.2289,10.1206,10.0775,10.0635,9.9673,9.9404,9.9365,9.9135,9.9058,9.8865,9.798,9.7904,9.7827,9.7019,9.6673,9.6288,9.5441,9.5672,0.0,0.0,0.0,0.0,0.0,0.0,0.0,0.0,0.0,0.0,0.0,0.0,0.0,0.0,0.0,0.0,10.0404,0.0,0.0,0.0,0.0,10.2404,10.2097,0.0,10.2097,0.0,10.1597,10.2404,10.3905,10.4097,10.4982,10.6405,10.6405,10.6405,10.6405,10.6405,10.6405,10.6405,10.6405,10.679,10.7405,10.7598,10.8598,10.9906,0.0,0.0,0.0,0.0,0.0,0.0,0.0,9.457,9.5078,9.5078,9.4375,9.4219,9.5117,9.5898,9.6367,9.6367,9.6367,9.6367,9.6367,9.5547,9.5039,9.4961,9.3515,9.3437,9.4922,9.3476,9.3867,0.0,0.0,0.0,0.0,9.3476,9.5,0.0,0.0,0.0,0.0,9.4783,9.5206,9.6479,9.6746,9.7857,9.944,10.0601,10.1595,10.2404,10.2713,10.2905,10.2897,10.2905,10.2917,10.2917,10.2889,10.2695,10.25,10.2296,10.2109,10.1904,10.1481,10.1404,10.1212,10.0212,9.9981,9.975,9.8865,9.9288,9.9596,9.875,9.7942,9.7134,9.6326,9.5595,9.5826,0.0,0.0,0.0,0.0,0.0,9.6788,9.5172,0.0,0.0,0.0,0.0,0.0,0.0,9.9673,0.0,0.0,0.0,0.0,10.3712,0.0,10.3289,10.4713,10.252,0.0,10.252,10.252,10.2981,10.3905,10.4713,10.5482,10.6405,10.6405,10.6405,10.6405,10.6405,10.6405,10.6405,10.6405,10.6405,10.6597,10.7405,10.829,10.9098,0.0,0.0,0.0,0.0,0.0,0.0,0.0,9.6054,9.6133,9.664,9.5976,9.5586,9.5937,9.7187,9.8008,9.8008,9.8476,9.8789,9.8789,9.7969,9.7265,9.6719,9.6015,9.5742,9.5976,9.4765,9.4922,0.0,0.0,0.0,0.0,0.0,0.0,0.0,0.0,9.6607,9.6117,9.6033,9.6372,9.7044,9.7727,9.9034,10.0606,10.1195,10.1993,10.2796,10.2913,10.2913,10.2879,10.2917,10.289,10.289,10.289,10.2812,10.2695,10.25,10.2406,10.2318,10.1996,10.1876,10.1789,10.1173,10.1096,10.0789,9.9788,9.9827,9.9827,9.8981,9.8519,9.7865,9.6557,9.6826,9.7096,0.0,0.0,0.0,0.0,0.0,0.0,9.6596,0.0,9.8327,0.0,0.0,0.0,0.0,0.0,0.0,0.0,0.0,0.0,10.5405,0.0,10.2597,10.4405,10.2289,10.152,10.1789,10.2404,10.3097,10.3905,10.4713,10.5597,10.6405,10.6405,10.6405,10.6405,10.6405,10.6405,10.6405,10.6405,10.6405,10.6597,10.7905,10.8598,10.9098,9.4179,0.0,9.5351,0.0,9.6992,9.7422,9.8008,9.7617,9.7422,9.8008,9.7812,9.7539,9.7265,9.8515,9.9375,9.9375,9.9922,10.0312,10.0312,9.9726,9.9101,9.8476,9.7969,0.0,9.7226,9.6133,9.6015,9.6836,9.625,0.0,0.0,0.0,0.0,0.0,9.7929,9.7383,9.6601,9.729,9.7591,9.7708,9.9047,10.0289,10.1386,10.1788,10.2383,10.289,10.289,10.289,10.289,10.289,10.289,10.289,10.289,10.289,10.289,10.2695,10.2617,10.2613,10.2293,10.2186,10.2117,10.1804,10.171,10.1481,10.0596,10.0481,10.0212,9.9365,9.9173,9.875,9.7288,9.798,9.8365,9.7057,0.0,0.0,0.0,9.7827,9.7673,9.8211,9.9019,9.9288,9.8673,0.0,0.0,0.0,0.0,0.0,0.0,0.0,0.0,0.0,0.0,0.0,0.0,10.2212,10.1289,10.1289,10.2404,10.3289,10.3905,10.4982,10.579,10.6405,10.6405,10.6405,10.6405,10.6405,10.6405,10.6405,10.6405,10.6405,10.6597,10.829,10.8906,10.9098,9.7461,9.7656,9.8203,9.9922,9.9531,9.8984,9.8984,9.8984,9.8984,9.8984,9.9726,9.9922,9.9062,9.9765,10.0312,10.0312,10.0312,10.0312,10.0312,10.0312,10.0312,0.0,0.0,9.8086,9.8945,9.7344,9.6875,9.7695,0.0,0.0,9.1406,9.2265,9.4922,9.8984,9.8984,9.8515,9.7734,9.8594,9.8984,9.914,10.0898,10.1601,10.1718,10.2617,10.289,10.289,10.289,10.289,10.289,10.289,10.289,10.289,10.289,10.289,10.289,10.289,10.289,10.2812,10.2617,10.25,10.2402,10.1812,10.1716,10.1597,10.1289,10.1289,10.1096,10.0289,10.0096,9.9788,9.8942,9.8788,9.9327,10.1019,0.0,0.0,0.0,9.8596,9.8134,9.9865,10.0789,10.1289,10.1289,0.0,0.0,0.0,0.0,0.0,0.0,0.0,0.0,10.5097,10.3482,0.0,10.3905,10.2212,10.1289,10.1289,10.3097,10.3905,10.3982,10.5597,10.6405,10.6405,10.6405,10.6405,10.6405,10.6405,10.6405,10.6405,10.6405,10.6405,10.6597,10.829,10.8906,10.9098,9.9414,9.9453,9.9844,10.1015,10.0508,10.0117,10.0703,10.0312,9.9883,9.9883,10.0586,10.1094,10.0781,10.1015,10.1211,0.0,10.1719,10.2109,0.0,10.1484,10.1211,10.1211,10.0117,9.9609,9.9883,9.8203,9.7422,9.7695,0.0,0.0,0.0,9.5937,9.6797,9.8125,9.8711,9.8867,9.8633,9.9531,10.0195,10.0781,10.1406,10.1992,10.25,10.2812,10.289,10.289,10.289,10.289,10.289,10.289,10.289,10.289,10.289,10.289,10.289,10.289,10.289,10.289,10.2812,10.2812,10.2705,10.231,10.2133,10.1904,10.1597,10.1404,10.1212,10.1019,10.0904,10.0712,9.9827,9.9673,9.9673,9.9596,9.8904,0.0,9.9942,9.9596,9.9673,10.0789,10.1096,10.1289,0.0,10.2904,0.0,0.0,0.0,0.0,0.0,0.0,0.0,0.0,10.3212,0.0,10.3905,10.2212,10.1289,10.1289,10.3097,10.4482,10.5597,10.6213,10.6405,10.6405,10.6405,10.6405,10.6405,10.6405,10.6405,10.6405,10.6405,10.6405,10.6597,10.829,10.8906,10.9098,10.1289,10.1289,10.1406,10.1992,10.1406,10.1015,10.1484,10.1094,10.0781,10.0781,10.1484,10.2109,10.2109,10.2109,0.0,10.2109,10.2617,10.289,10.289,10.2383,10.2109,10.2109,10.1289,10.0781,10.0781,0.0,0.0,9.8672,9.8164,9.8359,9.914,9.914,9.914,9.9179,9.9726,9.9804,9.9531,10.039,10.1094,10.1601,10.1992,10.2383,10.289,10.289,10.289,10.289,10.289,10.289,10.289,10.289,10.289,10.289,10.289,10.289,10.289,10.289,10.289,10.289,10.289,10.289,10.2797,10.2596,10.2399,10.2213,10.1789,10.1597,10.1404,10.1289,10.1289,10.1096,10.0596,10.0596,10.0404,9.9827,9.9481,9.9481,9.9981,9.9827,10.0212,10.1597,0.0,0.0,0.0,10.2981,0.0,0.0,0.0,0.0,0.0,0.0,0.0,10.502,10.2597,0.0,10.2904,10.1789,10.152,10.1789,10.3482,10.5097,10.6405,10.6405,10.6405,10.6405,10.6405,10.6405,10.6405,10.6405,10.6405,10.6405,10.6405,10.6405,10.6597,10.7905,10.8598,10.9098,10.3086,10.289,0.0,0.0,10.2187,0.0,10.1719,10.1719,10.1719,10.1719,10.2383,10.289,10.289,10.289,10.289,10.289,0.0,0.0,0.0,10.289,10.289,10.289,10.2109,0.0,10.1719,10.0781,10.039,10.0312,10.0312,10.0703,10.1484,10.1484,10.1484,10.1484,10.1601,10.1094,10.039,10.1289,10.1719,10.1797,10.2617,10.289,10.289,10.289,10.289,10.289,10.289,10.289,10.289,10.289,10.289,10.289,10.289,10.289,10.289,10.289,10.289,10.289,10.289,10.289,10.2812,10.2617,10.2516,10.2401,10.1789,10.1674,10.1597,10.1404,10.1289,10.1289,10.1289,10.1289,10.1289,10.1289,10.0712,10.0173,10.0173,9.9481,9.9865,0.0,0.0,0.0,0.0,10.302,10.2289,0.0,0.0,0.0,0.0,0.0,10.5097,10.2597,10.1712,10.1289,10.1289,10.1404,10.1904,10.2789,10.4405,10.5597,10.6405,10.6405,10.6405,10.6405,10.6405,10.6405,10.6405,10.6405,10.6405,10.6405,10.6405,10.6405,10.6521,10.7405,10.8213,10.8983,0.0,0.0,10.289,10.289,10.2695,10.2617,10.2617,10.2617,10.2617,10.2617,10.2812,10.289,10.289,10.289,10.289,10.289,10.289,10.289,10.289,10.289,10.289,10.289,10.2695,10.2617,10.2617,10.1719,10.1015,10.0312,10.0312,10.039,10.0586,10.0586,10.0586,10.0586,10.1289,10.1484,10.1289,10.2187,10.2617,10.2617,10.2812,10.289,10.289,10.289,10.289,10.289,10.289,10.289,10.289,10.289,10.289,10.289,10.289,10.289,10.289,10.289,10.289,10.289,10.289,10.289,10.289,10.2812,10.271,10.2398,10.2084,10.1819,10.1712,10.1597,10.1404,10.1289,10.1289,10.1289,10.1289,10.1289,10.1096,10.1019,10.1019,10.0789,10.0904,0.0,10.1404,10.152,10.1904,10.2289,10.302,0.0,0.0,0.0,0.0,10.4405,10.3597,10.1712,10.1404,10.1289,10.1289,10.202,10.302,10.4482,10.4905,10.5597,10.6405,10.6405,10.6405,10.6405,10.6405,10.6405,10.6405,10.6405,10.6405,10.6405,10.6405,10.6405,10.6521,10.7405,10.8213,10.8983,10.3008,10.289,10.289,10.289,10.289,10.289,10.289,10.289,10.289,10.289,10.289,10.289,10.289,10.289,10.289,10.289,10.289,10.289,10.289,10.289,10.289,10.289,10.289,10.289,10.289,10.2383,10.1992,10.1484,10.1484,10.1484,10.1484,10.1484,10.1484,10.1484,10.1992,10.2187,10.2187,10.2695,10.289,10.289,10.289,10.289,10.289,10.289,10.289,10.289,10.289,10.289,10.289,10.289,10.289,10.289,10.289,10.289,10.289,10.289,10.289,10.289,10.289,10.289,10.289,10.289,10.2812,10.2613,10.2304,10.2195,10.2007,10.1786,10.1597,10.1404,10.1289,10.1289,10.1289,10.1289,10.1289,10.1289,10.1289,10.1289,10.1289,10.1289,10.1289,10.1289,10.1289,10.1712,10.2404,10.3289,0.0,0.0,10.3405,10.2904,10.2289,10.1289,10.1289,10.1289,10.1289,10.2597,10.3789,10.5097,10.5482,10.5905,10.6405,10.6405,10.6405,10.6405,10.6405,10.6405,10.6405,10.6405,10.6405,10.6405,10.6405,10.6405,10.6521,10.7405,10.8213,10.8983,10.3008,10.289,10.289,10.289,10.289,10.289,10.289,10.289,10.289,10.289,10.289,10.289,10.289,10.289,10.3008,10.3086,10.3008,10.289,10.289,10.289,10.289,10.289,10.289,10.289,10.289,10.289,10.289,10.289,10.289,10.289,10.289,10.289,10.289,10.289,10.289,10.289,10.289,10.289,10.289,10.289,10.289,10.289,10.289,10.289,10.289,10.289,10.289,10.289,10.289,10.289,10.289,10.289,10.289,10.289,10.289,10.289,10.289,10.289,10.289,10.289,10.289,10.289,10.289,10.2812,10.2617,10.25,10.238,10.1884,10.1822,10.1597,10.1404,10.1289,10.1404,10.1789,10.1597,10.1404,10.1789,0.0,10.1289,10.1289,10.1289,10.1289,10.1289,10.1289,10.1289,10.1289,10.1289,10.1289,0.0,10.1289,10.1404,10.152,10.1404,10.1404,10.1712,10.3289,10.4482,10.529,10.602,10.6405,10.6405,10.6405,10.6405,10.6405,10.6405,10.6405,10.6405,10.6405,10.6405,10.6405,10.6405,10.6405,10.6521,10.7405,10.8213,10.8983,10.289,10.289,10.289,10.289,10.289,10.289,10.289,10.289,10.289,10.289,10.289,10.289,10.289,10.289,10.3203,10.3906,10.3281,10.289,10.289,10.289,10.289,10.289,10.289,10.289,10.289,10.289,10.289,10.289,10.289,10.289,10.289,10.289,10.289,10.289,10.289,10.289,10.289,10.289,10.289,10.289,10.289,10.289,10.289,10.289,10.289,10.289,10.289,10.289,10.289,10.289,10.289,10.289,10.289,10.289,10.289,10.289,10.289,10.289,10.289,10.289,10.289,10.289,10.289,10.289,10.2812,10.2695,10.2499,10.2392,10.1992,10.1712,10.1597,10.1481,10.202,10.4212,10.2712,10.2097,10.4212,0.0,10.1289,10.1289,10.1289,10.1289,10.1289,10.1289,10.1289,10.1289,10.1289,10.1289,10.1289,10.1289,10.1597,10.2404,10.1712,10.202,10.3482,10.4405,10.529,10.6213,10.629,10.6405,10.6405,10.6405,10.6405,10.6405,10.6405,10.6405,10.6405,10.6405,10.6405,10.6405,10.6405,10.6405,10.6521,10.7405,10.8213,10.8983,10.3008,10.289,10.289,10.289,10.289,10.289,10.289,10.289,10.289,10.289,10.289,10.289,10.289,10.289,10.3086,10.3515,10.3594,10.3594,10.3594,10.3203,10.289,10.289,10.289,10.289,10.289,10.289,10.289,10.289,10.289,10.289,10.289,10.289,10.289,10.289,10.289,10.289,10.289,10.289,10.289,10.289,10.289,10.289,10.289,10.289,10.289,10.289,10.289,10.289,10.289,10.289,10.289,10.289,10.289,10.289,10.289,10.289,10.289,10.289,10.289,10.289,10.289,10.289,10.289,10.289,10.289,10.2812,10.2695,10.25,10.2285,10.1984,10.1786,10.1597,10.1904,10.2904,10.2097,0.0,0.0,10.202,10.1289,10.1289,10.1289,10.1289,10.1289,10.1289,10.1289,10.1289,10.1289,10.1289,10.1289,10.1712,10.2212,10.2597,10.2712,10.3289,10.4482,10.4905,10.5482,10.6405,10.6405,10.6405,10.6405,10.6405,10.6405,10.6405,10.6405,10.6405,10.6405,10.6405,10.6405,10.6405,10.6405,10.6405,10.6521,10.7405,10.7905,10.8406,10.3086,10.289,10.289,10.289,10.289,10.289,10.289,10.289,10.289,10.289,10.3086,10.3203,10.3203,10.3398,10.3594,10.3789,10.4219,10.4492,10.4492,10.3711,10.3203,10.3203,10.3008,10.289,10.289,10.289,10.289,10.289,10.289,10.289,10.289,10.289,10.289,10.289,10.289,10.289,10.289,10.289,10.289,10.289,10.289,10.289,10.289,10.289,10.289,10.289,10.289,10.289,10.289,10.289,10.289,10.289,10.289,10.289,10.289,10.289,10.289,10.289,10.289,10.289,10.289,10.289,10.289,10.289,10.289,10.289,10.2812,10.2617,10.25,10.238,10.1983,10.1778,10.1789,10.2213,0.0,10.152,0.0,10.1712,10.1289,10.1289,10.1289,10.1289,10.1289,10.1289,10.1289,10.1289,10.152,10.1597,10.1597,10.2404,10.2981,10.3212,10.3789,10.4482,10.5097,10.529,10.5713,10.6405,10.6405,10.6405,10.6405,10.6405,10.6405,10.6405,10.6405,10.6405,10.6405,10.6405,10.6405,10.6405,10.6405,10.6405,10.6521,10.7405,10.7713,10.7905,10.3086,10.289,10.289,10.289,10.289,10.289,10.289,10.289,10.289,10.289,10.3594,10.4101,10.4101,10.4804,10.5586,10.6406,10.5781,10.539,10.539,10.4609,10.4101,10.4101,10.3281,10.289,10.289,10.289,10.289,10.289,10.289,10.289,10.289,10.289,10.289,10.289,10.289,10.289,10.289,10.289,10.289,10.289,10.289,10.289,10.289,10.289,10.289,10.289,10.289,10.289,10.289,10.289,10.289,10.289,10.289,10.289,10.289,10.289,10.289,10.289,10.289,10.289,10.289,10.289,10.289,10.289,10.289,10.289,10.289,10.289,10.2695,10.25,10.2416,10.2,10.252,10.4792,0.0,0.0,10.4482,10.2789,10.1289,10.1289,10.1289,10.1289,10.1289,10.1289,10.1289,10.1289,10.202,10.252,10.252,10.3289,10.4097,10.4905,10.4982,10.4982,10.5097,10.5905,10.629,10.6405,10.6405,10.6405,10.6405,10.6405,10.6405,10.6405,10.6405,10.6405,10.6405,10.6405,10.6405,10.6405,10.6405,10.6405,10.6521,10.7405,10.7713,10.7905,10.3984,10.3711,10.3515,10.3008,10.3281,10.3711,10.3711,10.4219,10.4492,10.4492,10.4804,10.5,10.5,10.5312,10.5586,10.5898,10.6093,10.6211,10.6211,10.5898,10.5,10.3515,10.3086,10.289,10.289,10.289,10.289,10.289,10.289,10.289,10.289,10.289,10.289,10.289,10.289,10.289,10.289,10.289,10.289,10.289,10.289,10.289,10.289,10.289,10.289,10.289,10.289,10.289,10.289,10.289,10.289,10.289,10.289,10.289,10.289,10.289,10.289,10.289,10.289,10.289,10.289,10.289,10.289,10.289,10.289,10.289,10.289,10.289,10.2812,10.2695,10.25,10.2312,10.2401,10.2979,0.0,10.1789,10.2597,10.1904,10.1289,10.1289,10.1289,10.1289,10.1289,10.1289,10.152,10.2097,10.2404,10.2789,10.3405,10.4212,10.4982,10.5905,10.5905,10.5905,10.5905,10.6213,10.6405,10.6405,10.6405,10.6405,10.6405,10.6405,10.6405,10.6405,10.6405,10.6405,10.6405,10.6405,10.6405,10.6405,10.6405,10.6405,10.6521,10.7405,10.7713,10.7905,10.4883,10.4609,10.4414,10.3789,10.4219,10.4609,10.4609,10.5117,10.5508,10.5508,10.5703,10.5898,10.5898,10.6093,10.6289,10.6289,10.6797,10.6992,10.6719,10.6211,10.5117,10.3398,10.3281,10.3203,10.289,10.289,10.289,10.289,10.289,10.289,10.289,10.289,10.289,10.289,10.289,10.289,10.289,10.289,10.289,10.289,10.289,10.289,10.289,10.289,10.289,10.289,10.289,10.289,10.289,10.289,10.289,10.289,10.289,10.289,10.289,10.289,10.289,10.289,10.289,10.289,10.289,10.289,10.289,10.289,10.289,10.289,10.289,10.289,10.289,10.2812,10.2695,10.2617,10.2387,10.1992,10.1881,10.1712,10.1481,10.1404,10.1404,10.1289,10.1289,10.1289,10.1289,10.152,10.202,10.2597,10.3097,10.3789,10.4597,10.5213,10.5905,10.679,10.6521,10.6521,10.679,10.6521,10.6405,10.6405,10.6405,10.6405,10.6405,10.6405,10.6405,10.6405,10.6405,10.6405,10.6405,10.6405,10.6405,10.6405,10.6405,10.6597,10.6905,10.7521,10.7905,10.829,10.5703,10.5508,10.5508,10.5508,10.5508,10.5508,10.5508,10.5508,10.5508,10.5508,10.6211,10.6719,10.6719,10.75,10.8008,10.8008,10.8008,10.7617,10.6797,10.5195,10.4219,10.4219,10.4219,10.3789,10.289,10.289,10.289,10.289,10.289,10.289,10.289,10.289,10.289,10.289,10.289,10.289,10.289,10.289,10.289,10.289,10.289,10.289,10.289,10.289,10.289,10.289,10.289,10.289,10.289,10.289,10.289,10.289,10.289,10.289,10.289,10.289,10.289,10.289,10.289,10.289,10.289,10.289,10.289,10.289,10.289,10.289,10.289,10.289,10.289,10.289,10.289,10.2695,10.25,10.25,10.2278,10.202,10.1673,10.1673,10.1597,10.1289,10.1289,10.1289,10.1289,10.2097,10.2597,10.2597,10.4212,10.5482,10.6405,10.6405,10.679,10.7713,10.6905,10.679,10.7713,10.679,10.6405,10.6405,10.6405,10.6405,10.6405,10.6405,10.6405,10.6405,10.6405,10.6405,10.6405,10.6405,10.6405,10.6405,10.6405,10.6905,10.7713,10.7713,10.8213,10.8983,10.6484,10.6289,10.6211,10.5586,10.6015,10.6289,10.6289,10.6914,10.7304,10.7304,10.75,10.7617,10.7617,10.7812,10.8008,10.8008,10.8008,10.789,10.7617,10.7109,10.6601,10.6015,10.4219,10.3515,10.3789,10.3203,10.289,10.289,10.289,10.289,10.289,10.289,10.289,10.289,10.289,10.289,10.289,10.289,10.289,10.289,10.289,10.289,10.289,10.289,10.289,10.289,10.289,10.289,10.289,10.289,10.289,10.289,10.289,10.289,10.289,10.289,10.289,10.289,10.289,10.289,10.289,10.289,10.289,10.289,10.289,10.289,10.289,10.289,10.289,10.289,10.289,10.2812,10.2695,10.25,10.2419,10.2195,10.1797,10.1701,10.1597,10.1289,10.1289,10.1289,10.1289,10.2097,10.2904,10.3482,10.5097,10.6097,10.6405,10.7021,10.7213,10.679,10.7098,10.7098,10.679,10.6521,10.6405,10.6405,10.6405,10.6405,10.6405,10.6405,10.6405,10.6405,10.6405,10.6405,10.6405,10.6405,10.6405,10.6405,10.6405,10.6905,10.779,10.829,10.9098,10.9906,10.6914,10.6992,10.6992,10.6093,10.6719,10.7187,10.7187,10.7695,10.8008,10.8008,10.8008,10.8008,10.8008,10.8008,10.8008,10.8008,10.8008,10.8008,10.8008,10.7695,10.7383,10.7187,10.5117,10.3984,10.4219,10.3711,10.3203,10.289,10.289,10.289,10.289,10.289,10.289,10.289,10.289,10.289,10.289,10.289,10.289,10.289,10.289,10.289,10.289,10.289,10.289,10.289,10.289,10.289,10.289,10.289,10.289,10.289,10.289,10.289,10.289,10.289,10.289,10.289,10.289,10.289,10.289,10.289,10.289,10.289,10.289,10.289,10.289,10.289,10.289,10.289,10.289,10.289,10.2812,10.2695,10.2695,10.2484,10.21,10.1894,10.1789,10.1481,10.1404,10.1289,10.1289,10.2097,10.3097,10.4289,10.5597,10.6597,10.6905,10.7405,10.779,10.7905,10.779,10.7598,10.7405,10.6713,10.6405,10.6405,10.6405,10.6405,10.6405,10.6405,10.6405,10.6405,10.6405,10.6405,10.6405,10.6405,10.6597,10.6905,10.6905,10.7598,10.8713,10.9213,10.9983,11.0791,10.6992,10.7383,10.7617,10.6797,10.7383,10.789,10.7812,10.7812,10.789,10.789,10.8008,10.8008,10.8008,10.8008,10.8008,10.8008,10.8008,10.8008,10.8008,10.7304,10.7187,10.8008,10.6484,10.5312,10.4414,10.4297,10.3789,10.289,10.289,10.289,10.289,10.289,10.289,10.289,10.289,10.289,10.289,10.289,10.289,10.289,10.289,10.289,10.289,10.289,10.289,10.289,10.289,10.289,10.289,10.289,10.289,10.289,10.289,10.289,10.289,10.289,10.289,10.289,10.289,10.289,10.289,10.289,10.289,10.289,10.289,10.289,10.289,10.289,10.289,10.289,10.289,10.289,10.289,10.289,10.289,10.2812,10.25,10.2303,10.2015,10.1712,10.1481,10.1289,10.1289,10.2212,10.3405,10.4982,10.5905,10.6713,10.7521,10.7713,10.8482,10.9906,10.8598,10.8098,10.879,10.7213,10.6405,10.6405,10.6405,10.6405,10.6405,10.6405,10.6405,10.6405,10.6521,10.6521,10.6405,10.6521,10.7021,10.7713,10.7713,10.8713,11.0214,11.0214,11.0791,11.1522,10.7617,10.7304,10.6914,10.6719,10.6914,10.6797,10.6093,10.6601,10.6992,10.6992,10.7617,10.8008,10.8008,10.8008,10.8008,10.8008,10.8008,10.8008,10.8008,10.7812,10.7812,10.8008,10.7695,10.7109,10.6211,10.4883,10.3789,10.289,10.289,10.289,10.289,10.289,10.289,10.289,10.289,10.289,10.289,10.289,10.289,10.289,10.289,10.289,10.289,10.289,10.289,10.289,10.289,10.289,10.289,10.289,10.289,10.289,10.289,10.289,10.289,10.289,10.289,10.289,10.289,10.289,10.289,10.289,10.289,10.289,10.289,10.289,10.289,10.289,10.289,10.289,10.289,10.289,10.289,10.289,10.289,10.2812,10.25,10.2397,10.2195,10.1786,10.1597,10.1481,10.1289,10.2712,10.3982,10.4982,10.5905,10.6521,10.6713,10.7905,10.8482,10.829,10.8482,10.8406,10.7982,10.6905,10.6405,10.6405,10.6405,10.6405,10.6405,10.6405,10.6405,10.6405,10.7098,10.7021,10.6521,10.7098,10.7521,10.7713,10.7713,10.8713,11.0214,11.0214,11.0791,11.1522,10.7383,10.7304,10.7187,10.6797,10.6719,10.6719,10.6719,10.6719,10.6797,10.7304,10.7695,10.8008,10.8008,10.8008,10.8008,10.8008,10.8008,10.8008,10.8008,10.8008,10.8008,10.8008,10.8008,10.7617,10.6719,10.5781,10.5,10.4101,10.3711,10.3515,10.3515,10.3086,10.289,10.289,10.289,10.289,10.289,10.289,10.289,10.289,10.289,10.289,10.289,10.289,10.289,10.289,10.289,10.289,10.289,10.289,10.289,10.289,10.289,10.289,10.289,10.289,10.289,10.289,10.289,10.289,10.289,10.289,10.289,10.289,10.289,10.289,10.289,10.289,10.289,10.289,10.289,10.289,10.289,10.289,10.289,10.289,10.2695,10.2587,10.2295,10.1874,10.1817,10.1597,10.1289,10.252,10.3597,10.4482,10.529,10.629,10.7521,10.8406,10.8906,10.8906,10.929,10.9098,10.829,10.7405,10.7021,10.7021,10.7021,10.679,10.6405,10.679,10.7021,10.7021,10.7521,10.7713,10.7598,10.7713,10.8213,10.8906,10.8406,10.929,11.0791,11.0791,11.1098,11.1522,10.6992,10.7383,10.75,10.6797,10.6719,10.6914,10.75,10.7109,10.6992,10.7695,10.789,10.8008,10.8008,10.8008,10.8008,10.8008,10.8008,10.8008,10.8008,10.8008,10.8008,10.8008,10.8008,10.7695,10.6914,10.6914,10.6484,10.5508,10.4804,10.4297,10.4219,10.3515,10.3008,10.289,10.289,10.289,10.289,10.289,10.289,10.289,10.289,10.289,10.289,10.289,10.289,10.289,10.289,10.289,10.289,10.289,10.289,10.289,10.289,10.289,10.289,10.3086,10.3086,10.3203,10.3281,10.3281,10.3281,10.3203,10.3203,10.3281,10.3203,10.3008,10.289,10.289,10.289,10.289,10.289,10.289,10.289,10.289,10.289,10.289,10.289,10.2683,10.2499,10.2304,10.2005,10.1789,10.152,10.2289,10.3097,10.3597,10.4789,10.6405,10.8406,10.8906,10.9483,11.0214,11.0214,10.9906,10.9098,10.829,10.7905,10.7905,10.8098,10.7598,10.6713,10.7521,10.7905,10.7905,10.8098,10.8406,10.8906,10.829,10.8906,11.0098,10.9406,11.0098,11.1522,11.1522,11.1522,11.1522,10.7695,10.7304,10.6797,10.6719,10.6719,10.6484,10.5898,10.6289,10.6719,10.6914,10.75,10.8008,10.8008,10.8008,10.8008,10.8008,10.8008,10.8008,10.8008,10.8008,10.8008,10.8008,10.8008,10.789,10.7812,10.7812,10.7109,10.5508,10.539,10.4883,10.4219,10.4101,10.3594,10.289,10.289,10.289,10.289,10.289,10.289,10.289,10.289,10.289,10.289,10.289,10.289,10.289,10.289,10.289,10.289,10.289,10.289,10.289,10.289,10.289,10.3008,10.3789,10.3984,10.4219,10.4883,10.5117,10.5,10.4219,10.4609,10.5,10.4219,10.3398,10.289,10.289,10.289,10.289,10.289,10.289,10.289,10.289,10.289,10.289,10.289,10.2905,10.2907,10.3218,10.2817,10.2481,10.2404,10.3212,10.3482,10.2789,10.5597,10.7213,10.679,10.879,11.0098,11.0214,11.0214,11.0098,10.9983,10.9213,10.8713,10.8713,10.9483,10.8983,10.7598,10.8406,10.8713,10.879,10.9483,10.9483,10.8983,10.9598,10.9983,11.0214,11.0098,11.0598,11.1522,11.1522,11.1522,11.1522,10.789,10.7695,10.7383,10.7383,10.6992,10.6719,10.6914,10.6797,10.6914,10.7383,10.7812,10.8008,10.8008,10.8008,10.8008,10.8008,10.8008,10.8008,10.8008,10.8008,10.8008,10.8008,10.8008,10.8008,10.8008,10.8008,10.7617,10.6914,10.6406,10.5703,10.4883,10.4414,10.3711,10.289,10.289,10.289,10.289,10.289,10.289,10.289,10.289,10.289,10.289,10.289,10.289,10.289,10.289,10.289,10.289,10.289,10.289,10.289,10.289,10.289,10.3086,10.3906,10.4219,10.4414,10.5312,10.5508,10.539,10.5,10.5195,10.539,10.5,10.4297,10.3594,10.3594,10.3203,10.289,10.289,10.289,10.289,10.289,10.289,10.289,10.289,10.29,10.2787,10.2707,10.2285,10.2172,10.2597,10.252,10.2712,10.3289,10.4713,10.602,10.7098,10.8598,10.9713,11.0214,11.0714,11.0714,11.0214,10.979,10.9598,10.9598,10.9983,10.9598,10.8406,10.9213,10.9598,10.9598,10.9983,11.0291,11.0291,11.0214,11.0483,11.0906,11.0406,11.0714,11.1522,11.1522,11.1522,11.1522]},{"header":{"parameterUnit":"m.s-1","parameterCategory":1,"la1":30.6,"la2":28.766,"lo1":-90.7593,"lo2":-88.6598,"dx":0.0162,"dy":0.0183,"nx":116,"ny":114,"refTime":"2022-12-18T18:00:00:Z","depth":0,"parameterNumber":3,"parameterNumberName":"V-component_of_WINDS"},"data":[0.0,0.0,0.0,0.0,0.0,0.0,0.0,0.0,0.0,0.0,0.0,0.0,0.0,0.0,0.0,0.0,0.0,0.0,0.0,0.0,0.0,0.0,0.0,0.0,0.0,0.0,0.0,0.0,0.0,0.0,0.0,0.0,0.0,0.0,0.0,0.0,0.0,0.0,0.0,0.0,0.0,0.0,0.0,0.0,0.0,0.0,0.0,0.0,0.0,0.0,0.0,0.0,0.0,0.0,0.0,0.0,0.0,0.0,0.0,0.0,0.0,0.0,0.0,0.0,0.0,0.0,0.0,0.0,0.0,0.0,0.0,0.0,0.0,0.0,0.0,0.0,0.0,0.0,0.0,0.0,0.0,0.0,0.0,0.0,0.0,0.0,0.0,0.0,0.0,0.0,0.0,0.0,0.0,0.0,0.0,0.0,0.0,0.0,0.0,0.0,0.0,0.0,0.0,0.0,0.0,0.0,0.0,0.0,0.0,0.0,0.0,0.0,0.0,0.0,0.0,0.0,0.0,0.0,0.0,0.0,0.0,0.0,0.0,0.0,0.0,0.0,0.0,0.0,0.0,0.0,0.0,0.0,0.0,0.0,0.0,0.0,0.0,0.0,0.0,0.0,0.0,0.0,0.0,0.0,0.0,0.0,0.0,0.0,0.0,0.0,0.0,0.0,0.0,0.0,0.0,0.0,0.0,0.0,0.0,0.0,0.0,0.0,0.0,0.0,0.0,0.0,0.0,0.0,0.0,0.0,0.0,0.0,0.0,0.0,0.0,0.0,0.0,0.0,0.0,0.0,0.0,0.0,0.0,0.0,0.0,0.0,0.0,0.0,0.0,0.0,0.0,0.0,0.0,0.0,0.0,0.0,0.0,0.0,0.0,0.0,0.0,0.0,0.0,0.0,0.0,0.0,0.0,0.0,0.0,0.0,0.0,0.0,0.0,0.0,0.0,0.0,0.0,0.0,0.0,0.0,0.0,0.0,0.0,0.0,0.0,0.0,0.0,0.0,0.0,0.0,0.0,0.0,0.0,0.0,0.0,0.0,0.0,0.0,0.0,0.0,0.0,0.0,0.0,0.0,0.0,0.0,0.0,0.0,0.0,0.0,0.0,0.0,0.0,0.0,0.0,0.0,0.0,0.0,0.0,0.0,0.0,0.0,0.0,0.0,0.0,0.0,0.0,0.0,0.0,0.0,0.0,0.0,0.0,0.0,0.0,0.0,0.0,0.0,0.0,0.0,0.0,0.0,0.0,0.0,0.0,0.0,0.0,0.0,0.0,0.0,0.0,0.0,0.0,0.0,0.0,0.0,0.0,0.0,0.0,0.0,0.0,0.0,0.0,0.0,0.0,0.0,0.0,0.0,0.0,0.0,0.0,0.0,0.0,0.0,0.0,0.0,0.0,0.0,0.0,0.0,0.0,0.0,0.0,0.0,0.0,0.0,0.0,0.0,0.0,0.0,0.0,0.0,0.0,0.0,0.0,0.0,0.0,0.0,0.0,0.0,0.0,0.0,0.0,0.0,0.0,0.0,0.0,0.0,0.0,0.0,0.0,0.0,0.0,0.0,0.0,0.0,0.0,0.0,0.0,0.0,0.0,0.0,0.0,0.0,0.0,0.0,0.0,0.0,0.0,0.0,0.0,0.0,0.0,0.0,0.0,0.0,0.0,0.0,0.0,0.0,0.0,0.0,0.0,0.0,0.0,0.0,0.0,0.0,0.0,0.0,0.0,0.0,0.0,0.0,0.0,0.0,0.0,0.0,0.0,0.0,0.0,0.0,0.0,0.0,0.0,0.0,0.0,0.0,0.0,0.0,0.0,0.0,0.0,0.0,0.0,0.0,0.0,0.0,0.0,0.0,0.0,0.0,0.0,0.0,0.0,0.0,0.0,0.0,0.0,0.0,0.0,0.0,0.0,0.0,0.0,0.0,0.0,0.0,0.0,0.0,0.0,0.0,0.0,0.0,0.0,0.0,0.0,0.0,0.0,0.0,0.0,0.0,0.0,0.0,0.0,0.0,0.0,0.0,0.0,0.0,0.0,0.0,0.0,0.0,0.0,0.0,0.0,0.0,0.0,0.0,0.0,0.0,0.0,0.0,0.0,0.0,0.0,0.0,0.0,0.0,0.0,0.0,0.0,0.0,0.0,0.0,0.0,0.0,0.0,0.0,0.0,0.0,0.0,0.0,0.0,0.0,0.0,0.0,0.0,0.0,0.0,0.0,0.0,0.0,0.0,0.0,0.0,0.0,0.0,0.0,0.0,0.0,0.0,0.0,0.0,0.0,0.0,0.0,0.0,0.0,0.0,0.0,0.0,0.0,0.0,0.0,0.0,0.0,0.0,0.0,0.0,0.0,0.0,0.0,0.0,0.0,0.0,0.0,0.0,0.0,0.0,0.0,0.0,0.0,0.0,0.0,0.0,0.0,0.0,0.0,0.0,0.0,0.0,0.0,0.0,0.0,0.0,0.0,0.0,0.0,0.0,0.0,0.0,0.0,0.0,0.0,0.0,0.0,0.0,0.0,0.0,0.0,0.0,0.0,0.0,0.0,0.0,0.0,0.0,0.0,0.0,0.0,0.0,0.0,0.0,0.0,0.0,0.0,0.0,0.0,0.0,0.0,0.0,0.0,0.0,0.0,0.0,0.0,0.0,0.0,0.0,0.0,0.0,0.0,0.0,0.0,0.0,0.0,0.0,0.0,0.0,0.0,0.0,0.0,0.0,0.0,0.0,0.0,0.0,0.0,0.0,0.0,0.0,0.0,0.0,0.0,0.0,0.0,0.0,0.0,0.0,0.0,0.0,0.0,0.0,0.0,0.0,0.0,0.0,0.0,0.0,0.0,0.0,0.0,0.0,0.0,0.0,0.0,0.0,0.0,0.0,0.0,0.0,0.0,0.0,0.0,0.0,0.0,0.0,0.0,0.0,0.0,0.0,0.0,0.0,0.0,0.0,0.0,0.0,0.0,0.0,0.0,0.0,0.0,0.0,0.0,0.0,0.0,0.0,0.0,0.0,0.0,0.0,0.0,0.0,0.0,0.0,0.0,0.0,0.0,0.0,0.0,0.0,0.0,0.0,0.0,0.0,0.0,0.0,0.0,0.0,0.0,0.0,0.0,0.0,0.0,0.0,0.0,0.0,0.0,0.0,0.0,0.0,0.0,0.0,0.0,0.0,0.0,0.0,0.0,0.0,0.0,0.0,0.0,0.0,0.0,0.0,0.0,0.0,0.0,0.0,0.0,0.0,0.0,0.0,0.0,0.0,0.0,0.0,0.0,0.0,0.0,0.0,0.0,0.0,0.0,0.0,0.0,0.0,0.0,0.0,0.0,0.0,0.0,0.0,0.0,0.0,0.0,0.0,0.0,0.0,0.0,0.0,0.0,0.0,0.0,0.0,0.0,0.0,0.0,0.0,0.0,0.0,0.0,0.0,0.0,0.0,0.0,0.0,0.0,0.0,0.0,0.0,0.0,0.0,0.0,0.0,0.0,0.0,0.0,0.0,0.0,0.0,0.0,0.0,0.0,0.0,0.0,0.0,0.0,0.0,0.0,0.0,0.0,0.0,0.0,0.0,0.0,0.0,0.0,0.0,0.0,0.0,0.0,0.0,0.0,0.0,0.0,0.0,0.0,0.0,0.0,0.0,0.0,0.0,0.0,0.0,0.0,0.0,0.0,0.0,0.0,0.0,0.0,0.0,0.0,0.0,0.0,0.0,0.0,0.0,0.0,0.0,0.0,0.0,0.0,0.0,0.0,0.0,0.0,0.0,0.0,0.0,0.0,0.0,0.0,0.0,0.0,0.0,0.0,0.0,0.0,0.0,0.0,0.0,0.0,0.0,0.0,0.0,0.0,0.0,0.0,0.0,0.0,0.0,0.0,0.0,0.0,0.0,0.0,0.0,0.0,0.0,0.0,0.0,0.0,0.0,0.0,0.0,0.0,0.0,0.0,0.0,0.0,0.0,0.0,0.0,0.0,0.0,0.0,0.0,0.0,0.0,0.0,0.0,0.0,0.0,0.0,0.0,0.0,0.0,0.0,0.0,0.0,0.0,0.0,0.0,0.0,0.0,0.0,0.0,0.0,0.0,0.0,0.0,0.0,0.0,0.0,0.0,0.0,0.0,0.0,0.0,0.0,0.0,0.0,0.0,0.0,0.0,0.0,0.0,0.0,0.0,0.0,0.0,0.0,0.0,0.0,0.0,0.0,0.0,0.0,0.0,0.0,0.0,0.0,0.0,0.0,0.0,0.0,0.0,0.0,0.0,0.0,0.0,0.0,0.0,0.0,0.0,0.0,0.0,0.0,0.0,0.0,0.0,0.0,0.0,0.0,0.0,0.0,0.0,0.0,0.0,0.0,0.0,0.0,0.0,0.0,0.0,0.0,0.0,0.0,0.0,0.0,0.0,0.0,0.0,0.0,0.0,0.0,0.0,0.0,0.0,0.0,0.0,0.0,0.0,0.0,0.0,0.0,0.0,0.0,0.0,0.0,0.0,0.0,0.0,0.0,0.0,0.0,0.0,0.0,0.0,0.0,0.0,0.0,0.0,0.0,0.0,0.0,0.0,0.0,0.0,0.0,0.0,0.0,0.0,0.0,0.0,0.0,0.0,0.0,0.0,0.0,0.0,0.0,0.0,0.0,0.0,0.0,0.0,0.0,0.0,0.0,0.0,0.0,0.0,0.0,0.0,0.0,0.0,0.0,0.0,0.0,0.0,0.0,0.0,0.0,0.0,0.0,0.0,0.0,0.0,0.0,0.0,0.0,0.0,0.0,0.0,0.0,0.0,0.0,0.0,0.0,0.0,0.0,0.0,0.0,0.0,0.0,0.0,0.0,0.0,0.0,0.0,0.0,0.0,0.0,0.0,0.0,0.0,0.0,0.0,0.0,0.0,0.0,0.0,0.0,0.0,0.0,0.0,0.0,0.0,0.0,0.0,0.0,0.0,0.0,0.0,0.0,0.0,0.0,0.0,0.0,0.0,0.0,0.0,0.0,0.0,0.0,0.0,0.0,0.0,0.0,0.0,0.0,0.0,0.0,0.0,0.0,0.0,0.0,0.0,0.0,0.0,0.0,0.0,0.0,0.0,0.0,0.0,0.0,0.0,0.0,0.0,0.0,0.0,0.0,0.0,0.0,0.0,0.0,0.0,0.0,0.0,0.0,0.0,0.0,0.0,0.0,0.0,0.0,0.0,0.0,0.0,0.0,0.0,0.0,0.0,0.0,0.0,0.0,0.0,0.0,0.0,0.0,0.0,0.0,0.0,0.0,0.0,0.0,0.0,0.0,0.0,0.0,0.0,0.0,0.0,0.0,0.0,0.0,0.0,0.0,0.0,0.0,0.0,0.0,0.0,0.0,0.0,0.0,0.0,0.0,0.0,0.0,0.0,0.0,0.0,0.0,0.0,0.0,0.0,0.0,0.0,0.0,0.0,0.0,0.0,0.0,0.0,0.0,0.0,0.0,0.0,0.0,0.0,0.0,0.0,0.0,0.0,0.0,0.0,0.0,0.0,0.0,0.0,0.0,0.0,0.0,0.0,0.0,0.0,0.0,0.0,0.0,0.0,0.0,0.0,0.0,0.0,0.0,0.0,0.0,0.0,0.0,0.0,0.0,0.0,0.0,0.0,0.0,0.0,0.0,0.0,0.0,0.0,0.0,0.0,0.0,0.0,0.0,0.0,0.0,0.0,0.0,0.0,0.0,0.0,0.0,0.0,0.0,0.0,0.0,0.0,0.0,0.0,0.0,0.0,0.0,0.0,0.0,0.0,0.0,0.0,0.0,0.0,0.0,0.0,0.0,0.0,0.0,0.0,0.0,0.0,0.0,0.0,0.0,0.0,0.0,0.0,0.0,0.0,0.0,0.0,0.0,0.0,0.0,0.0,0.0,0.0,0.0,0.0,0.0,0.0,0.0,0.0,0.0,0.0,0.0,0.0,0.0,0.0,0.0,0.0,0.0,0.0,0.0,0.0,0.0,0.0,0.0,0.0,0.0,0.0,0.0,0.0,0.0,0.0,0.0,0.0,0.0,0.0,0.0,0.0,0.0,0.0,0.0,0.0,0.0,0.0,0.0,0.0,0.0,0.0,0.0,0.0,0.0,0.0,0.0,-2.0696,0.0,0.0,0.0,0.0,0.0,0.0,0.0,0.0,0.0,0.0,0.0,0.0,0.0,0.0,0.0,0.0,0.0,0.0,0.0,0.0,0.0,0.0,0.0,0.0,0.0,0.0,0.0,0.0,0.0,0.0,0.0,0.0,0.0,0.0,0.0,0.0,0.0,0.0,0.0,-1.2657,-1.2449,-1.2412,-1.2238,-1.2284,-1.2575,0.0,0.0,0.0,0.0,0.0,0.0,0.0,0.0,0.0,0.0,0.0,0.0,0.0,0.0,0.0,0.0,0.0,0.0,0.0,0.0,0.0,0.0,0.0,0.0,0.0,0.0,0.0,0.0,0.0,0.0,0.0,0.0,0.0,0.0,0.0,0.0,0.0,0.0,0.0,0.0,0.0,0.0,0.0,0.0,0.0,0.0,0.0,0.0,0.0,0.0,0.0,0.0,0.0,0.0,0.0,0.0,0.0,0.0,0.0,0.0,0.0,0.0,0.0,0.0,0.0,0.0,0.0,0.0,0.0,0.0,0.0,-1.8772,0.0,0.0,0.0,0.0,0.0,0.0,0.0,0.0,0.0,0.0,0.0,0.0,0.0,0.0,0.0,0.0,0.0,0.0,0.0,0.0,0.0,0.0,0.0,-1.0848,-1.1169,-1.1223,-1.1436,-1.1583,0.0,0.0,0.0,0.0,0.0,0.0,0.0,0.0,0.0,0.0,0.0,-1.2705,-1.2174,-1.2238,-1.2481,0.0,0.0,0.0,0.0,0.0,0.0,0.0,0.0,0.0,0.0,0.0,0.0,0.0,0.0,0.0,0.0,0.0,0.0,0.0,0.0,0.0,0.0,0.0,0.0,0.0,0.0,0.0,0.0,0.0,0.0,0.0,0.0,0.0,0.0,0.0,0.0,0.0,0.0,0.0,0.0,0.0,0.0,0.0,0.0,0.0,0.0,0.0,0.0,0.0,0.0,0.0,0.0,0.0,0.0,0.0,0.0,0.0,0.0,0.0,0.0,0.0,0.0,0.0,0.0,0.0,-2.2374,-2.3298,-2.3527,-2.1919,-2.1198,-2.0858,-1.7882,-1.7202,-1.822,0.0,0.0,0.0,0.0,0.0,0.0,0.0,0.0,0.0,0.0,0.0,0.0,0.0,0.0,0.0,0.0,0.0,0.0,0.0,0.0,-1.0795,-1.1557,-1.1703,-1.185,-1.2104,-1.2158,-1.2184,-1.2184,0.0,0.0,0.0,0.0,0.0,0.0,0.0,0.0,0.0,0.0,0.0,-1.1478,-1.1914,-1.2119,-1.231,-1.2449,0.0,0.0,0.0,0.0,0.0,0.0,0.0,0.0,0.0,0.0,0.0,0.0,0.0,0.0,0.0,0.0,0.0,0.0,0.0,0.0,0.0,0.0,0.0,0.0,0.0,0.0,0.0,0.0,0.0,0.0,0.0,0.0,0.0,0.0,0.0,0.0,0.0,0.0,0.0,0.0,0.0,0.0,0.0,-1.9439,-1.9559,0.0,0.0,0.0,0.0,0.0,0.0,0.0,0.0,0.0,0.0,0.0,0.0,0.0,0.0,-2.1125,-2.2013,-2.1592,-1.9804,-2.0517,-2.0724,-2.0755,-2.0776,-1.9659,-1.768,-1.7217,0.0,-1.8548,-1.8692,0.0,0.0,0.0,0.0,0.0,0.0,0.0,0.0,0.0,0.0,0.0,0.0,0.0,0.0,0.0,0.0,0.0,0.0,0.0,0.0,0.0,-1.2959,-1.348,-1.3774,-1.4255,-1.4322,-1.3828,-1.4229,0.0,0.0,0.0,0.0,0.0,0.0,0.0,0.0,-1.2327,-1.1861,-1.1099,-1.1454,-1.1556,-1.1666,-1.1741,-1.2046,-1.2736,-1.2307,0.0,0.0,0.0,0.0,0.0,0.0,0.0,0.0,0.0,0.0,0.0,0.0,0.0,0.0,0.0,0.0,0.0,0.0,0.0,0.0,0.0,0.0,0.0,0.0,0.0,0.0,0.0,0.0,0.0,0.0,0.0,0.0,0.0,0.0,0.0,0.0,0.0,0.0,0.0,-1.8998,-1.9679,-2.0668,-2.0641,-2.0708,0.0,0.0,0.0,0.0,0.0,0.0,0.0,0.0,0.0,-2.4569,-2.4983,-2.4456,-2.2815,-2.4455,-2.3457,-2.0271,-2.1766,-2.1821,-2.0587,-1.94,-1.8379,-1.7181,-1.6074,-1.5709,-1.6235,-1.7034,-1.7966,-1.8827,0.0,0.0,0.0,0.0,0.0,-1.9333,0.0,0.0,0.0,0.0,0.0,0.0,0.0,0.0,0.0,0.0,0.0,0.0,-1.3346,-1.4376,-1.5204,-1.5498,-1.6192,-1.6259,-1.5458,-1.5952,-1.6019,0.0,0.0,0.0,0.0,0.0,0.0,0.0,-1.2169,-1.1955,-1.1124,-1.1307,-1.1375,-1.1335,-1.1335,-1.1866,-1.2812,-1.2372,-1.2364,0.0,0.0,0.0,0.0,0.0,0.0,0.0,0.0,0.0,0.0,0.0,0.0,0.0,0.0,0.0,0.0,0.0,0.0,0.0,0.0,0.0,0.0,0.0,0.0,0.0,0.0,0.0,0.0,0.0,0.0,0.0,0.0,0.0,0.0,0.0,0.0,0.0,0.0,-1.992,-2.0628,-2.1857,-2.2004,-2.2124,0.0,0.0,0.0,0.0,0.0,0.0,-2.4315,-2.3927,-2.4224,-2.5281,-2.4895,-2.3985,-2.3047,-2.4887,-2.4162,-2.0894,-2.2714,-2.2267,-2.0171,-1.9129,-1.7907,-1.6687,-1.5861,-1.4998,-1.4606,-1.5592,-1.6229,-1.6961,-1.8486,-1.9221,-1.9637,-1.856,-1.8627,-1.917,0.0,0.0,0.0,0.0,0.0,0.0,0.0,0.0,0.0,0.0,0.0,-1.3895,-1.4763,-1.5899,-1.6714,-1.7021,-1.7328,-1.7261,-1.666,-1.7168,-1.7235,-1.6647,0.0,0.0,0.0,0.0,0.0,-1.1996,-1.1812,-1.1572,-1.1592,-1.1884,-1.1938,-1.1796,-1.1796,-1.1457,-1.098,-1.0534,-1.1307,-1.2598,0.0,0.0,0.0,0.0,0.0,0.0,0.0,0.0,0.0,0.0,0.0,0.0,0.0,0.0,0.0,0.0,0.0,0.0,0.0,0.0,0.0,0.0,0.0,0.0,0.0,0.0,0.0,0.0,0.0,0.0,0.0,0.0,0.0,0.0,0.0,0.0,0.0,0.0,0.0,-2.326,-2.3955,0.0,0.0,0.0,0.0,-2.5291,-2.5117,-2.5237,-2.5812,-2.3622,-2.2875,-2.3657,-2.1726,-2.0657,-2.1027,-2.1465,-2.1567,-2.1353,-2.1977,-2.0947,-1.8647,-2.0788,-1.9186,-1.4901,-1.7214,-1.6926,-1.4916,-1.4771,-1.5779,-1.7372,-1.7355,-1.8622,-2.0007,-1.8131,-1.8885,-2.0673,0.0,0.0,0.0,-0.9137,-0.9486,-0.9886,-1.0537,-1.1129,-1.173,-1.2238,-1.3574,-1.475,-1.5444,-1.6914,-1.805,-1.8531,-1.9185,-1.9252,-1.8477,-1.8958,-1.8865,-1.7903,0.0,0.0,0.0,0.0,-1.2718,-1.1661,-1.1646,-1.1755,-1.1762,-1.1965,-1.2033,-1.1979,-1.1979,-1.1864,-1.1633,-1.1185,-1.1184,-1.1534,-1.202,-1.2534,0.0,0.0,0.0,0.0,0.0,0.0,0.0,0.0,0.0,0.0,0.0,0.0,0.0,0.0,0.0,0.0,0.0,0.0,0.0,0.0,0.0,0.0,0.0,0.0,0.0,0.0,0.0,0.0,0.0,0.0,0.0,0.0,0.0,0.0,0.0,0.0,0.0,-2.3581,-2.4222,0.0,-2.5304,-2.5264,-2.5438,-2.6026,-2.6333,-2.6667,-2.7054,-2.6605,-2.644,-2.6732,-2.4741,-2.3642,-2.3805,-2.2538,-2.1035,-1.9545,-1.9816,-1.8668,-1.6302,-1.7219,-1.6672,-1.5025,-1.5996,-1.5839,-1.5099,-1.4991,-1.5455,-1.5949,-1.5949,-1.6453,-1.6946,-1.6286,-1.6491,-1.7254,0.0,0.0,0.0,-0.9352,-0.9713,-1.018,-1.0755,-1.1516,-1.2265,-1.2959,-1.4509,-1.5858,-1.6647,-1.8223,-1.9386,-1.9773,-2.0521,-2.0561,-1.9573,-2.0054,-1.9907,-1.8838,0.0,0.0,0.0,-1.2954,-1.2528,-1.1619,-1.1864,-1.1986,-1.1993,-1.2142,-1.2237,-1.2284,-1.2284,-1.2284,-1.2264,-1.1918,-1.1592,-1.1294,-1.206,-1.2266,-1.218,0.0,0.0,0.0,0.0,0.0,0.0,0.0,0.0,0.0,0.0,0.0,0.0,0.0,0.0,0.0,0.0,0.0,0.0,0.0,0.0,0.0,0.0,0.0,0.0,0.0,0.0,0.0,0.0,0.0,0.0,0.0,0.0,0.0,0.0,0.0,-2.3647,-2.4155,-2.481,-2.5411,-2.5905,-2.5959,-2.6239,-2.6934,-2.7348,-2.739,-2.6914,-2.7401,-2.7296,-2.6399,-2.531,-2.4867,-2.5583,-2.338,-2.1846,-2.0866,-2.0529,-1.8998,-1.6641,-1.6641,-1.6052,-1.5262,-1.5364,-1.535,-1.5269,-1.5371,-1.5411,-1.5391,-1.5242,-1.5181,-1.5181,-1.5181,-1.5772,-1.6582,0.0,0.0,-0.9686,-0.9686,-1.0167,-1.0755,-1.1329,-1.1931,-1.2852,-1.4322,-1.5805,-1.7181,-1.837,-1.98,-2.0681,-2.0695,-2.1216,-2.1069,-1.9907,-2.0388,-2.0334,-1.9362,0.0,0.0,-1.3743,-1.3636,-1.3054,-1.2074,-1.2237,-1.2318,-1.2318,-1.2461,-1.261,-1.2745,-1.2745,-1.2739,-1.2725,-1.2576,-1.2352,-1.204,-1.1436,-1.1905,-1.3019,0.0,0.0,0.0,0.0,0.0,0.0,0.0,0.0,0.0,0.0,0.0,0.0,0.0,0.0,0.0,0.0,0.0,0.0,0.0,0.0,0.0,0.0,0.0,0.0,0.0,0.0,0.0,0.0,0.0,0.0,0.0,0.0,0.0,-2.3861,-2.4302,-2.4783,-2.5104,-2.5879,-2.652,-2.6827,-2.6867,-2.7228,-2.8123,-2.819,-2.7393,-2.5642,-2.5724,-2.4767,-2.2382,-2.2657,-2.3793,-2.5507,-2.3793,-2.3725,-2.5707,-2.354,-2.1329,-1.9254,-1.9246,-1.7826,-1.5438,-1.573,-1.5689,-1.5452,-1.5744,-1.5859,-1.5818,-1.5377,-1.5201,-1.5201,-1.5201,-1.6785,-1.8995,-0.974,-0.9686,-0.9686,-0.9686,-1.0167,-1.0755,-1.1329,-1.2104,-1.308,-1.4349,-1.5979,-1.7475,-1.8677,-1.992,-2.0762,-2.0975,-2.1336,-2.1229,-2.0481,-2.1176,-2.032,0.0,0.0,0.0,-1.2251,-1.2557,-1.2705,-1.2379,-1.2752,-1.2929,-1.2935,-1.3085,-1.3119,-1.3051,-1.3051,-1.2996,-1.2895,-1.2854,-1.2786,-1.2664,-1.2054,-1.1879,-1.181,0.0,0.0,0.0,0.0,0.0,0.0,0.0,0.0,0.0,0.0,0.0,0.0,0.0,0.0,0.0,0.0,0.0,0.0,0.0,0.0,0.0,0.0,0.0,0.0,0.0,0.0,0.0,0.0,0.0,0.0,0.0,0.0,-2.513,-2.505,-2.517,-2.5531,-2.6253,-2.6373,-2.676,-2.7682,-2.7776,-2.815,-2.9045,-2.9112,-2.8921,-2.8743,-2.8655,-2.7671,-2.4935,-2.3567,-2.2192,-2.0814,-1.8922,-1.8198,-1.8712,-1.8005,-1.7479,-1.6753,-1.6637,-1.6243,-1.5737,-1.5818,-1.5872,-1.5906,-1.5988,-1.6022,-1.5995,-1.5764,-1.5669,-1.5669,-1.5669,-1.6008,-1.6529,-0.9927,-0.9967,-1.0007,-0.9886,-1.0448,-1.1035,-1.1369,-1.2291,-1.3454,-1.4883,-1.6393,-1.7876,-1.9319,-2.0307,-2.0711,-2.0093,-2.0939,-2.0961,-1.9726,-2.0241,-1.9148,0.0,0.0,-1.3421,-1.2081,-1.2542,-1.2779,-1.2779,-1.3112,-1.3268,-1.3268,-1.3356,-1.3417,-1.3451,-1.339,-1.3315,-1.3234,-1.3173,-1.3071,-1.2929,-1.2583,-1.2169,-1.1762,-1.1721,-1.1362,-1.0867,-1.0826,-1.1283,-1.208,-1.2515,0.0,0.0,0.0,0.0,0.0,0.0,0.0,0.0,0.0,0.0,0.0,0.0,0.0,0.0,0.0,0.0,0.0,0.0,0.0,0.0,0.0,0.0,0.0,0.0,-2.4881,-2.5097,-2.6573,-2.5568,-2.5263,-2.7105,-2.6384,-2.5969,-2.6853,-2.7984,-2.8432,-2.7978,-2.8942,-2.8743,-2.7111,-2.7863,-2.6917,-2.3373,-2.3065,-2.2202,-2.0591,-1.848,-1.7359,-1.7501,-1.6532,-1.6015,-1.613,-1.6049,-1.6022,0.0,-1.6042,-1.6022,-1.5988,-1.5988,-1.6022,0.0,0.0,0.0,0.0,0.0,-1.59,-1.5832,-1.018,-1.0354,-1.0461,-1.0167,-1.0848,-1.1423,-1.1423,-1.2438,-1.3841,-1.5605,-1.6847,-1.8263,-2.004,-2.0762,-2.0438,-1.8876,-2.0234,-2.0374,-1.8512,-1.8327,0.0,-1.4496,-1.47,-1.4129,-1.2752,-1.3044,-1.32,-1.32,-1.3383,-1.3485,-1.3505,-1.3519,-1.3668,-1.3912,-1.3783,-1.3722,-1.3695,-1.3559,-1.3342,-1.3085,-1.3051,-1.2766,-1.2338,-1.206,-1.1775,-1.1484,-1.1219,-1.1111,-1.1228,-1.2663,0.0,0.0,0.0,0.0,0.0,0.0,0.0,0.0,0.0,0.0,0.0,0.0,0.0,0.0,0.0,0.0,0.0,0.0,0.0,0.0,0.0,0.0,0.0,0.0,-2.448,-2.4697,-2.78,-2.5359,-2.4507,-2.7812,-2.6128,-2.4937,-2.563,-2.7473,-2.7775,-2.6056,-2.789,-2.7182,-2.3004,0.0,0.0,0.0,0.0,-2.2645,-2.2077,-2.0063,-1.9303,-1.9437,-1.7084,-1.6252,-1.6524,-1.6503,-1.6449,-1.6361,-1.6361,-1.6218,-1.5981,-1.5981,-1.6062,-1.6178,-1.613,-1.6022,-1.592,-1.6035,-1.6069,0.0,-1.018,-1.0354,-1.0461,-1.0167,-1.0848,-1.1423,-1.1423,-1.2438,-1.3841,-1.5605,-1.6847,-1.8263,-2.004,-2.0762,-2.0438,-1.8876,-2.0234,-2.0618,-1.9259,0.0,-1.5087,-1.506,-1.3796,-1.3068,-1.2915,-1.3207,-1.3356,-1.3356,-1.3749,-1.4007,-1.4129,-1.4245,-1.4326,-1.438,-1.4353,-1.4278,-1.417,-1.4143,-1.4021,-1.3838,-1.3593,-1.3234,-1.2827,-1.2766,-1.2556,-1.2277,-1.2223,-1.2128,-1.1993,-1.2025,-1.2065,-1.2309,-1.3742,-1.4475,0.0,0.0,0.0,0.0,0.0,0.0,0.0,0.0,0.0,0.0,0.0,0.0,0.0,0.0,0.0,0.0,0.0,0.0,0.0,-2.4008,-2.4291,-2.4902,-2.5862,-2.3808,-2.3905,-2.8312,-2.6525,-2.5892,-2.8432,-2.7219,-2.6426,-2.6136,-2.6521,-2.565,-2.28,-2.2984,0.0,-1.8972,-1.9647,-1.9046,-1.6965,-1.6969,-1.6999,-1.7056,0.0,0.0,-1.6517,-1.6402,-1.6463,-1.6666,-1.6666,-1.67,-1.6761,-1.6761,-1.6781,-1.6768,-1.6408,-1.6246,-1.6212,-1.6117,-1.6001,-1.59,-1.0305,-1.0524,-1.0577,-1.0367,-1.0942,-1.1423,-1.1423,-1.2438,-1.3681,-1.5003,-1.6192,-1.7435,-1.8758,-1.9573,-1.9447,-1.7964,-1.8337,-1.8438,0.0,-1.5913,-1.4438,-1.4109,-1.3422,-1.3105,-1.318,-1.3471,-1.362,-1.362,-1.4,-1.4265,-1.4407,-1.4475,-1.4597,-1.474,-1.4658,-1.4584,-1.4516,-1.4441,-1.4278,-1.4061,-1.3912,-1.3668,-1.337,-1.3071,-1.2868,-1.2718,-1.2644,-1.2569,-1.2474,-1.2244,-1.2169,-1.2313,-1.3057,-1.3831,-1.4907,0.0,0.0,0.0,0.0,0.0,0.0,0.0,0.0,0.0,0.0,0.0,0.0,0.0,0.0,-2.1435,-2.2326,0.0,-2.4205,-2.4473,-2.3883,-2.4141,-2.5803,-2.2837,-2.2182,-2.6753,-2.5171,-2.3807,-2.4168,-2.5308,-2.4992,-2.2719,-2.3762,-2.3509,-2.102,-2.0925,-1.9889,-1.7528,-1.7418,-1.6933,-1.5859,-1.6083,-1.6273,-1.6415,-1.649,-1.6605,-1.6748,-1.668,-1.6727,-1.6863,-1.6781,-1.6795,-1.6863,-1.6863,-1.6863,-1.6849,-1.67,-1.6646,-1.6625,-1.6469,-1.6368,-1.63,-1.0428,-1.0618,-1.0618,-1.0618,-1.1035,-1.1423,-1.1423,-1.2398,-1.3454,-1.4402,-1.5444,-1.65,-1.7555,-1.837,-1.8454,-1.7399,-1.6353,-1.5913,0.0,-1.5163,-1.4213,-1.3109,-1.3247,-1.3403,-1.3403,-1.3688,-1.3838,-1.3838,-1.415,-1.4373,-1.4509,-1.4543,-1.4706,-1.497,-1.4869,-1.4828,-1.4814,-1.4692,-1.4468,-1.4197,-1.417,-1.4048,-1.3831,-1.3322,-1.3098,-1.3037,-1.2935,-1.2847,-1.2759,-1.2664,-1.261,-1.2617,-1.2766,-1.3574,-1.4814,-1.6204,-1.7077,0.0,0.0,0.0,0.0,0.0,0.0,0.0,0.0,0.0,-2.0917,-2.0889,-2.0005,-2.011,-2.2124,-2.2987,-2.372,-2.4719,-2.2955,-2.2465,-2.4877,-2.1615,-2.0326,-2.3954,-2.2826,-2.1096,-1.9825,-2.28,-2.3168,-1.9294,-2.0955,-2.115,-1.8671,-1.8649,-1.8036,-1.6035,-1.5974,-1.6001,-1.6123,-1.6151,-1.6286,-1.6524,-1.6646,-1.6788,-1.6937,-1.6937,-1.6951,-1.6971,-1.6849,-1.6795,-1.6795,-1.6795,-1.6795,-1.6809,-1.6931,-1.6978,-1.6965,-1.6842,-1.6775,-1.6748,-1.0428,-1.0618,-1.0618,-1.0618,-1.1035,-1.1423,-1.1423,-1.2211,-1.3213,-1.4362,-1.5084,-1.6139,-1.7809,-1.8317,-1.8552,-1.8643,-1.6075,0.0,-1.5548,-1.3972,-1.2937,-1.2956,-1.3247,-1.3403,-1.3403,-1.3688,-1.3838,-1.3838,-1.415,-1.4373,-1.4516,-1.4652,-1.4808,-1.4977,-1.5086,-1.5133,-1.5133,-1.5113,-1.4936,-1.4652,-1.4516,-1.4292,-1.4021,-1.3817,-1.358,-1.337,-1.3485,-1.3275,-1.2949,-1.3064,-1.3017,-1.2935,-1.3078,-1.326,-1.3646,-1.5031,-1.6934,-1.8785,-1.9949,-2.0455,0.0,-1.687,-1.7381,-1.8012,0.0,0.0,-1.6601,-1.5265,-1.68,-1.9007,-2.1625,-2.0629,-2.0105,-2.2727,-2.1123,-1.9475,-1.9894,-1.9509,-1.9236,-1.9595,-1.9384,-2.0019,-2.2074,-2.0796,-1.968,-1.9116,-1.9483,-1.8655,-1.6208,-1.6161,-1.6251,-1.5879,-1.6123,-1.6266,-1.6286,-1.6408,-1.649,-1.6524,-1.6537,-1.6625,-1.6775,-1.6775,-1.6849,-1.6978,-1.6965,-1.6951,-1.6951,-1.6951,-1.6951,-1.6958,-1.6971,-1.6978,-1.6978,-1.6958,-1.687,-1.6748,-1.0301,-1.0618,-1.0618,-1.0618,-1.1035,-1.1423,-1.1423,-1.2171,-1.2986,-1.3667,-1.4269,-1.511,-1.6366,-1.7382,-1.8156,-1.8637,-1.6308,-1.5125,-1.5644,-1.3699,-1.2623,-1.2949,-1.3078,-1.3227,-1.3397,-1.3688,-1.3838,-1.3838,-1.415,-1.4373,-1.4516,-1.4577,-1.4692,-1.4841,-1.4896,-1.4923,-1.4923,-1.4923,-1.4801,-1.4604,-1.4536,-1.4387,-1.4197,-1.4129,-1.3973,-1.3743,-1.337,-1.3119,0.0,-1.2922,-1.2874,-1.2901,-1.3308,-1.3315,-1.345,-1.4963,-1.5431,-1.5688,-1.641,0.0,0.0,0.0,-1.6923,-1.7191,-1.5987,-1.6323,-1.6836,-1.6502,-1.6484,-1.7102,-1.9715,-1.9506,-1.9449,0.0,-1.995,-1.9353,-1.9463,-1.797,-1.6957,-1.7076,-1.6919,-1.72,-1.8395,-1.8773,-1.8444,-1.7237,-1.7203,-1.6911,-1.5764,-1.5988,-1.6117,-1.6117,-1.632,-1.6435,-1.6435,-1.6578,-1.6653,-1.6653,-1.6748,-1.6822,-1.6883,-1.6883,-1.6917,-1.6978,-1.6978,-1.6978,-1.6978,-1.6978,-1.7032,-1.7107,-1.7107,-1.7161,-1.7216,-1.7046,-1.6937,-1.6883,-1.0238,-1.0618,-1.0618,-1.0618,-1.1035,-1.1423,-1.1423,-1.2104,-1.2732,-1.3039,-1.3534,-1.4242,-1.5284,-1.67,-1.7729,-1.809,-1.6691,-1.5703,-1.5623,-1.3818,-1.2775,-1.2813,-1.2956,-1.3119,-1.3336,-1.3627,-1.3804,-1.3838,-1.4109,-1.4312,-1.4455,-1.4496,-1.457,-1.4679,-1.4719,-1.474,-1.474,-1.474,-1.4652,-1.4509,-1.4509,-1.4428,-1.4299,-1.4299,-1.4177,-1.3939,-1.3397,-1.3152,-1.3064,-1.2956,-1.2861,-1.2874,-1.3356,-1.3349,-1.3471,-1.4639,-1.4562,-1.4124,-1.4513,0.0,0.0,-1.5887,-1.6191,-1.6254,-1.6467,-1.664,-1.6845,-1.7333,-1.6131,-1.596,-1.8518,-1.8533,-1.856,-1.975,-1.906,-1.8391,-1.8665,-1.6787,-1.5581,-1.5716,-1.5615,-1.5533,-1.5533,-1.723,-1.7474,-1.5883,-1.5872,-1.5981,-1.5981,-1.6225,-1.6368,-1.6368,-1.651,-1.6585,-1.6585,-1.6734,-1.6815,-1.6815,-1.6931,-1.6978,-1.6978,-1.6978,-1.7005,-1.7039,-1.7039,-1.7066,-1.71,-1.706,-1.71,-1.7188,-1.7148,-1.7202,-1.727,-1.706,-1.7032,-1.71,-1.0238,-1.0618,-1.0618,-1.0618,-1.1035,-1.1423,-1.1423,-1.1931,-1.2425,-1.2795,-1.3039,-1.3788,-1.5244,-1.67,-1.7475,-1.7208,-1.7061,-1.6374,-1.4954,-1.4225,-1.3344,-1.2488,-1.2935,-1.3173,-1.318,-1.3478,-1.3702,-1.3838,-1.4,-1.4156,-1.4306,-1.4448,-1.4516,-1.4523,-1.4672,-1.474,-1.474,-1.474,-1.4652,-1.4509,-1.4509,-1.4428,-1.4299,-1.4299,-1.4109,-1.3844,-1.3824,-1.3627,-1.339,-1.3383,-1.3193,-1.2983,-1.3139,-1.318,-1.3173,-1.3329,-1.4727,-1.6361,-1.6551,-1.6812,-1.6689,-1.4801,-1.4792,-1.5073,-1.4753,-1.5018,-1.5176,-1.5327,-1.5174,-1.6059,-1.9204,-1.7642,-1.6688,-1.9519,-1.769,-1.5993,-1.5662,-1.5757,-1.5737,-1.5459,-1.5669,-1.5839,0.0,-1.6035,-1.6035,-1.5845,-1.6123,-1.6293,-1.6293,-1.6435,-1.6517,-1.6517,-1.6666,-1.6741,-1.6741,-1.6897,-1.6971,-1.6971,-1.6978,-1.6978,-1.6978,-1.6978,-1.706,-1.7182,-1.7182,-1.727,-1.7399,-1.7249,-1.7188,-1.7175,-1.7039,-1.6992,-1.6992,-1.6985,-1.7161,-1.7385,-0.9524,-1.0174,-1.0618,-1.0618,-1.1035,-1.1423,-1.1423,-1.1931,-1.2412,-1.2782,-1.352,0.0,0.0,0.0,0.0,0.0,-1.6066,-1.5736,-1.5515,-1.3958,-1.3261,-1.3489,-1.2852,-1.2773,-1.3166,-1.337,-1.3553,-1.3702,-1.3844,-1.3994,-1.415,-1.4197,-1.4272,-1.4373,-1.4428,-1.4448,-1.4448,-1.4448,-1.4421,-1.4373,-1.4373,-1.4285,-1.415,-1.415,-1.4021,-1.3817,0.0,-1.3356,-1.3125,-1.322,-1.3186,-1.318,-1.3627,-1.3634,-1.3492,-1.3587,-1.4372,-1.5228,-1.5505,-1.5694,-1.5694,-1.5169,-1.5147,-1.5248,-1.5194,-1.5303,-1.5425,-1.5479,-1.5486,-1.6323,-1.927,-1.7463,-1.6501,-1.9527,-1.7509,-1.5615,-1.5764,-1.5655,-1.5594,-1.5689,-1.5791,0.0,0.0,0.0,0.0,-1.6151,-1.6341,-1.6449,-1.6449,-1.6592,-1.6673,-1.6673,-1.6822,-1.6904,-1.6904,-1.6951,-1.6978,-1.6985,-1.7073,-1.7121,-1.7121,-1.7121,-1.7093,-1.7053,-1.7053,-1.708,-1.7127,-1.7073,-1.7107,-1.7188,-1.7141,-1.7182,-1.7263,-1.7161,-1.7249,-1.7385,-0.9139,-0.9983,-1.0658,-1.0766,-1.1102,0.0,0.0,0.0,0.0,0.0,0.0,0.0,0.0,0.0,0.0,0.0,0.0,-1.5564,-1.5693,-1.4479,-1.3958,-1.4113,-1.329,-1.2885,-1.3288,-1.3158,-1.3078,-1.3227,-1.3478,-1.3682,-1.3838,-1.3939,-1.4041,-1.4136,-1.4136,-1.4163,-1.4217,-1.4217,-1.4217,-1.4211,-1.4156,-1.4014,-1.3824,-1.377,-1.362,0.0,-1.3349,-1.3166,-1.2983,-1.3125,-1.3105,-1.3112,-1.3661,-1.3736,-1.3688,-1.3994,-1.4251,-1.4516,-1.4875,-1.5052,-1.5174,-1.5364,-1.5493,-1.5554,-1.5506,-1.5608,-1.5716,-1.5716,-1.5757,-1.6419,-1.8128,-1.7013,-1.6391,-1.8259,-1.6984,-1.5615,-1.5757,-1.5703,-1.5683,-1.5764,-1.5872,-1.6035,0.0,0.0,0.0,-1.6381,-1.6524,-1.6605,-1.6605,-1.6748,-1.6829,-1.6829,-1.6931,-1.6978,-1.6978,-1.6978,-1.6978,-1.6985,-1.7073,-1.7114,-1.7114,-1.7114,-1.7127,-1.7134,-1.7134,-1.7195,-1.729,-1.7243,-1.727,-1.7351,-1.7297,-1.7331,-1.7405,-1.7311,-1.7338,-1.7392,-0.9075,-0.9983,-1.0675,0.0,0.0,0.0,0.0,0.0,0.0,0.0,0.0,0.0,0.0,0.0,0.0,0.0,0.0,0.0,-1.5332,-1.5659,0.0,-1.4566,-1.3996,-1.3694,-1.3604,-1.2823,-1.2471,-1.2481,-1.2915,-1.3207,-1.3363,-1.3648,-1.379,-1.3797,-1.3797,-1.3878,-1.4014,-1.4014,-1.4014,-1.4,-1.3858,-1.362,-1.3349,-1.3207,-1.2969,-1.2752,-1.3037,-1.3051,-1.2963,-1.3112,-1.299,-1.2854,-1.3308,-1.3566,-1.3817,-1.438,-1.4462,-1.4462,-1.4896,-1.5221,-1.5438,-1.5445,-1.5655,-1.5832,-1.5689,-1.5757,-1.5852,-1.5866,-1.5967,-1.611,0.0,0.0,-1.5934,-1.6453,-1.6234,-1.5784,-1.5655,-1.5886,-1.5961,0.0,0.0,0.0,0.0,0.0,0.0,-1.6544,0.0,-1.6761,-1.6761,-1.6904,-1.6978,-1.6978,-1.6985,-1.6992,-1.6992,-1.6992,-1.6992,-1.6992,-1.6998,-1.7005,-1.7005,-1.7012,-1.7161,-1.7419,-1.7419,-1.7582,-1.7826,-1.7684,-1.7629,-1.7623,-1.7473,-1.7419,-1.7419,-1.7419,-1.7419,-1.7419,0.0,0.0,0.0,0.0,0.0,0.0,0.0,0.0,0.0,0.0,0.0,0.0,0.0,0.0,0.0,0.0,0.0,0.0,-1.5959,-1.5435,0.0,0.0,0.0,0.0,-1.3587,-1.3365,-1.2947,-1.2176,-1.2406,-1.2589,-1.2732,-1.2922,-1.3071,-1.3186,-1.3186,-1.3207,-1.3247,-1.3247,-1.3247,-1.3241,-1.32,-1.3071,-1.2895,-1.2854,-1.2725,-1.2569,-1.2644,-1.2651,-1.2657,-1.2929,-1.3186,-1.3478,-1.3933,-1.4401,-1.4814,-1.497,-1.5147,-1.5343,-1.5567,-1.5683,-1.5771,-1.5879,-1.5967,-1.6015,-1.5974,-1.5906,-1.5886,-1.6001,-1.5879,-1.6447,0.0,0.0,0.0,-1.8781,-1.7216,0.0,-1.5628,-1.5798,0.0,-1.5662,0.0,-1.6307,-1.6456,-1.6605,0.0,0.0,-1.6897,-1.6924,-1.6924,-1.6958,-1.6978,-1.6978,-1.708,-1.7141,-1.7141,-1.7141,-1.7141,-1.7141,-1.7256,-1.7311,-1.7311,-1.7426,-1.746,-1.7419,-1.7419,-1.746,-1.7528,-1.7494,-1.748,-1.7473,-1.7439,-1.7419,-1.7419,-1.7419,-1.7419,-1.7439,0.0,0.0,0.0,0.0,0.0,0.0,0.0,0.0,0.0,0.0,0.0,0.0,0.0,0.0,0.0,0.0,0.0,0.0,0.0,-1.557,0.0,0.0,0.0,-1.4377,-1.3559,-1.3252,-1.2496,-1.128,-1.1694,-1.1904,-1.1925,-1.2271,-1.2522,-1.2664,-1.2664,-1.2739,-1.2861,-1.2861,-1.2861,0.0,0.0,-1.263,-1.2427,-1.2359,-1.2284,-1.2216,-1.2284,-1.2393,-1.2556,-1.2929,-1.3397,-1.3878,-1.4197,-1.4665,-1.5113,-1.5242,-1.5404,-1.5574,-1.5716,-1.5805,-1.5872,-1.5961,-1.6035,-1.6083,-1.6083,-1.6015,-1.5995,-1.6151,-1.6049,-1.6439,-1.8225,-1.6983,0.0,0.0,0.0,0.0,-1.5628,-1.5818,-1.59,0.0,-1.6076,0.0,-1.651,-1.6659,-1.6815,0.0,-1.6978,-1.6978,-1.6978,-1.6978,-1.7012,-1.7073,-1.7087,-1.71,-1.71,-1.71,-1.71,-1.71,-1.7188,-1.7263,-1.7324,-1.7412,-1.7473,-1.7521,0.0,-1.7555,-1.7616,-1.7616,-1.7616,-1.7616,-1.7616,-1.7616,-1.7616,-1.7616,-1.7616,-1.7629,0.0,0.0,0.0,0.0,0.0,0.0,0.0,0.0,0.0,-1.305,-1.2997,-1.3066,-1.3587,-1.3681,0.0,0.0,0.0,0.0,0.0,0.0,0.0,0.0,-1.5756,-1.4976,-1.3718,-1.2982,-1.1908,-1.0468,-1.1063,-1.1206,-1.1084,-1.1653,-1.1986,-1.2115,-1.2128,-1.2284,-1.2522,-1.2522,-1.2522,-1.2508,-1.2359,-1.2142,-1.1898,0.0,-1.1708,-1.1762,-1.1918,-1.2162,-1.2481,-1.2956,-1.3526,-1.4075,-1.4292,-1.4679,-1.5113,-1.5364,-1.5438,-1.5479,-1.5649,-1.5757,-1.5832,-1.5872,-1.5981,-1.6083,-1.6083,-1.6083,-1.6123,-1.6279,-1.6293,-1.6368,-1.6666,-1.6232,-1.5927,-1.6232,0.0,-1.5642,-1.5642,-1.5913,-1.6056,-1.59,-1.6191,-1.6435,-1.6544,-1.6707,-1.6863,-1.6998,-1.7012,-1.7012,-1.7012,-1.7026,-1.7093,-1.7216,-1.708,-1.7012,-1.7012,-1.7012,-1.7012,-1.7012,-1.7032,-1.7114,-1.7256,-1.727,-1.7426,-1.7684,0.0,0.0,-1.786,-1.786,-1.786,-1.786,-1.786,-1.786,-1.786,-1.786,-1.786,-1.786,0.0,0.0,0.0,0.0,0.0,0.0,0.0,0.0,0.0,0.0,-1.3788,-1.3534,-1.3546,-1.3868,0.0,0.0,0.0,0.0,0.0,0.0,0.0,-1.6246,-1.6163,-1.5679,-1.4775,-1.3778,-1.2704,-1.159,-1.0913,-1.0636,-1.0616,-1.0975,-1.1158,-1.1185,-1.1307,-1.1389,-1.1436,-1.1436,-1.1436,-1.1423,-1.1274,-1.1185,-1.1124,-1.0968,0.0,0.0,-1.145,-1.1694,0.0,0.0,-1.3288,-1.3973,-1.4496,-1.5059,-1.5533,-1.5588,-1.5601,-1.5655,-1.5934,-1.5845,-1.5737,-1.5981,-1.6062,-1.6083,-1.6083,-1.6083,-1.6123,-1.6279,-1.6212,-1.6212,-1.651,-1.6076,-1.5771,-1.6069,-1.5852,-1.5642,-1.5642,-1.6001,-1.6212,0.0,-1.653,-1.6822,0.0,0.0,0.0,0.0,0.0,-1.7154,-1.7154,-1.7277,-1.7358,-1.7378,-1.7236,-1.7154,-1.7154,-1.7154,-1.7154,-1.7154,-1.7283,-1.7426,-1.7575,-1.7684,-1.7772,-1.7826,-1.7826,0.0,-1.786,-1.786,-1.786,-1.786,-1.786,-1.786,-1.786,-1.786,-1.786,-1.786,0.0,0.0,0.0,0.0,0.0,0.0,0.0,-1.3788,-1.4269,-1.5297,-1.5057,-1.4669,-1.4362,-1.4188,-1.4148,0.0,0.0,0.0,0.0,0.0,0.0,0.0,0.0,-1.5579,-1.4688,-1.4319,-1.3187,-1.1272,0.0,-1.0594,-0.9802,-1.0181,-1.0446,-1.0602,-1.0588,-1.067,-1.0812,-1.0812,-1.0812,-1.0812,-1.0826,-1.0826,-1.0819,0.0,0.0,0.0,0.0,0.0,0.0,0.0,-1.2874,-1.3641,-1.4475,-1.5153,-1.5622,-1.5547,-1.5628,-1.5764,-1.5832,-1.5805,-1.5784,-1.5927,-1.6083,-1.6157,-1.6001,-1.6022,-1.6083,-1.6076,-1.5954,-1.594,-1.6239,0.0,0.0,-1.5825,-1.5798,-1.5723,-1.5649,-1.6029,-1.6279,-1.6212,-1.6659,-1.6951,0.0,0.0,0.0,0.0,0.0,-1.7195,-1.7195,-1.7263,-1.727,-1.7195,-1.7195,-1.7154,-1.708,-1.7154,-1.7195,-1.7195,-1.7344,-1.75,-1.765,-1.7717,-1.7792,-1.786,-1.786,0.0,-1.786,-1.786,-1.786,-1.786,-1.786,-1.786,-1.786,-1.786,-1.786,-1.786,0.0,0.0,0.0,0.0,0.0,0.0,0.0,-1.4589,-1.511,-1.6219,-1.6112,-1.5725,-1.5204,-1.4629,-1.4229,0.0,0.0,0.0,0.0,0.0,0.0,0.0,0.0,-1.539,-1.4683,0.0,0.0,-1.1089,-1.1176,0.0,0.0,0.0,0.0,0.0,-1.0039,-1.0127,-1.0351,-1.0351,-1.0351,0.0,0.0,-1.05,0.0,0.0,0.0,0.0,0.0,0.0,0.0,0.0,-1.2515,-1.3247,-1.4238,-1.4957,-1.5432,-1.5377,-1.5527,-1.571,-1.5689,-1.5744,-1.5811,-1.5845,-1.6056,-1.6191,-1.5913,-1.5967,-1.6035,-1.5886,-1.5764,-1.5757,-1.5988,0.0,-1.5642,0.0,-1.5737,-1.5778,-1.5696,-1.6042,-1.632,-1.6354,-1.6781,0.0,-1.7032,0.0,0.0,0.0,0.0,0.0,-1.7243,-1.7209,-1.7141,-1.7032,-1.7107,-1.7107,-1.7026,-1.7134,-1.7222,-1.729,-1.7412,-1.7548,-1.7704,-1.7704,-1.7758,-1.786,-1.786,0.0,0.0,-1.786,-1.786,-1.786,-1.786,-1.786,-1.786,-1.786,-1.786,-1.786,0.0,0.0,0.0,0.0,0.0,0.0,0.0,-1.4803,-1.5645,-1.654,-1.6406,-1.6112,-1.5792,-1.5231,-1.4669,0.0,0.0,0.0,0.0,0.0,0.0,0.0,0.0,0.0,0.0,0.0,0.0,-1.2226,-1.1388,0.0,0.0,0.0,0.0,0.0,0.0,-0.9856,-0.9883,-0.9883,0.0,0.0,0.0,0.0,0.0,0.0,0.0,0.0,0.0,-1.0941,-1.1294,-1.187,-1.2379,-1.2908,-1.3682,-1.434,-1.4875,-1.5126,-1.5221,-1.533,-1.5723,-1.575,-1.5689,-1.5818,-1.5981,-1.6056,-1.5893,-1.5967,-1.6035,-1.5886,-1.5845,-1.5845,-1.5866,-1.5744,-1.5642,-1.5642,-1.5649,-1.5696,-1.5818,-1.611,-1.6361,-1.6483,0.0,0.0,-1.7188,-1.7311,0.0,0.0,0.0,0.0,-1.7392,-1.727,-1.7188,-1.7175,-1.706,-1.706,-1.7168,-1.7182,-1.7331,-1.7609,-1.7623,-1.7704,-1.7846,-1.7846,-1.7846,-1.786,-1.786,0.0,0.0,-1.786,-1.786,-1.786,-1.786,-1.786,-1.786,-1.786,-1.786,-1.786,0.0,0.0,0.0,0.0,0.0,0.0,-1.4469,-1.491,-1.5645,-1.7048,-1.682,-1.6486,-1.6366,-1.5832,-1.511,-1.4162,0.0,0.0,0.0,0.0,0.0,0.0,0.0,0.0,0.0,0.0,0.0,-1.2114,-1.1802,0.0,0.0,0.0,0.0,0.0,0.0,-0.934,-0.9415,-0.9415,0.0,0.0,0.0,0.0,0.0,0.0,0.0,0.0,0.0,0.0,-1.0989,-1.1592,-1.1972,-1.2318,-1.3078,-1.36,-1.4048,-1.4611,-1.497,-1.5221,-1.5404,-1.5608,-1.5784,-1.5839,-1.6035,-1.613,-1.5798,-1.5771,-1.5723,-1.5391,-1.5323,-1.5323,-1.5323,-1.5493,-1.5608,-1.5513,-1.573,-1.5927,-1.5981,-1.6327,-1.6592,-1.6653,-1.7188,0.0,0.0,0.0,0.0,0.0,0.0,0.0,-1.7154,-1.71,-1.7107,-1.7188,-1.7141,-1.7182,-1.7324,-1.7419,-1.7528,-1.765,-1.7738,-1.7812,-1.786,-1.786,-1.786,-1.786,-1.786,0.0,0.0,-1.786,-1.786,-1.786,-1.786,-1.786,-1.786,-1.786,-1.786,-1.786,0.0,0.0,0.0,0.0,0.0,-1.3209,-1.4549,-1.5003,-1.5658,-1.6901,-1.686,-1.6633,-1.646,-1.5925,-1.5244,-1.4416,-1.4188,0.0,0.0,0.0,0.0,0.0,0.0,0.0,0.0,0.0,0.0,-1.195,-1.1667,-1.0561,0.0,0.0,-0.8845,-0.9083,0.0,0.0,0.0,0.0,0.0,0.0,0.0,0.0,0.0,0.0,0.0,0.0,0.0,0.0,0.0,0.0,0.0,-1.1945,-1.2617,-1.303,-1.3424,-1.4217,-1.4672,-1.497,-1.5194,-1.5479,-1.5744,-1.5832,-1.5981,-1.6015,-1.5655,-1.5506,-1.5337,-1.4977,-1.4903,-1.4916,-1.4964,-1.5303,-1.5554,-1.5486,-1.5778,-1.6049,-1.6137,-1.6456,-1.6734,-1.6863,0.0,0.0,0.0,0.0,0.0,0.0,0.0,0.0,0.0,-1.7019,-1.7087,-1.7188,-1.7236,-1.7331,-1.7487,-1.7595,-1.767,-1.7717,-1.7812,-1.786,-1.786,-1.786,-1.786,-1.786,0.0,0.0,0.0,-1.786,-1.786,-1.786,-1.786,-1.786,-1.786,-1.786,-1.786,-1.786,0.0,0.0,0.0,0.0,0.0,0.0,-1.3833,-1.5084,-1.5832,-1.5845,-1.6353,-1.6486,-1.5899,-1.5324,-1.4963,-1.495,-1.4429,0.0,0.0,0.0,0.0,0.0,0.0,0.0,0.0,0.0,0.0,-1.195,-1.0771,-0.965,-0.8486,-0.8635,-0.8791,-0.894,0.0,0.0,0.0,0.0,0.0,0.0,0.0,0.0,0.0,0.0,0.0,0.0,0.0,0.0,0.0,0.0,0.0,0.0,0.0,-1.2718,-1.3146,-1.4041,-1.4306,-1.4468,-1.5208,-1.5411,-1.5486,-1.5778,-1.575,-1.5608,-1.5452,-1.5187,-1.4936,-1.4774,-1.474,-1.4787,-1.4943,-1.5215,-1.5459,-1.5615,-1.5757,-1.5961,-1.6266,-1.6429,-1.6686,0.0,0.0,0.0,0.0,0.0,0.0,0.0,0.0,0.0,-1.6978,-1.7114,-1.7188,-1.7195,-1.7338,-1.7494,-1.765,-1.765,-1.7717,-1.786,-1.786,-1.786,-1.786,-1.786,-1.786,0.0,0.0,0.0,0.0,-1.786,-1.786,-1.786,-1.786,-1.786,-1.786,-1.786,-1.786,-1.786,0.0,0.0,0.0,0.0,0.0,0.0,0.0,-1.4269,-1.4856,-1.5458,-1.5524,-1.5591,-1.5805,-1.5311,-1.4963,-1.4963,-1.4429,0.0,0.0,0.0,0.0,0.0,0.0,0.0,0.0,0.0,0.0,-1.2193,-1.1856,-1.0724,-0.8798,-0.8845,-0.8893,-0.894,-0.894,-0.894,0.0,0.0,0.0,0.0,0.0,0.0,0.0,0.0,0.0,0.0,0.0,0.0,0.0,0.0,0.0,0.0,0.0,0.0,0.0,-1.3634,-1.4061,-1.4394,-1.4835,-1.5099,-1.5276,-1.5371,-1.5357,-1.5289,-1.5147,-1.4957,-1.4767,-1.4618,-1.4665,-1.4753,-1.4801,-1.5228,-1.5581,-1.5635,-1.5934,-1.6198,-1.6293,-1.6612,0.0,0.0,0.0,0.0,0.0,0.0,0.0,0.0,0.0,0.0,-1.6978,-1.7216,-1.7351,-1.7351,-1.7494,-1.765,-1.7792,-1.7792,-1.7812,-1.786,-1.786,-1.786,-1.786,-1.786,-1.786,0.0,0.0,0.0,0.0,-1.786,-1.786,-1.786,-1.786,-1.786,-1.786,-1.786,-1.7935,-1.8023,0.0,0.0,0.0,0.0,0.0,0.0,0.0,-1.3921,-1.4402,-1.4843,-1.4843,-1.4977,-1.5444,-1.4977,-1.4723,-1.495,-1.4429,0.0,0.0,0.0,0.0,0.0,0.0,0.0,0.0,0.0,0.0,-1.2521,-1.2164,-1.1059,-0.9191,-0.9245,-0.9245,-0.9191,-0.9191,-0.913,0.0,0.0,0.0,0.0,0.0,0.0,-0.9395,0.0,0.0,0.0,0.0,0.0,0.0,0.0,0.0,0.0,0.0,0.0,0.0,0.0,-1.3695,-1.4075,-1.4597,-1.4875,-1.5045,-1.5153,-1.5099,-1.4991,-1.4903,-1.4767,-1.4624,-1.4529,-1.4631,-1.476,-1.4814,-1.5276,-1.5655,-1.571,-1.6096,-1.6408,-1.6469,0.0,0.0,0.0,0.0,0.0,0.0,0.0,0.0,0.0,0.0,0.0,-1.706,-1.729,-1.7446,-1.7507,-1.765,-1.7772,-1.786,-1.786,-1.786,-1.786,-1.786,-1.786,-1.786,-1.786,-1.786,0.0,0.0,0.0,0.0,-1.786,-1.786,-1.786,-1.786,-1.7901,-1.7948,-1.7948,-1.8036,-1.8179,0.0,0.0,0.0,0.0,0.0,0.0,0.0,-1.3921,-1.4362,-1.4122,-1.4322,-1.4589,-1.487,-1.4416,-1.4309,-1.4856,0.0,0.0,0.0,0.0,0.0,0.0,0.0,0.0,0.0,-1.4923,0.0,-1.278,-1.189,-1.0922,-0.9744,-0.9768,-0.9754,-0.9612,-0.9612,-0.9442,-0.913,0.0,0.0,0.0,0.0,0.0,0.0,0.0,0.0,0.0,0.0,0.0,0.0,0.0,0.0,0.0,0.0,0.0,0.0,0.0,0.0,0.0,0.0,-1.4685,-1.476,-1.5045,-1.4909,-1.4713,-1.4719,-1.4611,0.0,-1.4523,-1.4652,-1.4801,-1.4957,-1.5343,-1.5683,-1.5832,-1.6218,-1.6558,-1.67,-1.687,0.0,0.0,0.0,0.0,0.0,0.0,0.0,0.0,0.0,0.0,-1.7182,-1.7338,-1.7494,-1.765,-1.7792,-1.786,-1.786,-1.786,-1.786,-1.786,-1.786,-1.786,-1.786,-1.786,-1.786,0.0,0.0,0.0,0.0,-1.786,-1.786,-1.786,-1.788,-1.7968,-1.8091,-1.8111,-1.8199,-1.8335,0.0,0.0,0.0,0.0,0.0,0.0,0.0,0.0,0.0,0.0,-1.4148,-1.4215,-1.4282,-1.4175,-1.4148,0.0,0.0,0.0,0.0,0.0,0.0,0.0,0.0,0.0,0.0,-1.594,0.0,-1.4984,-1.3608,-1.2472,-1.1559,-1.0407,-0.9856,-0.9612,-0.9612,-0.9442,-0.9144,-0.896,0.0,0.0,0.0,0.0,0.0,0.0,0.0,0.0,-1.0046,-1.0297,0.0,0.0,0.0,0.0,0.0,0.0,0.0,0.0,-1.3112,-1.3349,-1.3899,0.0,-1.4272,-1.4462,-1.4455,-1.4434,0.0,-1.4536,-1.4543,-1.4665,-1.4808,-1.4964,-1.5106,-1.5411,-1.5683,-1.5832,-1.6137,-1.6374,-1.6408,-1.6741,0.0,0.0,0.0,0.0,0.0,0.0,0.0,0.0,0.0,0.0,0.0,-1.7338,-1.7494,-1.765,-1.7792,-1.786,-1.786,-1.786,-1.786,-1.786,-1.786,-1.786,-1.786,-1.786,0.0,0.0,0.0,0.0,-1.786,-1.786,-1.786,-1.788,-1.7989,-1.8057,-1.8111,-1.8213,-1.8355,-1.8477,0.0,0.0,0.0,0.0,0.0,0.0,0.0,0.0,0.0,0.0,0.0,-1.4082,-1.4082,-1.4082,0.0,0.0,0.0,0.0,0.0,0.0,0.0,0.0,0.0,0.0,-1.6473,-1.6874,-1.6343,-1.4917,-1.4239,-1.3095,-1.1362,-1.0517,-1.0073,-0.991,-0.97,-0.9476,-0.9245,-0.9028,-0.894,0.0,0.0,0.0,0.0,0.0,0.0,0.0,-0.9971,-1.0243,0.0,-1.0846,-1.1199,-1.1552,0.0,0.0,0.0,0.0,-1.2963,-1.3173,-1.362,-1.3905,-1.4089,-1.4177,-1.4245,-1.434,-1.4482,-1.4563,-1.4699,-1.4991,-1.5174,-1.5323,-1.5466,-1.5744,-1.5947,-1.5954,-1.6273,-1.6558,-1.6693,0.0,-1.727,-1.75,0.0,0.0,0.0,0.0,0.0,0.0,0.0,0.0,0.0,-1.7439,-1.7595,-1.7738,-1.7826,-1.786,-1.786,-1.786,-1.786,-1.786,-1.786,-1.786,-1.786,-1.786,-1.786,0.0,0.0,0.0,-1.786,-1.786,-1.786,-1.788,-1.8036,-1.8124,-1.8213,-1.8355,-1.8511,-1.864,0.0,0.0,0.0,0.0,0.0,0.0,0.0,0.0,0.0,0.0,0.0,0.0,0.0,0.0,0.0,0.0,0.0,0.0,0.0,0.0,0.0,0.0,0.0,-1.674,-1.6834,-1.7675,-1.7018,-1.4603,-1.4857,-1.3853,-1.1675,-1.1242,-1.0656,-1.029,-0.9842,-0.9544,-0.9361,-0.9089,-0.896,-0.8927,-0.8798,0.0,0.0,0.0,0.0,0.0,0.0,0.0,0.0,-1.0785,-1.109,-1.1402,-1.1681,0.0,0.0,0.0,0.0,0.0,-1.3478,-1.3831,-1.4075,-1.4075,-1.4204,-1.4373,-1.4516,-1.4679,-1.4923,-1.533,-1.5533,-1.5676,-1.5798,-1.6049,-1.6205,-1.6096,-1.6456,-1.6842,-1.7121,-1.7311,-1.7473,-1.7629,0.0,0.0,0.0,0.0,0.0,0.0,0.0,0.0,0.0,-1.7582,-1.7717,-1.786,-1.786,-1.786,-1.786,-1.786,-1.786,-1.786,-1.786,-1.786,-1.786,-1.786,-1.786,0.0,0.0,0.0,-1.786,-1.786,-1.786,-1.788,-1.8057,-1.8199,-1.8335,-1.8511,-1.8654,-1.8762,0.0,0.0,0.0,0.0,0.0,0.0,0.0,0.0,0.0,0.0,0.0,0.0,0.0,0.0,0.0,0.0,0.0,0.0,0.0,0.0,0.0,0.0,-1.6366,-1.6941,-1.7435,-1.809,-1.8361,-1.8109,-1.797,-1.7689,-1.7161,-1.4809,-1.2546,-1.0439,-0.9992,-0.9639,-0.9367,-0.9198,-0.9049,-0.894,-0.8913,0.0,0.0,0.0,0.0,0.0,0.0,0.0,0.0,-1.0507,-1.0846,-1.1226,-1.1402,0.0,0.0,0.0,0.0,0.0,-1.3349,-1.3749,-1.4075,-1.4075,-1.4278,-1.4516,-1.4672,-1.4916,-1.5174,-1.5371,-1.5533,-1.5649,-1.5669,-1.5811,-1.5961,-1.6062,-1.6456,-1.6809,0.0,0.0,0.0,0.0,0.0,0.0,0.0,0.0,0.0,0.0,0.0,0.0,0.0,-1.7629,-1.7717,-1.786,-1.786,-1.786,-1.786,-1.786,-1.786,-1.786,-1.786,-1.786,-1.786,-1.786,-1.786,0.0,0.0,-1.786,-1.786,-1.786,-1.786,-1.7901,-1.8179,-1.8301,-1.8355,-1.862,-1.8742,-1.8762,0.0,0.0,0.0,0.0,0.0,0.0,0.0,0.0,0.0,0.0,0.0,0.0,0.0,0.0,0.0,0.0,0.0,0.0,0.0,0.0,0.0,0.0,-1.6714,-1.7141,-1.7569,-1.849,-1.8905,-1.8633,-1.865,-1.8323,-1.7928,-1.5306,-1.2853,-1.0365,-1.0073,-0.9822,-0.9605,-0.9374,-0.9191,-0.9049,0.0,0.0,0.0,0.0,0.0,0.0,0.0,0.0,0.0,0.0,-1.0738,-1.109,-1.1321,0.0,0.0,0.0,0.0,0.0,-1.3424,-1.3729,-1.3987,-1.4156,-1.4414,-1.4692,-1.4923,-1.5086,-1.5296,-1.5689,-1.5832,-1.59,-1.5988,-1.6056,-1.6151,-1.6293,0.0,0.0,0.0,0.0,0.0,0.0,0.0,0.0,0.0,0.0,0.0,0.0,0.0,0.0,0.0,0.0,-1.7792,-1.786,-1.786,-1.786,-1.786,-1.786,-1.786,-1.786,-1.786,-1.786,-1.786,-1.786,-1.786,-1.786,0.0,-1.786,-1.786,-1.786,-1.786,-1.788,-1.8111,-1.8247,-1.8355,-1.8654,-1.8762,-1.8762,0.0,0.0,0.0,0.0,0.0,0.0,0.0,0.0,0.0,0.0,0.0,0.0,0.0,0.0,0.0,0.0,0.0,0.0,0.0,0.0,-1.6032,-1.6473,-1.6914,-1.7382,-1.7889,-1.8998,-1.9348,-1.8973,-1.9499,-1.8997,-1.7482,-1.5165,-1.2813,-1.0378,-1.0263,-1.0059,-0.9808,-0.9578,-0.9354,-0.9144,0.0,0.0,0.0,0.0,0.0,0.0,0.0,0.0,0.0,0.0,0.0,0.0,0.0,0.0,0.0,-1.2413,-1.2745,-1.3105,-1.3519,-1.381,-1.4061,-1.4333,-1.4597,-1.4862,-1.512,-1.5242,-1.5418,-1.5879,-1.6001,-1.6062,-1.6185,-1.6286,0.0,-1.6551,0.0,0.0,0.0,0.0,0.0,0.0,0.0,0.0,0.0,0.0,0.0,0.0,0.0,0.0,0.0,0.0,-1.786,-1.786,-1.786,-1.786,-1.786,-1.786,-1.786,-1.786,-1.786,-1.786,-1.786,-1.786,-1.786,-1.786,-1.786,-1.786,-1.786,-1.786,-1.786,-1.788,-1.8036,-1.8199,-1.8409,-1.8674,-1.8762,-1.8762,0.0,0.0,0.0,0.0,0.0,0.0,0.0,0.0,0.0,0.0,0.0,0.0,0.0,0.0,0.0,0.0,0.0,0.0,0.0,0.0,-1.5845,-1.5885,-1.67,-1.7675,-1.8798,-1.9706,-2.0345,-2.0943,-2.2337,-2.1187,-1.7806,-1.5584,-1.3157,-1.069,-1.0677,-1.0358,-0.9822,-0.9795,-0.9544,-0.915,-0.9144,0.0,0.0,0.0,0.0,0.0,0.0,0.0,0.0,0.0,0.0,0.0,0.0,0.0,-1.2121,-1.2413,-1.2813,-1.3227,-1.3546,-1.4034,-1.4502,-1.4665,-1.4835,-1.4991,-1.5147,-1.5404,-1.5615,-1.5662,-1.5778,-1.5872,-1.5886,-1.6225,-1.6558,-1.6707,0.0,0.0,0.0,0.0,0.0,0.0,0.0,0.0,0.0,0.0,0.0,0.0,0.0,0.0,0.0,0.0,0.0,-1.786,-1.786,-1.786,-1.786,-1.786,-1.786,-1.786,-1.786,-1.786,-1.786,-1.786,-1.786,-1.786,-1.786,-1.786,-1.786,-1.786,-1.786,-1.788,-1.8036,-1.8267,-1.8531,-1.8708,-1.8762,-1.8762,0.0,0.0,0.0,0.0,0.0,0.0,0.0,0.0,0.0,0.0,0.0,0.0,0.0,0.0,0.0,0.0,0.0,0.0,0.0,0.0,-1.5992,-1.6353,-1.67,-1.7515,-1.8891,-1.9786,-2.0882,-2.2205,-2.2001,-1.9872,-1.5765,-1.485,-1.3109,-1.0717,-1.0622,-1.0405,-1.0086,-0.9808,-0.9591,-0.9422,-0.9232,-0.9123,0.0,0.0,0.0,0.0,0.0,0.0,0.0,0.0,-1.0439,-1.0785,-1.1138,-1.1619,-1.2142,-1.2528,-1.2895,-1.3281,-1.377,-1.4136,-1.4482,-1.4909,-1.5059,-1.5167,-1.5411,-1.5554,-1.5662,-1.575,-1.5818,-1.5967,-1.6341,0.0,-1.6741,-1.6985,0.0,0.0,0.0,0.0,0.0,0.0,0.0,0.0,0.0,0.0,0.0,0.0,0.0,0.0,0.0,0.0,0.0,-1.786,-1.786,-1.786,-1.786,-1.786,-1.786,-1.786,-1.786,-1.786,-1.786,-1.786,-1.786,-1.786,-1.786,-1.786,-1.786,-1.786,-1.786,-1.788,-1.8145,-1.8301,-1.8423,-1.8674,-1.8762,-1.8762,0.0,0.0,0.0,0.0,0.0,0.0,0.0,0.0,0.0,0.0,0.0,0.0,0.0,0.0,0.0,0.0,0.0,0.0,-1.5511,-1.5712,-1.6046,-1.654,-1.6754,-1.7502,-1.8891,-1.9786,-2.075,-2.1752,-2.004,-1.7541,-1.4345,-1.3653,-1.246,-1.0717,-1.0609,-1.046,-1.0256,-0.9903,-0.9693,-0.9585,-0.9327,-0.9198,0.0,0.0,0.0,0.0,0.0,0.0,0.0,0.0,-1.046,-1.0853,-1.1199,-1.1653,-1.2149,-1.2596,-1.301,-1.3431,-1.3933,-1.4319,-1.4685,-1.514,-1.5289,-1.5391,-1.5649,-1.5669,-1.5669,-1.5764,-1.5934,-1.6191,-1.6605,-1.6795,0.0,0.0,0.0,0.0,0.0,0.0,0.0,0.0,0.0,0.0,0.0,0.0,0.0,0.0,0.0,0.0,0.0,0.0,0.0,0.0,-1.786,-1.786,-1.786,-1.786,-1.786,-1.786,-1.786,-1.786,-1.786,-1.786,-1.786,-1.786,-1.786,-1.786,-1.786,-1.786,-1.786,-1.7901,-1.8199,-1.8321,-1.8355,-1.8654,-1.8762,-1.8762,0.0,0.0,0.0,0.0,0.0,0.0,0.0,0.0,0.0,0.0,0.0,0.0,0.0,0.0,0.0,0.0,0.0,0.0,-1.5805,-1.5832,-1.5965,-1.6259,-1.6834,-1.7702,-1.8891,-1.9654,-1.9788,-1.9154,-1.6044,-1.4509,-1.4147,-1.2116,-1.1002,0.0,0.0,0.0,-1.027,-1.0114,-0.9876,-0.9598,-0.9442,-0.9293,-0.9157,0.0,0.0,0.0,0.0,0.0,0.0,0.0,-1.0697,-1.1029,-1.1477,-1.1823,-1.2149,-1.2603,-1.3159,-1.3695,-1.3994,-1.4618,-1.5215,-1.5371,-1.5527,-1.5676,-1.5818,-1.5744,-1.5642,-1.5642,-1.611,-1.6524,-1.6524,-1.689,0.0,0.0,0.0,0.0,0.0,0.0,0.0,0.0,0.0,0.0,0.0,0.0,0.0,0.0,0.0,0.0,0.0,0.0,0.0,0.0,-1.786,-1.786,-1.786,-1.786,-1.786,-1.786,-1.786,-1.786,-1.786,-1.786,-1.786,-1.786,-1.786,-1.786,-1.786,-1.786,-1.786,-1.7901,-1.8199,-1.8321,-1.8355,-1.8654,-1.8762,-1.8762,0.0,0.0,0.0,0.0,0.0,0.0,0.0,0.0,0.0,0.0,0.0,0.0,0.0,0.0,0.0,0.0,0.0,0.0,-1.5805,-1.5832,-1.6046,-1.6553,-1.674,-1.686,-1.6808,-1.559,-1.5691,-1.74,-1.5358,-1.3636,-1.1818,-1.1386,0.0,-1.0561,0.0,0.0,-1.0107,-0.9958,-0.9836,-0.9747,-0.9598,-0.9449,-0.9313,0.0,0.0,0.0,0.0,0.0,0.0,0.0,0.0,0.0,-1.1355,-1.1735,-1.2169,-1.2732,-1.3166,-1.358,-1.4095,-1.4624,-1.5092,-1.535,-1.5445,-1.552,-1.5669,-1.575,-1.5818,-1.5927,-1.6252,-1.6585,-1.6802,-1.6863,0.0,0.0,0.0,0.0,0.0,0.0,0.0,0.0,0.0,0.0,0.0,0.0,0.0,0.0,0.0,0.0,0.0,0.0,0.0,0.0,-1.786,-1.786,-1.786,-1.786,-1.786,-1.786,-1.786,-1.786,-1.786,-1.786,-1.786,-1.786,-1.786,-1.786,-1.786,-1.786,-1.786,-1.7901,-1.8199,-1.8321,-1.8355,-1.8654,-1.8762,-1.8762,0.0,0.0,0.0,0.0,0.0,0.0,0.0,0.0,-0.7401,-0.8105,-0.9726,-1.1138,0.0,0.0,0.0,-1.46,-1.474,0.0,-1.5032,-1.5534,-1.6046,-1.6513,-1.6134,-1.5695,-1.5155,-1.3453,-1.3418,-1.5147,-1.3849,-1.2338,-1.0772,-1.1036,0.0,-1.0582,0.0,-1.0507,-1.0215,-1.0066,-0.9964,-0.9897,-0.9754,-0.9639,-0.9551,0.0,0.0,0.0,0.0,0.0,0.0,0.0,0.0,0.0,-1.1409,-1.1789,-1.2284,-1.2942,-1.3342,-1.3709,-1.4312,-1.4848,-1.5276,-1.5459,-1.5499,-1.5554,-1.5764,0.0,0.0,0.0,-1.6408,-1.6653,-1.6775,-1.6917,0.0,0.0,0.0,0.0,0.0,0.0,0.0,0.0,0.0,0.0,0.0,0.0,0.0,0.0,0.0,0.0,0.0,0.0,0.0,0.0,-1.786,-1.786,-1.786,-1.786,-1.786,-1.786,-1.786,-1.786,-1.786,-1.786,-1.786,-1.786,-1.786,-1.786,-1.786,-1.786,-1.7901,-1.7989,-1.8233,-1.8355,-1.8423,-1.8674,-1.8762,-1.8762,0.0,0.0,0.0,0.0,0.0,0.0,0.0,-0.7143,-0.7143,-0.7156,-0.9313,-1.0959,0.0,0.0,0.0,-1.3239,-1.3541,-1.368,-1.368,-1.4758,-1.5569,-1.5967,-1.4843,-1.409,-1.3871,-1.2755,-1.23,-1.2624,-1.1643,-1.0921,-1.05,0.0,-1.0995,-1.0704,0.0,-1.0751,-1.048,-1.031,-1.0168,-1.0032,-0.9883,-0.9815,-0.9788,-0.9673,0.0,0.0,0.0,0.0,0.0,0.0,0.0,0.0,-1.1572,-1.1932,-1.2433,-1.3152,-1.358,-1.3953,-1.4557,-1.516,-1.5622,-1.5635,-1.5649,0.0,-1.6001,0.0,0.0,-1.6273,0.0,-1.6686,-1.6544,0.0,0.0,0.0,0.0,0.0,0.0,0.0,0.0,0.0,0.0,0.0,0.0,0.0,0.0,0.0,0.0,0.0,0.0,0.0,0.0,0.0,-1.786,-1.786,-1.786,-1.786,-1.786,0.0,-1.786,-1.786,-1.786,-1.786,-1.786,-1.786,-1.786,-1.786,-1.786,-1.786,-1.7948,-1.8111,-1.8267,-1.8409,-1.8552,-1.8708,-1.8762,-1.8782,0.0,0.0,0.0,0.0,0.0,0.0,-0.7143,-0.7143,-0.7183,-0.7305,-0.8599,-0.9631,-1.0032,-1.1169,0.0,-1.2245,-1.2308,-1.2328,-1.2328,-1.2619,-1.2921,-1.327,-1.2235,-1.172,-1.1863,-1.0801,-1.0315,-1.0592,-1.0829,-1.0826,0.0,0.0,0.0,-1.0541,0.0,-1.0555,0.0,-1.008,-0.9971,-1.0032,-0.9883,-0.9754,-0.9666,-0.9747,-0.9774,0.0,0.0,0.0,0.0,0.0,0.0,0.0,-1.1572,-1.1932,-1.2393,-1.2901,-1.3349,-1.3804,-1.4401,-1.5004,-1.5486,-1.5608,-1.5723,-1.5825,-1.5886,-1.6062,-1.6259,-1.6435,-1.6524,0.0,0.0,0.0,0.0,0.0,0.0,0.0,0.0,0.0,0.0,0.0,0.0,0.0,0.0,0.0,0.0,0.0,0.0,0.0,0.0,0.0,0.0,-1.786,-1.786,-1.786,-1.786,-1.786,-1.786,0.0,-1.786,-1.786,-1.786,-1.786,-1.786,-1.786,-1.786,-1.786,-1.786,-1.786,-1.7948,-1.8111,-1.8267,-1.8409,-1.8552,-1.8708,-1.8762,-1.8782,0.0,0.0,0.0,0.0,0.0,0.0,0.0,0.0,-0.7305,-0.7461,-0.8637,-0.9495,-0.9784,-1.0368,0.0,0.0,-1.0974,-1.0974,-1.0974,-1.156,-1.1747,-1.1363,-1.0861,-1.0412,-1.0014,-0.9645,-0.9612,-0.9836,-1.0371,-1.0548,0.0,0.0,0.0,-1.0399,0.0,-1.067,0.0,-1.0351,-1.0297,-1.0358,-1.0202,-1.0141,-1.0141,-1.0141,-1.0188,-1.0263,-1.0344,0.0,0.0,0.0,0.0,0.0,0.0,0.0,-1.2494,-1.3017,-1.339,-1.379,-1.4529,-1.5011,-1.5337,-1.5493,0.0,-1.594,-1.5872,-1.609,-1.6347,-1.649,0.0,0.0,0.0,0.0,0.0,0.0,0.0,0.0,0.0,0.0,0.0,0.0,0.0,0.0,0.0,0.0,0.0,0.0,0.0,0.0,0.0,-1.786,-1.786,-1.786,-1.786,-1.786,-1.786,-1.786,-1.786,-1.786,-1.786,-1.786,-1.786,-1.786,-1.786,-1.786,-1.786,-1.786,-1.786,-1.786,-1.8002,-1.8213,-1.8287,-1.8498,-1.8742,-1.8762,-1.885,-1.8993,0.0,0.0,0.0,0.0,0.0,0.0,0.0,0.0,0.0,-0.7617,-0.868,-0.9444,-0.9477,-0.9616,-0.9608,0.0,0.0,0.0,-0.9608,-1.0681,-1.0861,-0.9961,-0.986,-0.9522,-0.8703,-0.9103,-0.9395,-0.9571,-0.9971,0.0,0.0,0.0,0.0,-1.0297,0.0,0.0,0.0,-1.0704,-1.0711,-1.0744,-1.0595,-1.0609,-1.0711,-1.0609,-1.0649,-1.0765,-1.0785,-1.0812,-1.0873,-1.1118,0.0,0.0,0.0,0.0,-1.261,-1.3166,-1.3451,-1.3777,-1.4658,-1.5092,-1.5323,-1.5425,-1.5771,0.0,-1.592,-1.613,-1.6395,-1.6564,0.0,0.0,0.0,0.0,0.0,0.0,0.0,0.0,0.0,0.0,0.0,0.0,0.0,0.0,0.0,0.0,0.0,0.0,0.0,0.0,-1.786,-1.786,-1.786,-1.786,-1.786,-1.786,-1.786,-1.786,-1.786,-1.786,-1.786,-1.786,-1.786,-1.786,-1.786,-1.786,-1.786,-1.786,-1.786,-1.786,-1.8036,-1.8321,-1.8321,-1.8586,-1.8938,-1.8816,-1.8938,-1.9169,0.0,0.0,0.0,0.0,0.0,0.0,0.0,0.0,0.0,0.0,-0.7987,-0.8146,-0.8188,-0.8223,-0.8237,-0.8237,-0.8237,-0.8237,-0.8237,0.0,0.0,-0.8561,-0.8568,-0.8612,-0.8703,-0.8899,-0.913,-0.9408,-0.9605,0.0,0.0,0.0,0.0,0.0,0.0,0.0,0.0,0.0,0.0,-1.0907,-1.0751,-1.0704,-1.0731,-1.0846,-1.09,-1.0934,-1.1056,-1.1185,-1.1307,-1.1348,-1.1647,0.0,0.0,0.0,-1.2569,-1.2915,-1.3214,-1.36,-1.4367,-1.5153,-1.5737,-1.5635,-1.5845,-1.6076,-1.6056,0.0,-1.6571,0.0,0.0,0.0,0.0,0.0,0.0,0.0,0.0,0.0,0.0,0.0,0.0,0.0,0.0,0.0,0.0,0.0,0.0,0.0,0.0,0.0,-1.786,-1.786,-1.786,-1.786,-1.786,-1.786,-1.786,-1.786,-1.786,-1.786,-1.786,-1.786,-1.786,-1.786,-1.786,-1.786,-1.786,-1.786,-1.786,-1.786,-1.8036,-1.8321,-1.8321,-1.8511,-1.8796,-1.8762,-1.8871,-1.904,0.0,0.0,0.0,0.0,0.0,0.0,0.0,0.0,0.0,0.0,0.0,-0.7963,-0.8031,-0.8038,-0.8038,-0.8038,-0.8038,-0.8038,-0.8038,-0.8038,-0.8072,-0.814,-0.814,-0.8241,-0.8459,-0.8689,-0.8913,-0.913,0.0,0.0,0.0,-1.0141,-1.0256,0.0,0.0,0.0,0.0,0.0,0.0,-1.1321,-1.1253,-1.1375,-1.1579,-1.1396,-1.1531,-1.1796,-1.1606,-1.1579,-1.1653,-1.1735,-1.1898,-1.2081,-1.2162,0.0,0.0,0.0,-1.3112,-1.3471,-1.4394,-1.5174,-1.5716,-1.5655,-1.5859,-1.6056,-1.5974,-1.6185,-1.6463,-1.668,0.0,0.0,0.0,0.0,0.0,0.0,0.0,0.0,0.0,0.0,0.0,0.0,0.0,0.0,0.0,0.0,0.0,0.0,0.0,-1.786,-1.786,-1.786,-1.786,-1.786,-1.786,-1.786,-1.786,-1.786,-1.786,-1.786,-1.786,-1.786,-1.786,-1.786,-1.786,-1.786,-1.786,-1.786,-1.786,-1.786,-1.8036,-1.8321,-1.8409,-1.862,-1.8884,-1.8884,-1.904,-1.9237,0.0,0.0,0.0,0.0,0.0,0.0,0.0,0.0,0.0,0.0,0.0,-0.8038,-0.8038,0.0,0.0,0.0,-0.8038,-0.8038,-0.8038,-0.8038,-0.8038,-0.8038,-0.8038,-0.8113,-0.8269,-0.852,-0.873,-0.8879,0.0,0.0,-0.9883,-1.0039,-1.0249,0.0,-1.0575,0.0,0.0,0.0,0.0,0.0,-1.1762,-1.2013,-1.2318,-1.206,-1.2257,-1.2617,-1.221,-1.2108,-1.2169,-1.2176,-1.2196,-1.2244,-1.2318,-1.242,0.0,0.0,0.0,-1.3478,-1.434,-1.5011,-1.5486,-1.556,-1.5805,-1.6001,-1.5927,0.0,-1.6347,0.0,0.0,0.0,0.0,0.0,0.0,0.0,0.0,0.0,0.0,0.0,0.0,0.0,0.0,0.0,0.0,0.0,0.0,0.0,0.0,-1.786,-1.786,-1.786,-1.786,-1.786,-1.786,-1.786,-1.786,-1.786,-1.786,-1.786,-1.786,-1.786,-1.786,-1.786,-1.786,-1.786,-1.786,-1.786,-1.786,-1.7901,-1.8077,-1.8335,-1.8477,-1.8687,-1.8938,-1.8972,-1.9149,-1.9359,0.0,0.0,0.0,0.0,0.0,0.0,0.0,0.0,0.0,0.0,0.0,-0.8038,-0.8038,-0.8038,-0.8038,-0.8038,-0.8038,-0.8038,-0.8038,-0.8038,-0.8038,-0.8038,0.0,0.0,-0.8269,-0.8418,-0.8567,0.0,0.0,0.0,-1.0039,-1.0195,-1.0575,-1.1111,-1.0982,-1.0853,-1.0758,0.0,0.0,0.0,0.0,-1.2352,-1.2522,-1.2793,-1.2996,-1.3098,-1.2793,-1.2868,-1.3037,-1.2623,-1.2576,-1.2671,-1.2535,-1.2494,-1.2535,0.0,0.0,0.0,-1.4014,-1.4543,-1.5072,-1.535,-1.5649,-1.59,-1.6035,0.0,-1.6347,0.0,0.0,0.0,0.0,0.0,0.0,0.0,0.0,0.0,0.0,0.0,0.0,0.0,0.0,0.0,0.0,0.0,0.0,0.0,0.0,-1.786,-1.786,-1.786,-1.786,-1.786,-1.786,-1.786,-1.786,-1.786,-1.786,-1.786,-1.786,-1.786,-1.786,-1.786,-1.786,-1.786,-1.786,-1.786,-1.788,-1.8023,-1.8179,-1.8335,-1.8477,-1.864,-1.8796,-1.8938,-1.9081,-1.9237,0.0,0.0,0.0,0.0,0.0,0.0,0.0,0.0,0.0,0.0,0.0,0.0,0.0,-0.8038,-0.8038,-0.8038,-0.8038,-0.8038,-0.8038,-0.8038,0.0,0.0,0.0,0.0,-0.8119,-0.8357,0.0,0.0,0.0,-0.9225,-0.9625,-0.9971,-1.0243,-1.046,-1.0799,-1.0968,-1.1023,-1.128,0.0,0.0,0.0,0.0,-1.3112,-1.341,-1.3682,-1.3844,0.0,0.0,0.0,-1.3024,-1.2908,-1.2854,-1.2698,-1.2718,-1.2847,-1.3091,-1.3383,-1.3756,-1.434,-1.4733,-1.5086,-1.5574,-1.5852,-1.6015,-1.6069,-1.6198,-1.6347,-1.649,0.0,0.0,0.0,0.0,0.0,0.0,0.0,0.0,0.0,0.0,0.0,0.0,0.0,0.0,0.0,0.0,0.0,0.0,0.0,0.0,-1.786,-1.786,-1.786,-1.786,-1.786,-1.786,-1.786,-1.786,-1.786,-1.786,-1.786,-1.786,-1.786,-1.786,-1.786,-1.786,-1.786,-1.786,-1.788,-1.8023,-1.8233,-1.8477,-1.862,-1.8782,-1.8918,-1.9081,-1.9169,-1.9217,0.0,0.0,0.0,0.0,0.0,0.0,0.0,0.0,0.0,0.0,0.0,0.0,0.0,0.0,-0.8187,-0.8187,-0.8187,-0.8167,-0.8119,-0.8119,-0.8092,-0.8038,-0.8038,-0.8038,-0.8038,-0.8282,0.0,0.0,0.0,0.0,0.0,0.0,-1.008,-1.0297,-1.0744,-1.0975,0.0,0.0,0.0,-1.1769,0.0,0.0,-1.337,0.0,-1.415,0.0,0.0,0.0,0.0,0.0,0.0,-1.3288,-1.3037,-1.299,-1.3091,-1.339,-1.3512,-1.3702,-1.4401,-1.4665,-1.4889,-1.5479,-1.5784,-1.5947,-1.5995,-1.6123,-1.6286,-1.6483,0.0,0.0,0.0,0.0,0.0,0.0,0.0,0.0,0.0,0.0,0.0,0.0,0.0,0.0,0.0,0.0,0.0,0.0,0.0,0.0,-1.786,-1.786,-1.786,-1.786,-1.786,-1.786,-1.786,-1.786,-1.786,-1.786,-1.786,-1.786,-1.786,-1.786,-1.786,-1.786,-1.786,-1.786,-1.788,-1.8091,-1.8321,-1.8552,-1.8708,-1.8884,-1.9081,-1.9169,-1.9237,-1.9305,0.0,0.0,0.0,0.0,0.0,0.0,0.0,0.0,0.0,0.0,0.0,0.0,0.0,0.0,0.0,-0.8499,-0.8499,-0.8438,-0.8296,-0.8289,-0.8214,-0.8065,-0.8058,-0.8052,-0.8052,-0.8208,0.0,0.0,0.0,0.0,0.0,0.0,-1.0134,0.0,-1.0873,-1.0867,-1.0765,0.0,-1.1701,-1.1904,0.0,-1.318,-1.3268,0.0,0.0,0.0,-1.4204,-1.4373,0.0,0.0,0.0,0.0,0.0,-1.3308,-1.3247,-1.3546,-1.3526,-1.3539,0.0,0.0,0.0,-1.5031,-1.5411,-1.5676,-1.5825,-1.5981,-1.6178,-1.6456,0.0,0.0,0.0,0.0,0.0,0.0,0.0,0.0,0.0,0.0,0.0,0.0,0.0,0.0,0.0,0.0,0.0,0.0,0.0,-1.786,-1.786,-1.786,-1.786,-1.786,-1.786,-1.786,-1.786,-1.786,-1.786,-1.786,-1.786,-1.786,-1.786,-1.786,-1.786,-1.786,-1.786,-1.786,-1.7901,-1.8199,-1.8409,-1.8565,-1.8708,-1.8938,-1.9203,-1.9203,-1.9305,-1.9447,0.0,0.0,0.0,0.0,0.0,-0.8221,-0.8262,-0.8486,-0.8648,0.0,0.0,0.0,0.0,0.0,0.0,-0.8967,-0.8967,-0.8906,-0.8764,-0.8648,-0.8567,-0.8526,-0.8418,-0.8357,-0.8357,-0.8513,0.0,0.0,0.0,0.0,-0.934,-0.9564,0.0,0.0,-1.0738,-1.0928,-1.0921,-1.1518,0.0,0.0,-1.2888,-1.3403,0.0,0.0,0.0,0.0,0.0,-1.4733,-1.4706,0.0,-1.4245,-1.4034,0.0,-1.3688,-1.3675,-1.3756,-1.3682,-1.3648,-1.4027,0.0,0.0,0.0,0.0,0.0,-1.5961,0.0,-1.6395,-1.6374,0.0,0.0,0.0,0.0,0.0,0.0,0.0,0.0,0.0,0.0,0.0,0.0,0.0,0.0,0.0,0.0,0.0,0.0,-1.786,-1.786,-1.786,-1.786,-1.786,-1.786,-1.786,-1.786,-1.786,-1.786,-1.786,-1.786,-1.786,-1.786,-1.786,-1.786,-1.786,-1.786,-1.786,-1.7935,-1.8036,-1.8233,-1.8531,-1.885,-1.8796,-1.9006,-1.9359,-1.9237,-1.9305,-1.9447,0.0,0.0,-0.8079,-0.8201,-0.8296,-0.8445,-0.8696,-0.8879,-0.9015,0.0,0.0,0.0,0.0,0.0,0.0,0.0,-0.9395,-0.9347,-0.9137,-0.9042,-0.8933,-0.8811,-0.8662,-0.8547,-0.8486,-0.8567,-0.8648,0.0,0.0,0.0,0.0,-0.9462,0.0,0.0,0.0,0.0,0.0,0.0,0.0,0.0,-1.3037,0.0,0.0,-1.4482,-1.4889,0.0,0.0,0.0,-1.4909,-1.4821,-1.455,0.0,0.0,-1.4095,-1.3865,-1.3994,-1.3838,-1.3695,-1.3994,-1.4136,-1.4319,-1.4787,0.0,0.0,0.0,0.0,0.0,0.0,0.0,0.0,0.0,0.0,0.0,0.0,0.0,0.0,0.0,0.0,0.0,0.0,0.0,0.0,0.0,0.0,0.0,-1.786,-1.786,-1.786,-1.786,-1.786,-1.786,-1.786,-1.786,-1.786,-1.786,-1.786,-1.786,-1.786,-1.786,-1.786,-1.786,-1.786,-1.786,-1.786,-1.786,-1.7989,-1.8199,-1.8355,-1.864,-1.8993,-1.8959,-1.9149,-1.9413,-1.9325,-1.9359,-1.9447,0.0,0.0,-0.8153,-0.8431,-0.852,-0.8743,-0.93,-0.9422,-0.951,0.0,0.0,0.0,0.0,0.0,0.0,0.0,-0.9876,-0.9829,-0.9551,-0.9496,-0.9354,-0.9076,-0.8886,-0.871,-0.856,-0.854,-0.8608,-0.8757,0.0,0.0,0.0,0.0,0.0,0.0,-1.069,-1.1016,0.0,0.0,0.0,-1.2325,-1.3308,-1.377,0.0,0.0,-1.4875,0.0,-1.4862,-1.497,-1.5181,-1.5181,-1.493,0.0,0.0,0.0,0.0,-1.4238,-1.4021,-1.3749,-1.3966,-1.4034,-1.4116,-1.4414,-1.4916,0.0,0.0,0.0,0.0,0.0,0.0,0.0,0.0,0.0,0.0,0.0,0.0,0.0,0.0,0.0,0.0,0.0,0.0,0.0,0.0,-1.7629,-1.7704,-1.7826,-1.7846,-1.786,-1.786,-1.786,-1.786,-1.786,-1.786,-1.786,-1.786,-1.786,-1.786,-1.786,-1.786,-1.786,-1.786,-1.786,-1.786,-1.786,-1.788,-1.8057,-1.8335,-1.8498,-1.8728,-1.9006,-1.9128,-1.9291,-1.9434,-1.9413,-1.9434,-1.9481,-0.7153,-0.816,-0.8289,-0.8452,-0.8784,-0.9103,-0.9347,-0.9686,-0.9971,0.0,0.0,0.0,0.0,0.0,0.0,0.0,-1.0711,-1.0649,-1.0473,-1.0236,-1.0025,-0.9842,-0.9456,-0.9178,-0.9028,-0.8906,-0.892,-0.9069,0.0,0.0,0.0,0.0,0.0,0.0,0.0,0.0,0.0,-1.2318,0.0,-1.337,-1.3939,0.0,-1.4102,-1.4821,-1.5113,-1.5153,-1.5248,-1.5235,-1.5181,0.0,-1.5208,-1.5208,0.0,0.0,0.0,-1.4421,-1.4238,-1.4102,-1.3797,-1.3797,-1.396,-1.4265,0.0,0.0,0.0,-1.5622,-1.5778,0.0,-1.5981,-1.6123,0.0,0.0,0.0,0.0,0.0,0.0,0.0,0.0,0.0,0.0,0.0,0.0,0.0,-1.7575,-1.7663,-1.7684,-1.7792,-1.786,-1.786,-1.786,-1.786,-1.786,-1.786,-1.786,-1.786,-1.786,-1.786,-1.786,-1.786,-1.786,-1.786,-1.786,-1.786,-1.786,-1.7989,-1.8145,-1.8335,-1.8606,-1.883,-1.8993,-1.9027,-1.9203,-1.9413,-1.9291,-1.94,-1.9624,-0.3451,-0.6437,-0.8521,-0.8772,-0.9124,-0.953,-0.9978,-1.0175,-1.0351,0.0,0.0,0.0,0.0,0.0,0.0,0.0,0.0,-1.1138,-1.1056,-1.0778,-1.0582,-1.05,-1.0066,-0.972,-0.949,-0.9347,-0.9306,-0.9381,0.0,0.0,0.0,0.0,0.0,0.0,0.0,0.0,0.0,-1.2637,-1.3078,-1.3661,-1.4034,0.0,-1.4665,-1.5038,-1.5228,-1.5296,-1.5296,-1.5248,-1.5194,-1.5269,-1.5296,0.0,0.0,-1.5248,-1.5113,0.0,-1.4523,-1.4326,-1.3953,-1.3899,-1.3994,-1.415,0.0,0.0,0.0,0.0,-1.5642,-1.5642,-1.5872,-1.6083,-1.6083,0.0,0.0,0.0,0.0,0.0,0.0,0.0,0.0,0.0,0.0,0.0,0.0,-1.7331,-1.7487,-1.7629,-1.7772,-1.786,-1.786,-1.786,-1.786,-1.786,-1.786,-1.786,-1.786,-1.786,-1.786,-1.786,-1.786,-1.786,-1.786,-1.786,-1.786,-1.786,-1.8023,-1.8179,-1.8335,-1.864,-1.8816,-1.8884,-1.904,-1.9183,-1.9325,-1.9305,-1.9413,-1.9556,0.0,-0.4279,-0.8208,-0.9065,-0.9573,-0.9958,-1.0622,-1.0663,-1.0731,0.0,0.0,0.0,0.0,0.0,0.0,0.0,0.0,0.0,-1.1647,-1.1369,-1.1206,-1.1206,-1.0697,-1.0304,-1.0086,-0.9829,-0.9707,-0.9741,0.0,0.0,0.0,0.0,0.0,0.0,0.0,0.0,0.0,0.0,0.0,-1.3824,0.0,-1.4645,-1.5194,-1.5309,-1.5398,-1.5432,-1.5248,-1.5201,-1.5248,-1.5404,-1.5371,-1.5316,-1.5594,-1.5513,0.0,0.0,0.0,0.0,0.0,0.0,0.0,0.0,0.0,-1.474,0.0,0.0,0.0,0.0,0.0,0.0,0.0,0.0,0.0,0.0,0.0,0.0,0.0,-1.6571,0.0,0.0,0.0,0.0,0.0,-1.7168,-1.7412,-1.7629,-1.7846,-1.7935,-1.786,-1.786,-1.786,-1.786,-1.786,-1.786,-1.786,-1.786,-1.786,-1.786,-1.786,-1.786,-1.786,-1.786,-1.788,-1.7914,-1.8077,-1.8213,-1.8375,-1.8654,-1.8762,-1.8796,-1.9081,-1.9203,-1.9217,-1.9379,-1.9447,-1.9501,0.0,-0.2817,-0.6221,-0.8978,-0.9828,-1.0324,-1.067,-1.0928,-1.1199,0.0,0.0,0.0,0.0,0.0,0.0,0.0,0.0,0.0,-1.2589,0.0,-1.2135,-1.2135,-1.1328,-1.0914,-1.1009,-1.0344,-1.0066,-1.0202,-1.0202,0.0,0.0,0.0,0.0,0.0,-1.202,0.0,0.0,0.0,-1.4251,0.0,-1.4882,-1.5106,0.0,-1.5778,-1.5825,-1.5574,-1.5289,-1.5269,-1.5411,0.0,-1.5601,-1.5615,0.0,-1.5805,-1.5696,-1.5282,0.0,0.0,0.0,0.0,0.0,0.0,-1.4407,0.0,0.0,0.0,-1.4916,-1.5181,0.0,0.0,-1.5486,0.0,0.0,0.0,0.0,0.0,-1.5947,-1.6286,-1.6544,-1.6544,0.0,0.0,0.0,0.0,-1.7758,-1.765,-1.8036,-1.8145,-1.788,-1.786,-1.786,-1.786,-1.786,-1.786,-1.786,-1.786,-1.786,-1.786,-1.786,-1.786,-1.786,-1.786,-1.7935,-1.8077,-1.8233,-1.8375,-1.8511,-1.8694,-1.8762,-1.8796,-1.9081,-1.9203,-1.9217,-1.9379,-1.9522,-1.9644,0.0,-0.1071,-0.3638,-0.8822,-1.0078,-1.0445,-1.096,-1.147,-1.1775,0.0,0.0,0.0,0.0,0.0,0.0,0.0,0.0,-1.3186,0.0,0.0,-1.2684,-1.2427,-1.1891,-1.1497,-1.1301,-1.0819,-1.0602,-1.067,-1.067,-1.0744,0.0,0.0,0.0,0.0,-1.2352,0.0,-1.3207,0.0,0.0,0.0,0.0,0.0,0.0,-1.573,-1.5615,-1.5499,-1.5459,-1.5486,-1.5567,0.0,-1.5825,0.0,0.0,0.0,0.0,-1.5703,0.0,-1.5493,-1.5133,-1.5031,0.0,0.0,0.0,0.0,-1.4767,0.0,-1.4909,0.0,0.0,0.0,0.0,0.0,0.0,0.0,-1.5859,0.0,-1.5872,-1.6239,-1.6558,0.0,0.0,0.0,0.0,0.0,0.0,0.0,0.0,-1.8057,-1.7758,-1.7812,-1.786,-1.786,-1.786,-1.786,-1.786,-1.786,-1.786,-1.786,-1.786,-1.786,-1.786,-1.786,-1.7948,-1.8091,-1.8247,-1.8409,-1.8552,-1.8694,-1.8762,-1.8796,-1.9081,-1.9203,-1.9217,-1.9379,-1.9535,-1.9664,0.0,0.0,-0.1773,-0.7488,-0.8655,-0.9075,-0.9627,-1.1193,-1.2271,-1.2567,0.0,0.0,-1.3254,-1.3526,0.0,0.0,0.0,-1.377,0.0,0.0,-1.337,-1.3125,-1.2596,0.0,0.0,-1.1409,-1.1131,-1.1131,-1.105,-1.1084,-1.1226,-1.1341,-1.1606,-1.202,0.0,-1.3085,-1.3607,0.0,0.0,-1.5357,-1.5479,-1.5771,-1.6083,-1.5683,-1.5506,-1.5486,-1.5601,-1.5642,-1.5662,-1.5805,-1.5927,0.0,-1.6069,0.0,-1.6266,-1.59,-1.5791,-1.5737,-1.5479,0.0,0.0,0.0,0.0,0.0,0.0,0.0,0.0,0.0,0.0,0.0,0.0,0.0,-1.5554,-1.5493,0.0,-1.5893,-1.5696,-1.609,-1.6456,0.0,0.0,0.0,0.0,0.0,0.0,0.0,0.0,0.0,-1.7717,-1.7772,-1.7826,-1.786,-1.786,-1.786,-1.786,-1.786,-1.786,-1.786,-1.786,-1.786,-1.786,-1.7901,-1.8002,-1.8158,-1.8321,-1.8464,-1.8599,-1.8708,-1.8782,-1.885,-1.9094,-1.9203,-1.9217,-1.9413,-1.9569,-1.9664,0.0,0.0,-0.1037,-0.4414,-0.5024,-0.5292,-0.5869,-0.9628,-1.2596,-1.3075,0.0,0.0,0.0,0.0,0.0,0.0,0.0,-1.4699,-1.4699,0.0,-1.4387,0.0,0.0,0.0,0.0,-1.2196,-1.1599,-1.1599,-1.1301,-1.1233,-1.1382,-1.1389,-1.1552,-1.187,-1.2623,-1.3125,-1.3485,-1.4658,-1.5167,-1.5228,-1.5662,-1.5771,-1.5676,0.0,-1.575,-1.5635,-1.5635,0.0,0.0,-1.5805,-1.5859,0.0,0.0,0.0,0.0,0.0,0.0,0.0,0.0,0.0,0.0,-1.5622,0.0,0.0,0.0,0.0,-1.5357,0.0,0.0,-1.5194,-1.5194,-1.5316,-1.5228,-1.4652,-1.5174,0.0,0.0,-1.5716,-1.6151,-1.6307,0.0,0.0,0.0,0.0,0.0,0.0,0.0,0.0,-1.788,-1.7717,-1.7717,-1.786,-1.786,-1.786,-1.786,-1.786,-1.786,-1.786,-1.786,-1.786,-1.786,-1.8023,-1.8165,-1.8321,-1.8464,-1.862,-1.8762,-1.8762,-1.885,-1.8993,-1.9149,-1.9203,-1.9237,-1.9535,-1.9664,-1.9664,0.0,0.0,-0.0411,-0.1397,-0.1699,-0.1742,-0.1982,-0.5974,0.0,0.0,0.0,0.0,0.0,0.0,-1.4943,0.0,0.0,-1.5099,-1.4903,-1.4889,0.0,0.0,0.0,-1.3356,0.0,0.0,-1.2013,-1.1911,-1.1708,-1.1633,-1.1687,-1.1789,-1.1891,-1.2026,0.0,-1.3512,0.0,0.0,0.0,0.0,0.0,-1.6062,-1.5927,0.0,0.0,-1.5934,-1.5934,-1.5995,0.0,-1.6022,-1.6137,-1.6273,-1.613,-1.6178,-1.6246,-1.6001,-1.5934,0.0,0.0,0.0,-1.6035,-1.5832,0.0,0.0,0.0,0.0,0.0,0.0,-1.5404,-1.5303,-1.5201,-1.5221,-1.5228,-1.5126,-1.5323,-1.552,0.0,-1.5974,-1.6252,-1.63,0.0,0.0,0.0,0.0,0.0,0.0,0.0,0.0,0.0,-1.767,-1.7717,-1.786,-1.786,-1.786,-1.786,-1.786,-1.786,-1.786,-1.786,-1.786,-1.786,-1.8023,-1.8179,-1.8321,-1.8477,-1.862,-1.8762,-1.8762,-1.8796,-1.885,-1.9006,-1.9061,-1.9115,-1.9522,-1.959,-1.9522,0.0,0.0,0.0,0.0,0.0,0.0,0.0,0.0,0.0,0.0,-1.2308,0.0,-1.1911,0.0,-1.5269,0.0,-1.5506,-1.5472,-1.5316,-1.5343,0.0,-1.4943,-1.4401,0.0,0.0,0.0,-1.261,-1.2454,-1.2196,-1.204,-1.1999,-1.2149,-1.2277,-1.2413,-1.3139,-1.3722,-1.4204,0.0,-1.5486,0.0,0.0,-1.6137,0.0,0.0,-1.611,-1.6225,0.0,-1.6144,-1.6225,-1.6178,-1.6286,-1.6422,-1.6279,-1.6334,-1.6395,-1.6151,-1.6083,-1.6069,-1.6015,-1.611,0.0,-1.611,-1.6198,0.0,-1.6062,0.0,-1.5893,0.0,-1.5594,-1.5493,-1.5499,-1.5418,-1.5377,-1.5479,-1.5493,-1.5574,0.0,-1.6069,0.0,0.0,0.0,0.0,0.0,0.0,0.0,0.0,0.0,0.0,0.0,0.0,-1.7684,-1.7792,-1.7846,-1.786,-1.786,-1.786,-1.786,-1.786,-1.786,-1.7901,-1.7948,-1.8111,-1.8247,-1.8409,-1.8552,-1.8674,-1.8762,-1.8762,-1.8796,-1.885,-1.8959,-1.8993,-1.9027,-1.9379,-1.9434,-1.9379,0.0,0.0,0.0,0.0,0.0,0.0,0.0,0.0,-0.3291,0.0,-0.9698,-0.7068,-0.6828,-1.1342,-1.4745,-1.5162,-1.5288,0.0,-1.5316,-1.5582,0.0,0.0,-1.5377,-1.5045,-1.5167,0.0,0.0,0.0,-1.2745,-1.2461,-1.2338,-1.2474,-1.2698,-1.299,-1.3146,0.0,-1.4753,-1.4909,-1.5404,-1.6069,-1.609,-1.6008,-1.5906,-1.6205,0.0,-1.6503,-1.6212,-1.6103,-1.6123,-1.6273,-1.6327,-1.6354,-1.6483,-1.6435,-1.63,-1.6151,-1.6103,-1.6069,-1.5927,-1.5988,-1.6157,-1.6442,0.0,0.0,0.0,0.0,-1.6069,0.0,-1.5764,-1.5744,-1.6022,-1.5839,-1.5655,-1.5669,-1.5669,-1.5716,-1.5839,-1.5988,-1.613,0.0,0.0,0.0,0.0,0.0,0.0,0.0,0.0,0.0,0.0,0.0,-1.7663,-1.7663,-1.7792,-1.786,-1.786,-1.786,-1.786,-1.786,-1.786,-1.7948,-1.8091,-1.8247,-1.8389,-1.8531,-1.8694,-1.8762,-1.8762,-1.8762,-1.885,-1.8972,-1.8972,-1.8972,-1.8993,-1.9128,-1.9203,-1.9257,0.0,0.0,0.0,0.0,0.0,0.0,0.0,0.0,0.0,0.0,-0.8792,-0.9724,-0.2518,-0.3093,-0.5624,-0.964,-0.9875,0.0,0.0,0.0,0.0,-1.5961,-1.5855,-1.5521,-1.5025,-1.4285,0.0,-1.3512,-1.3064,-1.2881,-1.2949,-1.2983,-1.3105,-1.3302,-1.3675,-1.4177,-1.476,-1.5018,-1.5432,-1.5934,-1.6157,-1.6225,0.0,0.0,-1.6632,-1.6822,-1.6517,-1.6408,-1.6415,-1.6456,-1.6544,-1.6625,-1.6544,-1.6571,-1.6605,-1.6456,-1.6408,-1.6402,-1.6361,-1.63,-1.6273,-1.6347,-1.6415,-1.6469,0.0,0.0,0.0,0.0,0.0,0.0,0.0,0.0,-1.5872,-1.6103,-1.6137,-1.6069,-1.5879,0.0,0.0,-1.5981,0.0,0.0,0.0,0.0,0.0,0.0,0.0,0.0,0.0,0.0,0.0,-1.7812,-1.7846,-1.786,-1.786,-1.786,-1.786,-1.786,-1.786,-1.7948,-1.8091,-1.8247,-1.8389,-1.8531,-1.8694,-1.8762,-1.8762,-1.8762,-1.8782,-1.8816,-1.8816,-1.8816,-1.883,-1.8993,-1.9183,-1.9379,0.0,0.0,0.0,0.0,0.0,0.0,0.0,0.0,0.0,0.0,-0.4635,0.0,-0.0594,0.0,-0.1184,-0.4167,-0.4583,0.0,-0.4585,0.0,0.0,-1.2379,-1.4737,-1.5945,-1.5705,-1.4984,0.0,-1.4265,0.0,-1.3283,-1.3177,-1.3303,-1.3606,-1.3926,-1.4245,-1.4665,-1.5153,-1.5452,-1.5683,-1.5879,-1.6185,0.0,0.0,-1.6619,-1.6788,-1.6883,-1.6924,-1.6849,-1.6734,-1.6815,-1.6688,-1.6755,-1.6951,-1.6998,-1.7026,-1.6788,-1.672,-1.6693,-1.6558,-1.6463,-1.6422,-1.6483,-1.651,-1.6537,-1.6605,-1.6632,-1.6619,0.0,0.0,0.0,0.0,0.0,-1.6198,-1.6374,-1.6402,-1.6341,0.0,0.0,0.0,0.0,-1.6429,0.0,0.0,0.0,0.0,0.0,0.0,0.0,0.0,0.0,0.0,-1.7772,-1.7901,-1.7935,-1.786,-1.7935,-1.7935,-1.786,-1.786,-1.7989,-1.8199,-1.8287,-1.8423,-1.864,-1.8728,-1.8762,-1.8762,-1.8762,-1.8762,-1.8762,-1.8762,-1.8796,-1.8871,-1.8884,-1.904,-1.9257,0.0,0.0,0.0,0.0,0.0,0.0,0.0,0.0,0.0,0.0,0.0,0.0,0.0,0.0,0.0,0.0,0.0,0.0,0.0,0.0,-0.1995,-0.6829,-1.1391,-1.4409,-1.5351,-1.4951,0.0,0.0,0.0,-1.2669,-1.2196,-1.2746,-1.3083,-1.3575,-1.4448,-1.4999,-1.5723,-1.5974,-1.6029,-1.5961,-1.6232,-1.6347,-1.6415,-1.6849,-1.6944,-1.6904,-1.7143,-1.709,-1.7046,-1.7016,-1.6635,-1.5999,-1.6124,-1.6608,-1.7217,-1.7134,-1.7046,-1.6978,-1.6714,-1.6625,-1.6639,-1.6754,-1.668,-1.6612,-1.672,-1.6673,-1.6639,-1.6727,-1.6646,-1.6592,0.0,0.0,-1.6558,-1.6578,-1.6551,0.0,0.0,0.0,0.0,0.0,0.0,0.0,0.0,0.0,0.0,0.0,0.0,0.0,0.0,0.0,-1.786,-1.7684,-1.7935,0.0,-1.7901,0.0,-1.8002,-1.7901,-1.788,-1.8023,-1.8321,-1.8321,-1.8477,-1.8762,-1.8762,-1.8762,-1.8762,-1.8762,-1.8762,-1.8762,-1.8762,-1.885,-1.8938,-1.8816,-1.8871,-1.9061,0.0,0.0,0.0,0.0,0.0,0.0,0.0,0.0,0.0,0.0,0.0,0.0,0.0,0.0,0.0,0.0,0.0,0.0,0.0,0.0,0.0,-0.1407,-0.2393,-0.4962,-0.9348,-0.9359,-0.9281,0.0,0.0,-0.8244,-0.8142,-0.8039,-0.8065,-0.8584,-1.3049,-1.5442,-1.6049,-1.6069,0.0,-1.6408,-1.6463,-1.6558,-1.6714,-1.6862,-1.7056,-1.717,-1.7404,-1.7277,-1.7023,-1.7224,-1.3955,-1.0003,-1.0019,-1.3522,-1.748,-1.7419,-1.7378,-1.7331,-1.7277,-1.7168,-1.7053,-1.6965,-1.6924,-1.6876,-1.6775,-1.6917,-1.7012,-1.6795,-1.6727,-1.672,-1.6748,0.0,0.0,0.0,0.0,0.0,0.0,0.0,0.0,0.0,0.0,0.0,0.0,0.0,0.0,0.0,0.0,0.0,0.0,0.0,-1.8233,0.0,-1.788,0.0,0.0,0.0,0.0,-1.8057,-1.7914,-1.8023,-1.8321,-1.8321,-1.8477,-1.8762,-1.8762,-1.8762,-1.8762,-1.8762,-1.8762,-1.8762,-1.8762,-1.8782,-1.8796,-1.8782,-1.8938,-1.9169,0.0,0.0,0.0,0.0,0.0,0.0,0.0,0.0,0.0,0.0,0.0,0.0,0.0,0.0,0.0,0.0,0.0,0.0,0.0,0.0,0.0,0.0,0.0,0.0,-0.3801,-0.3786,-0.3788,-0.3604,0.0,0.0,-0.3355,-0.3326,-0.3333,-0.377,-1.018,-1.4259,-1.6151,0.0,0.0,-1.6313,-1.6571,-1.656,-1.6728,-1.7069,-1.5284,-1.319,-1.6495,-1.7599,-1.7478,-1.7565,-1.5783,-1.219,-0.5963,-0.6176,-0.9704,-1.5857,-1.7813,-1.7548,-1.7446,-1.7365,-1.7297,-1.7222,-1.7209,-1.7168,-1.7012,-1.7087,-1.7127,-1.6917,-1.687,-1.6842,-1.6761,-1.6815,0.0,0.0,0.0,0.0,0.0,0.0,0.0,0.0,0.0,0.0,0.0,0.0,0.0,0.0,0.0,0.0,0.0,0.0,-1.8165,0.0,0.0,0.0,0.0,0.0,0.0,-1.7968,-1.7901,-1.8023,-1.8321,-1.8321,-1.8477,-1.8762,-1.8762,-1.8762,-1.8762,-1.8762,-1.8762,-1.8762,-1.8762,-1.8816,-1.8884,-1.8884,-1.9061,-1.9305,0.0,0.0,0.0,0.0,0.0,0.0,0.0,0.0,0.0,0.0,0.0,0.0,0.0,0.0,0.0,0.0,0.0,0.0,0.0,0.0,0.0,0.0,0.0,0.0,0.0,0.0,0.0,0.0,0.0,0.0,0.0,0.0,0.0,-0.0205,0.0,0.0,0.0,0.0,-1.6449,-1.6334,-1.6513,-1.5914,-1.5223,-1.6614,-1.4557,-1.1095,-1.6187,-1.786,-1.7406,-1.4876,-1.4188,-1.2372,-0.2911,0.0,-0.1785,-1.1307,-1.5961,-1.7745,-1.7575,-1.7528,-1.7521,-1.748,-1.7467,-1.7433,-1.7277,-1.7263,-1.7249,-1.7107,-1.7046,-1.6978,-1.6829,-1.687,0.0,0.0,0.0,0.0,0.0,0.0,0.0,0.0,0.0,0.0,0.0,0.0,0.0,0.0,0.0,0.0,-1.7704,0.0,0.0,0.0,0.0,-1.8057,-1.8002,0.0,-1.8002,0.0,-1.7914,-1.8057,-1.8321,-1.8355,-1.8511,-1.8762,-1.8762,-1.8762,-1.8762,-1.8762,-1.8762,-1.8762,-1.8762,-1.883,-1.8938,-1.8972,-1.9149,-1.9379,0.0,0.0,0.0,0.0,0.0,0.0,0.0,0.0,0.0,0.0,0.0,0.0,0.0,0.0,0.0,0.0,0.0,0.0,0.0,0.0,0.0,0.0,0.0,0.0,0.0,0.0,0.0,0.0,0.0,0.0,0.0,0.0,0.0,0.0,0.0,0.0,0.0,-1.6287,-1.6359,-1.6795,-1.6624,-1.3535,-0.9794,-1.5035,-1.7001,-1.7137,-1.7649,-1.7914,-1.6297,-0.5393,-0.1572,-0.1572,-0.0449,0.0,-0.0224,-0.1339,-0.9382,-1.7968,-1.7894,-1.788,-1.7846,-1.767,-1.7629,-1.7589,-1.7433,-1.7507,-1.7561,-1.7412,-1.727,-1.7127,-1.6985,-1.6856,-1.6897,0.0,0.0,0.0,0.0,0.0,-1.7066,-1.6781,0.0,0.0,0.0,0.0,0.0,0.0,-1.7575,0.0,0.0,0.0,0.0,-1.8287,0.0,-1.8213,-1.8464,-1.8077,0.0,-1.8077,-1.8077,-1.8158,-1.8321,-1.8464,-1.8599,-1.8762,-1.8762,-1.8762,-1.8762,-1.8762,-1.8762,-1.8762,-1.8762,-1.8762,-1.8796,-1.8938,-1.9094,-1.9237,0.0,0.0,0.0,0.0,0.0,0.0,0.0,0.0,0.0,0.0,0.0,0.0,0.0,0.0,0.0,0.0,0.0,0.0,0.0,0.0,0.0,0.0,0.0,0.0,0.0,0.0,0.0,0.0,0.0,0.0,0.0,0.0,0.0,0.0,0.0,-0.253,-0.6932,-1.0094,-1.162,-1.1916,-1.5478,-1.5464,-1.3022,-0.8631,-0.6908,-0.7188,-0.7196,-0.7196,-0.6518,-0.1572,0.0,0.0,0.0,0.0,0.0,0.0,-0.3352,-0.7828,-1.1621,-1.5225,-1.7948,-1.784,-1.7826,-1.7772,-1.7595,-1.7602,-1.7602,-1.7453,-1.7372,-1.7256,-1.7026,-1.7073,-1.7121,0.0,0.0,0.0,0.0,0.0,0.0,-1.7032,0.0,-1.7338,0.0,0.0,0.0,0.0,0.0,0.0,0.0,0.0,0.0,-1.8586,0.0,-1.8091,-1.8409,-1.8036,-1.7901,-1.7948,-1.8057,-1.8179,-1.8321,-1.8464,-1.862,-1.8762,-1.8762,-1.8762,-1.8762,-1.8762,-1.8762,-1.8762,-1.8762,-1.8762,-1.8796,-1.9027,-1.9149,-1.9237,0.0,0.0,0.0,0.0,0.0,0.0,0.0,0.0,0.0,0.0,0.0,0.0,0.0,0.0,0.0,0.0,0.0,0.0,0.0,0.0,0.0,0.0,0.0,0.0,0.0,0.0,0.0,0.0,0.0,0.0,0.0,0.0,0.0,0.0,0.0,0.0,-0.0211,-0.4248,-0.5969,-0.5976,-1.0192,-1.2092,-1.1104,-0.311,0.0,0.0,0.0,0.0,0.0,0.0,0.0,0.0,0.0,0.0,0.0,0.0,0.0,-0.0895,-0.5137,-0.939,-1.3217,-1.5442,-1.702,-1.7894,-1.7738,-1.7717,-1.767,-1.7521,-1.7487,-1.7412,-1.7154,-1.7277,-1.7344,-1.7114,0.0,0.0,0.0,-1.7249,-1.7222,-1.7317,-1.746,-1.7507,-1.7399,0.0,0.0,0.0,0.0,0.0,0.0,0.0,0.0,0.0,0.0,0.0,0.0,-1.8023,-1.786,-1.786,-1.8057,-1.8213,-1.8321,-1.8511,-1.8654,-1.8762,-1.8762,-1.8762,-1.8762,-1.8762,-1.8762,-1.8762,-1.8762,-1.8762,-1.8796,-1.9094,-1.9203,-1.9237,0.0,0.0,0.0,0.0,0.0,0.0,0.0,0.0,0.0,0.0,0.0,0.0,0.0,0.0,0.0,0.0,0.0,0.0,0.0,0.0,0.0,0.0,0.0,0.0,0.0,0.0,0.0,0.0,0.0,0.0,0.0,0.0,0.0,0.0,0.0,0.0,-0.0,-0.0,-0.0,-0.0,-0.022,-0.0222,-0.0222,-0.0,0.0,0.0,0.0,0.0,0.0,0.0,0.0,0.0,0.0,0.0,0.0,0.0,0.0,-0.0,-0.0,-0.0224,-0.2011,-1.0028,-1.4975,-1.7914,-1.786,-1.786,-1.7826,-1.7684,-1.765,-1.7595,-1.7446,-1.7419,-1.7514,-1.7812,0.0,0.0,0.0,-1.7385,-1.7304,-1.7609,-1.7772,-1.786,-1.786,0.0,0.0,0.0,0.0,0.0,0.0,0.0,0.0,-1.8531,-1.8247,0.0,-1.8321,-1.8023,-1.786,-1.786,-1.8179,-1.8321,-1.8335,-1.862,-1.8762,-1.8762,-1.8762,-1.8762,-1.8762,-1.8762,-1.8762,-1.8762,-1.8762,-1.8762,-1.8796,-1.9094,-1.9203,-1.9237,0.0,0.0,0.0,0.0,0.0,0.0,0.0,0.0,0.0,0.0,0.0,0.0,0.0,0.0,0.0,0.0,0.0,0.0,0.0,0.0,0.0,0.0,0.0,0.0,0.0,0.0,0.0,0.0,0.0,0.0,0.0,0.0,0.0,0.0,0.0,0.0,0.0,0.0,0.0,0.0,0.0,0.0,0.0,0.0,0.0,0.0,0.0,0.0,0.0,0.0,0.0,0.0,0.0,0.0,0.0,0.0,0.0,0.0,0.0,0.0,-0.2465,-1.3242,-1.6862,-1.7968,-1.7914,-1.788,-1.7846,-1.7812,-1.7792,-1.7758,-1.7602,-1.7575,-1.7575,-1.7561,-1.7439,0.0,-1.7623,-1.7561,-1.7575,-1.7772,-1.7826,-1.786,0.0,-1.8145,0.0,0.0,0.0,0.0,0.0,0.0,0.0,0.0,-1.8199,0.0,-1.8321,-1.8023,-1.786,-1.786,-1.8179,-1.8423,-1.862,-1.8728,-1.8762,-1.8762,-1.8762,-1.8762,-1.8762,-1.8762,-1.8762,-1.8762,-1.8762,-1.8762,-1.8796,-1.9094,-1.9203,-1.9237,0.0,0.0,0.0,0.0,0.0,0.0,0.0,0.0,0.0,0.0,0.0,0.0,0.0,0.0,0.0,0.0,0.0,0.0,0.0,0.0,0.0,0.0,0.0,0.0,0.0,0.0,0.0,0.0,0.0,0.0,0.0,0.0,0.0,0.0,0.0,0.0,0.0,0.0,0.0,0.0,0.0,0.0,0.0,0.0,0.0,0.0,0.0,0.0,0.0,0.0,0.0,0.0,0.0,0.0,0.0,0.0,0.0,0.0,0.0,0.0,-0.1794,-0.9202,-1.4619,-1.7793,-1.7948,-1.7914,-1.788,-1.786,-1.786,-1.7826,-1.7738,-1.7738,-1.7704,-1.7602,-1.7541,-1.7541,-1.7629,-1.7602,-1.767,-1.7914,0.0,0.0,0.0,-1.8158,0.0,0.0,0.0,0.0,0.0,0.0,0.0,-1.8518,-1.8091,0.0,-1.8145,-1.7948,-1.7901,-1.7948,-1.8247,-1.8531,-1.8762,-1.8762,-1.8762,-1.8762,-1.8762,-1.8762,-1.8762,-1.8762,-1.8762,-1.8762,-1.8762,-1.8762,-1.8796,-1.9027,-1.9149,-1.9237,0.0,0.0,0.0,0.0,0.0,0.0,0.0,0.0,0.0,0.0,0.0,0.0,0.0,0.0,0.0,0.0,0.0,0.0,0.0,0.0,0.0,0.0,0.0,0.0,0.0,0.0,0.0,0.0,0.0,0.0,0.0,0.0,0.0,0.0,0.0,0.0,0.0,0.0,0.0,0.0,0.0,0.0,0.0,0.0,0.0,0.0,0.0,0.0,0.0,0.0,0.0,0.0,0.0,0.0,0.0,0.0,0.0,0.0,0.0,0.0,0.0,0.0,-0.8293,-1.6677,-1.7262,-1.7699,-1.7914,-1.788,-1.786,-1.786,-1.786,-1.786,-1.786,-1.786,-1.7758,-1.7663,-1.7663,-1.7541,-1.7609,0.0,0.0,0.0,0.0,-1.8165,-1.8036,0.0,0.0,0.0,0.0,0.0,-1.8531,-1.8091,-1.7935,-1.786,-1.786,-1.788,-1.7968,-1.8124,-1.8409,-1.862,-1.8762,-1.8762,-1.8762,-1.8762,-1.8762,-1.8762,-1.8762,-1.8762,-1.8762,-1.8762,-1.8762,-1.8762,-1.8782,-1.8938,-1.9081,-1.9217,0.0,0.0,0.0,0.0,0.0,0.0,0.0,0.0,0.0,0.0,0.0,0.0,0.0,0.0,0.0,0.0,0.0,0.0,0.0,0.0,0.0,0.0,0.0,0.0,0.0,0.0,0.0,0.0,0.0,0.0,0.0,0.0,0.0,0.0,0.0,0.0,0.0,0.0,0.0,0.0,0.0,0.0,0.0,0.0,0.0,0.0,0.0,0.0,0.0,0.0,0.0,0.0,0.0,0.0,0.0,0.0,0.0,0.0,0.0,0.0,0.0,0.0,-0.2241,-0.5366,-1.0054,-1.4536,-1.7935,-1.7914,-1.788,-1.786,-1.786,-1.786,-1.786,-1.786,-1.7826,-1.7812,-1.7812,-1.7772,-1.7792,0.0,-1.788,-1.7901,-1.7968,-1.8036,-1.8165,0.0,0.0,0.0,0.0,-1.8409,-1.8267,-1.7935,-1.788,-1.786,-1.786,-1.7989,-1.8165,-1.8423,-1.8498,-1.862,-1.8762,-1.8762,-1.8762,-1.8762,-1.8762,-1.8762,-1.8762,-1.8762,-1.8762,-1.8762,-1.8762,-1.8762,-1.8782,-1.8938,-1.9081,-1.9217,0.0,0.0,0.0,0.0,0.0,0.0,0.0,0.0,0.0,0.0,0.0,0.0,0.0,0.0,0.0,0.0,0.0,0.0,0.0,0.0,0.0,0.0,0.0,0.0,0.0,0.0,0.0,0.0,0.0,0.0,0.0,0.0,0.0,0.0,0.0,0.0,0.0,0.0,0.0,0.0,0.0,0.0,0.0,0.0,0.0,0.0,0.0,0.0,0.0,0.0,0.0,0.0,0.0,0.0,0.0,0.0,0.0,0.0,0.0,0.0,0.0,0.0,0.0,-0.0895,-0.402,-0.737,-1.1172,-1.6805,-1.7914,-1.788,-1.786,-1.786,-1.786,-1.786,-1.786,-1.786,-1.786,-1.786,-1.786,-1.786,-1.786,-1.786,-1.786,-1.7935,-1.8057,-1.8213,0.0,0.0,-1.8233,-1.8145,-1.8036,-1.786,-1.786,-1.786,-1.786,-1.8091,-1.8301,-1.8531,-1.8599,-1.8674,-1.8762,-1.8762,-1.8762,-1.8762,-1.8762,-1.8762,-1.8762,-1.8762,-1.8762,-1.8762,-1.8762,-1.8762,-1.8782,-1.8938,-1.9081,-1.9217,0.0,0.0,0.0,0.0,0.0,0.0,0.0,0.0,0.0,0.0,0.0,0.0,0.0,0.0,0.0,0.0,0.0,0.0,0.0,0.0,0.0,0.0,0.0,0.0,0.0,0.0,0.0,0.0,0.0,0.0,0.0,0.0,0.0,0.0,0.0,0.0,0.0,0.0,0.0,0.0,0.0,0.0,0.0,0.0,0.0,0.0,0.0,0.0,0.0,0.0,0.0,0.0,0.0,0.0,0.0,0.0,0.0,0.0,0.0,0.0,0.0,0.0,0.0,0.0,0.0,0.0,-0.2904,-1.3187,-1.6583,-1.7914,-1.788,-1.786,-1.788,-1.7948,-1.7914,-1.788,-1.7948,0.0,-1.786,-1.786,-1.786,-1.786,-1.786,-1.786,-1.786,-1.786,-1.786,-1.786,0.0,-1.786,-1.788,-1.7901,-1.788,-1.788,-1.7935,-1.8213,-1.8423,-1.8565,-1.8694,-1.8762,-1.8762,-1.8762,-1.8762,-1.8762,-1.8762,-1.8762,-1.8762,-1.8762,-1.8762,-1.8762,-1.8762,-1.8762,-1.8782,-1.8938,-1.9081,-1.9217,0.0,0.0,0.0,0.0,0.0,0.0,0.0,0.0,0.0,0.0,0.0,0.0,0.0,0.0,0.0,0.0,0.0,0.0,0.0,0.0,0.0,0.0,0.0,0.0,0.0,0.0,0.0,0.0,0.0,0.0,0.0,0.0,0.0,0.0,0.0,0.0,0.0,0.0,0.0,0.0,0.0,0.0,0.0,0.0,0.0,0.0,0.0,0.0,0.0,0.0,0.0,0.0,0.0,0.0,0.0,0.0,0.0,0.0,0.0,0.0,0.0,0.0,0.0,0.0,0.0,0.0,-0.0447,-0.2458,-1.0945,-1.7935,-1.7914,-1.7894,-1.7989,-1.8375,-1.8111,-1.8002,-1.8375,0.0,-1.786,-1.786,-1.786,-1.786,-1.786,-1.786,-1.786,-1.786,-1.786,-1.786,-1.786,-1.786,-1.7914,-1.8057,-1.7935,-1.7989,-1.8247,-1.8409,-1.8565,-1.8728,-1.8742,-1.8762,-1.8762,-1.8762,-1.8762,-1.8762,-1.8762,-1.8762,-1.8762,-1.8762,-1.8762,-1.8762,-1.8762,-1.8762,-1.8782,-1.8938,-1.9081,-1.9217,0.0,0.0,0.0,0.0,0.0,0.0,0.0,0.0,0.0,0.0,0.0,0.0,0.0,0.0,0.0,0.0,0.0,0.0,0.0,0.0,0.0,0.0,0.0,0.0,0.0,0.0,0.0,0.0,0.0,0.0,0.0,0.0,0.0,0.0,0.0,0.0,0.0,0.0,0.0,0.0,0.0,0.0,0.0,0.0,0.0,0.0,0.0,0.0,0.0,0.0,0.0,0.0,0.0,0.0,0.0,0.0,0.0,0.0,0.0,0.0,0.0,0.0,0.0,0.0,0.0,0.0,0.0,0.0,-0.4466,-1.0269,-1.6805,-1.7914,-1.7968,-1.8145,-1.8002,0.0,0.0,-1.7989,-1.786,-1.786,-1.786,-1.786,-1.786,-1.786,-1.786,-1.786,-1.786,-1.786,-1.786,-1.7935,-1.8023,-1.8091,-1.8111,-1.8213,-1.8423,-1.8498,-1.8599,-1.8762,-1.8762,-1.8762,-1.8762,-1.8762,-1.8762,-1.8762,-1.8762,-1.8762,-1.8762,-1.8762,-1.8762,-1.8762,-1.8762,-1.8762,-1.8782,-1.8938,-1.9027,-1.9115,0.0,0.0,0.0,0.0,0.0,0.0,0.0,0.0,0.0,0.0,0.0,0.0,0.0,0.0,0.0,0.0,0.0,0.0,0.0,0.0,0.0,0.0,0.0,0.0,0.0,0.0,0.0,0.0,0.0,0.0,0.0,0.0,0.0,0.0,0.0,0.0,0.0,0.0,0.0,0.0,0.0,0.0,0.0,0.0,0.0,0.0,0.0,0.0,0.0,0.0,0.0,0.0,0.0,0.0,0.0,0.0,0.0,0.0,0.0,0.0,0.0,0.0,0.0,0.0,0.0,0.0,0.0,0.0,0.0,-0.2904,-1.2071,-1.612,-1.7948,-1.7793,0.0,-1.7901,0.0,-1.7935,-1.786,-1.786,-1.786,-1.786,-1.786,-1.786,-1.786,-1.786,-1.7901,-1.7914,-1.7914,-1.8057,-1.8158,-1.8199,-1.8301,-1.8423,-1.8531,-1.8565,-1.864,-1.8762,-1.8762,-1.8762,-1.8762,-1.8762,-1.8762,-1.8762,-1.8762,-1.8762,-1.8762,-1.8762,-1.8762,-1.8762,-1.8762,-1.8762,-1.8782,-1.8938,-1.8993,-1.9027,0.0,0.0,0.0,0.0,0.0,0.0,0.0,0.0,0.0,0.0,0.0,0.0,0.0,0.0,0.0,0.0,0.0,0.0,0.0,0.0,0.0,0.0,0.0,0.0,0.0,0.0,0.0,0.0,0.0,0.0,0.0,0.0,0.0,0.0,0.0,0.0,0.0,0.0,0.0,0.0,0.0,0.0,0.0,0.0,0.0,0.0,0.0,0.0,0.0,0.0,0.0,0.0,0.0,0.0,0.0,0.0,0.0,0.0,0.0,0.0,0.0,0.0,0.0,0.0,0.0,0.0,0.0,0.0,0.0,-0.0224,-0.1117,-1.0496,-1.7847,-1.8007,0.0,0.0,-1.8423,-1.8124,-1.786,-1.786,-1.786,-1.786,-1.786,-1.786,-1.786,-1.786,-1.7989,-1.8077,-1.8077,-1.8213,-1.8355,-1.8498,-1.8511,-1.8511,-1.8531,-1.8674,-1.8742,-1.8762,-1.8762,-1.8762,-1.8762,-1.8762,-1.8762,-1.8762,-1.8762,-1.8762,-1.8762,-1.8762,-1.8762,-1.8762,-1.8762,-1.8762,-1.8782,-1.8938,-1.8993,-1.9027,0.0,0.0,0.0,0.0,0.0,0.0,0.0,0.0,0.0,0.0,0.0,0.0,0.0,0.0,0.0,0.0,0.0,0.0,0.0,0.0,0.0,0.0,0.0,0.0,0.0,0.0,0.0,0.0,0.0,0.0,0.0,0.0,0.0,0.0,0.0,0.0,0.0,0.0,0.0,0.0,0.0,0.0,0.0,0.0,0.0,0.0,0.0,0.0,0.0,0.0,0.0,0.0,0.0,0.0,0.0,0.0,0.0,0.0,0.0,0.0,0.0,0.0,0.0,0.0,0.0,0.0,0.0,0.0,0.0,0.0,0.0,-0.3796,-0.9184,-1.6771,0.0,-1.7948,-1.8091,-1.7968,-1.786,-1.786,-1.786,-1.786,-1.786,-1.786,-1.7901,-1.8002,-1.8057,-1.8124,-1.8233,-1.8375,-1.8511,-1.8674,-1.8674,-1.8674,-1.8674,-1.8728,-1.8762,-1.8762,-1.8762,-1.8762,-1.8762,-1.8762,-1.8762,-1.8762,-1.8762,-1.8762,-1.8762,-1.8762,-1.8762,-1.8762,-1.8762,-1.8762,-1.8782,-1.8938,-1.8993,-1.9027,0.0,0.0,0.0,0.0,0.0,0.0,0.0,0.0,0.0,0.0,0.0,0.0,0.0,0.0,0.0,0.0,0.0,0.0,0.0,0.0,0.0,0.0,0.0,0.0,0.0,0.0,0.0,0.0,0.0,0.0,0.0,0.0,0.0,0.0,0.0,0.0,0.0,0.0,0.0,0.0,0.0,0.0,0.0,0.0,0.0,0.0,0.0,0.0,0.0,0.0,0.0,0.0,0.0,0.0,0.0,0.0,0.0,0.0,0.0,0.0,0.0,0.0,0.0,0.0,0.0,0.0,0.0,0.0,0.0,0.0,0.0,0.0,-0.2681,-1.0945,-1.5454,-1.7935,-1.7894,-1.788,-1.788,-1.786,-1.786,-1.786,-1.786,-1.7901,-1.7989,-1.8091,-1.8179,-1.8301,-1.8443,-1.8552,-1.8674,-1.883,-1.8782,-1.8782,-1.883,-1.8782,-1.8762,-1.8762,-1.8762,-1.8762,-1.8762,-1.8762,-1.8762,-1.8762,-1.8762,-1.8762,-1.8762,-1.8762,-1.8762,-1.8762,-1.8762,-1.8796,-1.885,-1.8959,-1.9027,-1.9094,0.0,0.0,0.0,0.0,0.0,0.0,0.0,0.0,0.0,0.0,0.0,0.0,0.0,0.0,0.0,0.0,0.0,0.0,0.0,0.0,0.0,0.0,0.0,0.0,0.0,0.0,0.0,0.0,0.0,0.0,0.0,0.0,0.0,0.0,0.0,0.0,0.0,0.0,0.0,0.0,0.0,0.0,0.0,0.0,0.0,0.0,0.0,0.0,0.0,0.0,0.0,0.0,0.0,0.0,0.0,0.0,0.0,0.0,0.0,0.0,0.0,0.0,0.0,0.0,0.0,0.0,0.0,0.0,0.0,0.0,0.0,0.0,0.0,0.0,-1.0074,-1.776,-1.7928,-1.7928,-1.7914,-1.786,-1.786,-1.786,-1.786,-1.8002,-1.8091,-1.8091,-1.8375,-1.8599,-1.8762,-1.8762,-1.883,-1.8993,-1.885,-1.883,-1.8993,-1.883,-1.8762,-1.8762,-1.8762,-1.8762,-1.8762,-1.8762,-1.8762,-1.8762,-1.8762,-1.8762,-1.8762,-1.8762,-1.8762,-1.8762,-1.8762,-1.885,-1.8993,-1.8993,-1.9081,-1.9217,0.0,0.0,0.0,0.0,0.0,0.0,0.0,0.0,0.0,0.0,0.0,0.0,0.0,0.0,0.0,0.0,0.0,0.0,0.0,0.0,0.0,0.0,0.0,0.0,0.0,0.0,0.0,0.0,0.0,0.0,0.0,0.0,0.0,0.0,0.0,0.0,0.0,0.0,0.0,0.0,0.0,0.0,0.0,0.0,0.0,0.0,0.0,0.0,0.0,0.0,0.0,0.0,0.0,0.0,0.0,0.0,0.0,0.0,0.0,0.0,0.0,0.0,0.0,0.0,0.0,0.0,0.0,0.0,0.0,0.0,0.0,0.0,0.0,0.0,-0.2906,-0.737,-1.295,-1.6108,-1.7914,-1.786,-1.786,-1.786,-1.786,-1.8002,-1.8145,-1.8247,-1.8531,-1.8708,-1.8762,-1.8871,-1.8905,-1.883,-1.8884,-1.8884,-1.883,-1.8782,-1.8762,-1.8762,-1.8762,-1.8762,-1.8762,-1.8762,-1.8762,-1.8762,-1.8762,-1.8762,-1.8762,-1.8762,-1.8762,-1.8762,-1.8762,-1.885,-1.9006,-1.9094,-1.9237,-1.9379,0.0,0.0,0.0,0.0,0.0,0.0,0.0,0.0,0.0,0.0,0.0,0.0,0.0,0.0,0.0,0.0,0.0,0.0,0.0,0.0,0.0,0.0,0.0,0.0,0.0,0.0,0.0,0.0,0.0,0.0,0.0,0.0,0.0,0.0,0.0,0.0,0.0,0.0,0.0,0.0,0.0,0.0,0.0,0.0,0.0,0.0,0.0,0.0,0.0,0.0,0.0,0.0,0.0,0.0,0.0,0.0,0.0,0.0,0.0,0.0,0.0,0.0,0.0,0.0,0.0,0.0,0.0,0.0,0.0,0.0,0.0,0.0,0.0,0.0,0.0,-0.1789,-0.6468,-1.3415,-1.7948,-1.7894,-1.788,-1.786,-1.786,-1.8002,-1.8179,-1.8389,-1.862,-1.8796,-1.885,-1.8938,-1.9006,-1.9027,-1.9006,-1.8972,-1.8938,-1.8816,-1.8762,-1.8762,-1.8762,-1.8762,-1.8762,-1.8762,-1.8762,-1.8762,-1.8762,-1.8762,-1.8762,-1.8762,-1.8796,-1.885,-1.885,-1.8972,-1.9169,-1.9257,-1.9393,-1.9535,0.0,0.0,0.0,0.0,0.0,0.0,0.0,0.0,0.0,0.0,0.0,0.0,0.0,0.0,0.0,0.0,0.0,0.0,0.0,0.0,0.0,0.0,0.0,0.0,0.0,0.0,0.0,0.0,0.0,0.0,0.0,0.0,0.0,0.0,0.0,0.0,0.0,0.0,0.0,0.0,0.0,0.0,0.0,0.0,0.0,0.0,0.0,0.0,0.0,0.0,0.0,0.0,0.0,0.0,0.0,0.0,0.0,0.0,0.0,0.0,0.0,0.0,0.0,0.0,0.0,0.0,0.0,0.0,0.0,0.0,0.0,0.0,0.0,0.0,0.0,0.0,0.0,-0.94,-1.6614,-1.7706,-1.7894,-1.786,-1.786,-1.8023,-1.8233,-1.8511,-1.8674,-1.8816,-1.8959,-1.8993,-1.9128,-1.9379,-1.9149,-1.9061,-1.9183,-1.8905,-1.8762,-1.8762,-1.8762,-1.8762,-1.8762,-1.8762,-1.8762,-1.8762,-1.8782,-1.8782,-1.8762,-1.8782,-1.8871,-1.8993,-1.8993,-1.9169,-1.9434,-1.9434,-1.9535,-1.9664,0.0,0.0,0.0,0.0,0.0,0.0,0.0,0.0,0.0,0.0,0.0,0.0,0.0,0.0,0.0,0.0,0.0,0.0,0.0,0.0,0.0,0.0,0.0,0.0,0.0,0.0,0.0,0.0,0.0,0.0,0.0,0.0,0.0,0.0,0.0,0.0,0.0,0.0,0.0,0.0,0.0,0.0,0.0,0.0,0.0,0.0,0.0,0.0,0.0,0.0,0.0,0.0,0.0,0.0,0.0,0.0,0.0,0.0,0.0,0.0,0.0,0.0,0.0,0.0,0.0,0.0,0.0,0.0,0.0,0.0,0.0,0.0,0.0,0.0,0.0,0.0,0.0,-0.2234,-0.737,-1.6805,-1.7914,-1.7894,-1.786,-1.8111,-1.8335,-1.8511,-1.8674,-1.8782,-1.8816,-1.9027,-1.9128,-1.9094,-1.9128,-1.9115,-1.904,-1.885,-1.8762,-1.8762,-1.8762,-1.8762,-1.8762,-1.8762,-1.8762,-1.8762,-1.8884,-1.8871,-1.8782,-1.8884,-1.8959,-1.8993,-1.8993,-1.9169,-1.9434,-1.9434,-1.9535,-1.9664,0.0,0.0,0.0,0.0,0.0,0.0,0.0,0.0,0.0,0.0,0.0,0.0,0.0,0.0,0.0,0.0,0.0,0.0,0.0,0.0,0.0,0.0,0.0,0.0,0.0,0.0,0.0,0.0,0.0,0.0,0.0,0.0,0.0,0.0,0.0,0.0,0.0,0.0,0.0,0.0,0.0,0.0,0.0,0.0,0.0,0.0,0.0,0.0,0.0,0.0,0.0,0.0,0.0,0.0,0.0,0.0,0.0,0.0,0.0,0.0,0.0,0.0,0.0,0.0,0.0,0.0,0.0,0.0,0.0,0.0,0.0,0.0,0.0,0.0,0.0,0.0,0.0,-0.2462,-0.6481,-1.296,-1.6126,-1.7914,-1.786,-1.8077,-1.8267,-1.8423,-1.8565,-1.8742,-1.8959,-1.9115,-1.9203,-1.9203,-1.9271,-1.9237,-1.9094,-1.8938,-1.8871,-1.8871,-1.8871,-1.883,-1.8762,-1.883,-1.8871,-1.8871,-1.8959,-1.8993,-1.8972,-1.8993,-1.9081,-1.9203,-1.9115,-1.9271,-1.9535,-1.9535,-1.959,-1.9664,0.0,0.0,0.0,0.0,0.0,0.0,0.0,0.0,0.0,0.0,0.0,0.0,0.0,0.0,0.0,0.0,0.0,0.0,0.0,0.0,0.0,0.0,0.0,0.0,0.0,0.0,0.0,0.0,0.0,0.0,0.0,0.0,0.0,0.0,0.0,0.0,0.0,0.0,0.0,0.0,0.0,0.0,0.0,0.0,0.0,0.0,0.0,0.0,0.0,0.0,0.0,0.0,0.0,0.0,0.0,0.0,0.0,0.0,0.0,0.0,0.0,0.0,0.0,0.0,0.0,0.0,0.0,0.0,0.0,0.0,0.0,0.0,0.0,0.0,0.0,0.0,0.0,-0.5157,-0.8967,-0.895,-1.4336,-1.7948,-1.7901,-1.8036,-1.8179,-1.8267,-1.8477,-1.8762,-1.9115,-1.9203,-1.9305,-1.9434,-1.9434,-1.9379,-1.9237,-1.9094,-1.9027,-1.9027,-1.9061,-1.8972,-1.8816,-1.8959,-1.9027,-1.9027,-1.9061,-1.9115,-1.9203,-1.9094,-1.9203,-1.9413,-1.9291,-1.9413,-1.9664,-1.9664,-1.9664,-1.9664,0.0,0.0,0.0,0.0,0.0,0.0,0.0,0.0,0.0,0.0,0.0,0.0,0.0,0.0,0.0,0.0,0.0,0.0,0.0,0.0,0.0,0.0,0.0,0.0,0.0,0.0,0.0,0.0,0.0,0.0,0.0,0.0,0.0,0.0,0.0,0.0,0.0,0.0,0.0,0.0,0.0,0.0,0.0,0.0,0.0,0.0,0.0,0.0,0.0,0.0,0.0,0.0,0.0,0.0,0.0,0.0,0.0,0.0,0.0,0.0,0.0,0.0,0.0,0.0,0.0,0.0,0.0,0.0,0.0,0.0,0.0,0.0,0.0,0.0,0.0,0.0,0.0,-0.5393,-0.9229,-0.9257,-1.445,-1.807,-1.8057,-1.8199,-1.8247,-1.8124,-1.862,-1.8905,-1.883,-1.9183,-1.9413,-1.9434,-1.9434,-1.9413,-1.9393,-1.9257,-1.9169,-1.9169,-1.9305,-1.9217,-1.8972,-1.9115,-1.9169,-1.9183,-1.9305,-1.9305,-1.9217,-1.9325,-1.9393,-1.9434,-1.9413,-1.9501,-1.9664,-1.9664,-1.9664,-1.9664,0.0,0.0,0.0,0.0,0.0,0.0,0.0,0.0,0.0,0.0,0.0,0.0,0.0,0.0,0.0,0.0,0.0,0.0,0.0,0.0,0.0,0.0,0.0,0.0,0.0,0.0,0.0,0.0,0.0,0.0,0.0,0.0,0.0,0.0,0.0,0.0,0.0,0.0,0.0,0.0,0.0,0.0,0.0,0.0,0.0,0.0,0.0,0.0,0.0,0.0,0.0,0.0,0.0,0.0,0.0,0.0,0.0,0.0,0.0,0.0,0.0,0.0,0.0,0.0,0.0,0.0,0.0,0.0,0.0,0.0,0.0,0.0,0.0,0.0,0.0,0.0,0.0,-0.247,-0.6737,-1.3522,-1.6658,-1.8246,-1.8091,-1.8077,-1.8111,-1.8213,-1.8464,-1.8694,-1.8884,-1.9149,-1.9345,-1.9434,-1.9522,-1.9522,-1.9434,-1.9359,-1.9325,-1.9325,-1.9393,-1.9325,-1.9115,-1.9257,-1.9325,-1.9325,-1.9393,-1.9447,-1.9447,-1.9434,-1.9481,-1.9556,-1.9468,-1.9522,-1.9664,-1.9664,-1.9664,-1.9664]}]]